GFSSE_prec_radar_000.txt.gz
Reflectivity
-20 -20 16 2 -20 -20 -20 7 -20 -20 -20 -20 -20 -18 -17 -20 -20 -20 1 -20 -20 -20 -20 -20 -20 -20 -20 -20 -20 -20 -20 -20 -20 -20 -20 -20 -20 -20 -20 -19 -20 -13 -20
-20 -20 11 -17 -20 -20 -20 -19 -19 15 -20 -6 -20 -20 -20 -20 -20 -20 -20 -20 -20 -20 -20 -20 -20 -20 -20 -20 -20 -20 -20 -20 -7 -18 -20 -20 -20 -20 -20 -20 -20 -20 -20
-20 -20 -20 -20 -20 -15 -20 8 -2 -20 -20 -20 -20 -20 -20 -20 -20 -20 -20 -20 -20 -20 -20 -20 -20 -20 -20 -20 -20 -20 -20 -20 -20 -20 -17 6 -20 -20 -20 -20 -20 -20 -20
-20 -20 -20 -20 -20 -20 -20 -20 -20 -20 -20 -20 -20 -20 -20 -20 -20 -20 -20 -20 -20 -20 -20 -20 -20 -20 -20 -20 -20 -20 -9 -20 -20 -20 -20 9 -7 -20 -20 -20 -20 -20 -20
-20 -20 -20 -20 -20 -20 -20 -20 -20 -20 -20 -20 -20 -20 -20 -20 -20 -20 -20 -20 -20 -20 -20 -20 -20 -20 -20 -20 -20 -20 -20 -20 -16 -19 33 -20 -20 3 -10 -20 -20 -20 -20
-20 -20 -20 -20 -20 -20 -20 -20 -20 -20 -20 -20 -20 -20 -20 -20 -20 -20 -20 -20 -20 -20 -20 -20 -20 -20 -20 -20 -20 -20 -20 -20 -20 -20 -14 -19 -20 -3 -6 -12 -12 -20 -20
-20 -20 -20 -20 -20 -20 -20 -20 -20 -20 -20 -20 -20 -20 -20 -20 -20 -20 -20 -20 -20 -20 -20 -20 -20 -20 -20 -20 -20 -20 -20 -20 16 -17 -20 -20 -20 -20 -20 -16 5 20 -18
-20 -20 -20 -20 -20 -20 -20 -20 -20 -20 -20 -20 -20 -20 -20 -20 -20 -20 -20 -20 -20 -20 -20 -20 -20 -20 -20 -20 -20 -20 -20 -20 -18 -20 -20 -20 -20 -6 -1 -20 -17 -3 -18
-20 -20 -20 -20 -20 -20 -20 -20 -20 -20 -20 -20 -20 -20 -20 -20 -20 -20 -20 -20 -20 -20 -20 -20 -20 -20 -20 -20 -20 -20 -20 -20 -20 -20 -20 -20 30 30 30 20 -20 -12 -8
-20 -20 -20 -20 -20 -20 -20 -20 -20 -20 -20 -20 -20 -20 -20 -20 -20 -20 -20 -20 -20 -20 -20 -20 -20 -20 -20 -20 -20 -20 -20 -20 -20 -20 -20 -20 -20 5 -11 30 20 -16 -19
-20 -20 -20 -20 -20 -20 -20 -20 -20 -20 -20 -20 -20 -20 -20 -20 -20 -20 -20 -20 -20 -20 -20 -20 -20 -20 -20 -20 -20 -20 -20 -20 -20 -20 -20 -20 -20 23 -20 -13 -20 -3 -20
-20 -20 -20 -20 -20 -20 -20 -20 -20 -20 -20 -20 -20 -20 -20 -20 -20 -20 -20 -20 -20 -20 -20 -20 -20 -20 -20 -20 -20 -20 -20 -20 -20 -20 -20 -20 -20 -9 -20 -20 -20 -2 32
-20 -20 -20 -20 -20 -20 -20 -20 -20 -20 -20 -20 -20 -20 -20 -20 -20 -20 -20 -20 -20 -20 -20 -20 -20 -20 -20 -20 -20 -20 -20 -20 -20 -20 -20 -20 -20 -20 -20 -20 -20 -20 13
-20 -20 -20 -20 -20 -20 -20 -20 -20 -20 -20 -20 -20 -20 -20 -20 -20 -20 -20 -20 -20 -20 -20 -20 -20 -20 -20 -20 -20 -20 -20 -20 -20 -20 -20 -20 -20 -20 -20 -20 -20 -20 27
-20 -20 -20 -20 -20 -20 -20 -20 -20 -20 -20 -20 -20 -20 -20 -20 -20 -20 -20 -20 -20 -20 -20 -20 -20 -20 -20 -20 -20 -20 -20 -20 -20 -20 -20 -20 -20 -20 -20 -20 -20 -20 -20
-20 -20 -20 -20 -20 -20 -20 -20 -20 -20 -20 -20 -20 -20 -20 -20 -20 -20 -20 -20 -20 -20 -20 -20 -20 -20 -20 -20 -20 -20 -20 -20 -20 -20 -20 -20 -20 -20 -20 -20 -20 -20 -20
-20 -20 -20 -20 -20 -20 -20 -20 -20 -20 -20 -20 -20 -20 -20 -20 -20 -20 -20 -20 -20 -20 -20 -20 -20 -20 -20 -20 -20 -20 -20 -20 -20 -20 -20 -20 -20 -20 -20 -20 -20 -13 19
-20 -20 -20 -20 -20 -20 -20 -20 -20 -20 -20 -20 -20 -20 -20 -20 -20 -20 -20 -20 -20 -20 -20 -20 -20 -20 -20 -20 -20 -20 -20 -20 -20 -20 -20 -20 -20 -20 -20 -20 -20 -18 -18
-20 -20 -20 -20 -20 -20 -20 -20 -20 -20 -20 -20 -20 -20 -20 -20 -20 -20 -20 -20 -20 -20 -20 -20 -20 -20 -20 -20 -20 -20 -20 -20 -20 -20 -20 -20 -20 -20 -20 -20 -20 -20 -20
-20 -20 -20 -20 -20 -20 -20 -20 -20 -20 -20 -20 -20 -20 -20 -20 -20 -20 -20 -20 -20 -20 -20 -20 -20 -20 -20 -20 -20 -20 -20 -20 -20 -20 -20 -20 -20 -20 -20 -20 -20 -20 -20
-20 -20 -20 -20 -20 -20 -20 -20 -20 -20 -20 -20 -20 -20 -20 -20 -20 -20 -20 -20 -20 -20 -20 -20 -20 -20 -20 -20 -20 -20 -20 -20 -20 -20 -20 -20 -20 -20 -20 -20 -20 -20 -20
-20 -20 -20 -20 -20 -20 -20 -20 -20 -20 -20 -20 -20 -20 -20 -20 -20 -20 -20 -20 -20 -20 -20 -20 -20 -20 -20 -20 -20 -20 -20 -20 -20 -20 -20 -20 -20 -20 -20 -20 -20 -20 -20
-20 -20 -20 -20 -20 -20 -20 -20 -20 -20 -20 -20 -20 -20 -20 -20 -20 -20 -20 -20 -20 -20 -20 -20 -20 -20 -20 -20 -20 -20 -20 -20 -20 -20 -20 -20 -20 -20 -20 -20 -20 -20 -20
-20 -20 -20 -20 -20 -20 -20 -20 -20 -20 -20 -20 -20 -20 -20 -20 -20 -20 -20 -20 -20 -20 -20 -20 -20 -20 -20 -20 -20 -20 -20 -20 -20 -20 -20 -20 -20 -20 -20 -20 -20 -20 -20
-20 -20 -20 -20 -20 -20 -20 -20 -20 -20 -20 -20 -20 -20 -20 -20 -20 -20 -20 -20 -20 -20 -20 -20 -20 -6 -8 -19 -20 -8 -20 -20 -20 -20 -20 -20 -20 -20 -20 -20 -20 -20 -20
-20 -20 -20 -20 -20 -20 -20 -20 -20 -20 -20 -20 -20 -20 -20 -20 -20 -20 -20 -20 -20 -20 -20 -20 -20 -20 -19 -20 0 2 -8 -20 -20 -20 -20 -20 -20 -14 -13 -20 -20 -20 -20

GFSSE_prec_radar_003.txt.gz
Reflectivity
-20 -20 -20 -20 -20 11 17 -20 -20 -20 -20 -20 -20 -20 -20 -20 -20 -20 -20 -20 -20 -20 -20 -20 -20 -20 3 -20 -20 -20 -20 -20 -20 3 4 -20 -20 -20 -20 -20 -20 -20 -15
-20 -3 -20 -20 -20 -20 -20 -20 -20 -20 -17 -20 -20 -20 -20 -20 -20 -20 -20 -20 -20 -20 -20 -20 -20 -20 -20 -20 -20 -20 -20 -20 -20 -19 -20 -20 -20 -20 -20 -20 2 -20 -13
-20 -20 -20 -20 -20 -20 -20 -20 -20 -20 -20 -20 -20 -20 -20 -20 -20 -20 -20 -20 -20 -20 -20 -20 -20 -20 4 -15 -20 -20 -20 -20 -20 15 -9 -12 -20 -20 -20 -20 -20 -20 -20
-20 -20 -20 -20 -20 -20 -20 -20 -20 -20 -20 -20 -20 -20 -20 -20 -20 -20 -20 -20 -20 1 -20 -20 -20 -20 -20 -20 -20 -20 -20 -20 -20 -20 -19 -1 -9 -12 -20 -20 -20 -20 -20
-20 -20 -20 -20 -20 -20 -20 -20 -20 -20 1 2 0 -0 -20 -20 -20 -20 -20 -20 -20 -20 -20 -20 -20 -19 -20 -20 -20 -20 -20 -20 -20 -19 -20 -20 -9 6 -18 -5 -20 -20 -20
-20 -20 -20 -20 -20 -20 -20 -20 -20 -19 -19 -19 1 4 -20 1 6 -20 -20 -20 -20 -20 -20 -20 -20 -20 -20 -20 -20 -20 -20 -20 -20 -20 -20 -20 32 38 3 10 -20 -20 -20
-20 -20 -20 -20 -20 -20 -20 -20 -20 -20 -20 -20 -20 -20 -20 -20 -20 -20 -20 -20 -20 -20 -17 -20 -20 -20 -20 -20 -20 -20 -20 -20 -20 -20 -20 31 32 -20 -18 21 -20 -20 -20
-20 -20 -20 -20 -20 -20 -20 -20 -20 -20 -20 -20 -20 -20 -7 -1 -8 -20 -20 -20 -20 -20 -20 -20 -20 -20 -20 -20 -20 -20 -20 -20 -20 -20 -20 -20 -20 -10 -3 23 -6 -20 -10
-20 -20 -20 -20 -20 -20 -20 -20 -20 -20 -20 -20 -20 -20 -20 -20 -20 -20 -20 -20 -20 -20 -20 -20 -20 -20 -20 -20 -20 -20 -20 -20 -20 -20 -20 -20 -20 -20 -18 24 27 -20 -20
-20 -20 -20 -20 -20 -20 -20 -20 -20 -20 -20 -20 -20 -20 -20 -20 -20 -20 -20 -20 -20 -20 -20 -20 -20 -20 -20 -20 -20 -20 -20 -20 -20 -20 -20 -20 -20 -20 -9 33 24 17 12
-20 -20 -20 -20 -20 -20 -20 -20 -20 -20 -20 -20 -20 -20 -20 -20 -20 -20 -20 -20 -20 -20 -20 -20 -20 -20 -20 -20 -20 -20 -20 -20 -20 -20 -20 -20 -20 -20 -20 -20 26 20 12
-20 -20 -20 -20 -20 -20 -20 -20 -20 -20 -20 -20 -20 -20 -20 -20 -20 -20 -20 -20 -20 -20 -20 -20 -20 -20 -20 -20 -20 -20 -20 -20 -20 -20 -20 -20 -20 -20 -20 -20 -20 -18 -8
-20 -20 -20 -20 -20 -20 -20 -20 -20 -20 -20 -20 -20 -20 -20 -20 -20 -20 -20 -20 -20 -20 -20 -20 -20 -20 -20 -20 -20 -20 -20 -20 -20 -20 -20 -20 -20 -20 -20 -20 -20 -20 21
-20 -20 -20 -20 -20 -20 -20 -20 -20 -20 -20 -20 -20 -20 -20 -20 -20 -20 -20 -20 -20 -20 -20 -20 -20 -20 -20 -20 -20 -20 -20 -20 -20 -20 -20 -20 -20 -20 -20 -20 -20 -20 -20
-20 -20 -20 -20 -20 -20 -20 -20 -20 -20 -20 -20 -20 -20 -20 -20 -20 -20 -20 -20 -20 -20 -20 -20 -20 -20 -20 -20 -20 -20 -20 -20 -20 -20 -20 -20 -20 -20 -20 -20 -20 -20 -20
-20 -20 -20 -20 -20 -20 -20 -20 -20 -20 -20 -20 -20 -20 -20 -20 -20 -20 -20 -20 -20 -20 -20 -20 -20 -20 -20 -20 -20 -20 -20 -20 -20 -20 -20 -20 -20 -20 -20 -20 -20 -20 -20
-20 -20 -20 -20 -20 -20 -20 -20 -20 -20 -20 -20 -20 -20 -20 -20 -20 -20 -20 -20 -20 -20 -20 -20 -20 -20 -20 -20 -20 -20 -20 -20 -20 -20 -20 -20 -20 -20 -20 -20 -20 -20 -20
-20 -20 -20 -20 -20 -20 -20 -20 -20 -20 -20 -20 -20 -20 -20 -20 -20 -20 -20 -20 -20 -20 -20 -20 -20 -20 -20 -20 -20 -20 -20 -20 -20 -20 -20 -20 -20 -20 -20 -20 -20 -20 -20
-20 -20 -20 -20 -20 -20 -20 -20 -20 -20 -20 -20 -20 -20 -20 -20 -20 -20 -20 -20 -20 -20 -20 -20 -20 -20 -20 -20 -20 -20 -20 -20 -20 -20 -20 -20 -20 -20 -20 -20 -20 -20 -20
-20 -20 -20 -20 -20 -20 -20 -20 -20 -20 -20 -20 -20 -20 -20 -20 -20 -20 -20 -20 -20 -20 -20 -20 -20 -20 -20 -20 -20 -20 -20 -20 -20 -20 -20 -20 -20 -20 -20 -20 -20 -20 -20
-20 -20 -20 -20 -20 -20 -20 -20 -20 -20 -20 -20 -20 -20 -20 -20 -20 -20 -20 -20 -20 -20 -20 -20 -20 -20 -20 -20 -20 -20 -20 -20 -20 -20 -20 -20 -20 -20 -20 -20 -20 -20 -20
-20 -20 -20 -20 -20 -20 -20 -20 -20 -20 -20 -20 -20 -20 -20 -20 -20 -20 -20 -20 -20 -20 -20 -20 -20 -20 -20 -20 -20 -20 -20 -20 -20 -20 -20 -20 -20 -20 -20 -20 -20 -20 -20
-20 -20 -20 -20 -20 -20 -20 -20 -20 -20 -20 -20 -20 -20 -20 -20 -20 -20 -20 -20 -20 -20 -20 -20 -20 -20 -20 -20 -20 -20 -20 -20 -20 -20 -20 -20 -20 -20 -20 -20 -20 -20 -20
-20 -20 -20 -20 -20 -20 -20 -20 -20 -20 -20 -20 -20 -20 -20 -20 -20 -20 -20 -20 -20 -20 -20 -20 -20 -20 -20 -20 -20 -20 -20 -20 -20 -20 -20 -20 -20 -20 -20 -20 -20 -20 -20
-20 -20 -20 -20 -20 -20 -20 -20 -20 -20 -20 -20 -20 -20 -20 -20 -20 -20 -20 -20 -20 -20 -20 -20 -20 -20 -20 -20 -20 -20 -20 -20 -20 -20 -20 -20 -20 -20 -20 -20 -20 -20 -20
-20 -20 -20 -20 -20 -20 -20 -20 -20 -20 -20 -20 -20 -20 -20 -20 -20 -20 -20 -20 -20 -20 -20 -20 -20 -20 -20 -20 -20 -20 -17 -20 -20 -20 -20 -20 -20 -20 -20 -20 -20 -20 -20

GFSSE_prec_radar_006.txt.gz
Reflectivity
-20 -20 -20 -20 -1 10 -20 -20 -20 -20 -20 -20 -20 -20 -3 -20 -20 -20 -20 -20 -20 -20 -20 -20 -20 -20 -20 -20 -20 -20 -20 -20 -20 -20 0 -20 -20 -20 -20 -20 -20 -20 -3
-20 -3 -20 -20 -20 -20 -20 -20 -20 -20 -20 12 -20 -20 -20 -20 -20 -20 -20 -20 -20 -20 -20 -20 -20 -20 -20 -20 -20 -20 -20 -20 -20 -20 -20 -20 -20 -20 -16 -15 -20 -20 -20
-20 -20 -20 -20 -20 -20 -20 -20 -20 -20 -20 -20 -20 -20 -20 -20 -20 -20 -20 -20 -20 -20 -20 -20 -20 -20 -12 -20 -20 -20 -20 -20 -20 -20 -20 -20 -20 -20 -20 -20 -20 10 -20
-20 -20 -20 -20 -20 -20 -20 -20 -20 -20 -20 -20 -20 -20 -20 -20 -20 -20 -20 -20 -20 -20 -20 -20 -20 -7 -20 -20 -20 -20 -20 -20 -20 -20 -20 -20 -8 20 4 -20 -20 -20 -20
-20 -20 -20 -20 -20 -20 -20 -20 -5 3 -20 -20 -20 -20 -20 -20 -20 -20 -20 -20 -20 -20 -20 -20 -20 -20 -20 -20 -20 -20 -20 -20 -20 -20 -20 -20 -20 -9 4 -7 -20 -20 -20
-20 -20 -0 -20 -20 -20 -20 -20 -20 -20 -20 -20 -20 -20 -20 -20 -20 -20 -20 -20 -20 -20 -20 -20 -20 -20 -20 -20 -20 -20 -20 -20 -20 -20 -20 -10 -20 13 -20 -4 10 -20 -20
-20 -20 -20 -20 -20 -20 -20 -20 -20 -20 -20 -20 -20 -20 -20 -20 -20 -20 -20 -20 -20 -20 -20 -20 -20 -20 -20 -20 -20 -20 -20 -20 -20 -20 -20 -20 -4 -20 -8 20 31 -9 -20
-20 -20 -20 -20 -20 -20 -20 -20 -20 -20 -20 -20 -20 -20 -20 -20 -20 -20 -20 -20 -20 -20 -20 -20 -20 -20 -20 -20 -20 -20 -20 -20 -20 -20 -20 -20 -18 -1 -11 8 28 8 -18
-20 -20 -20 -20 -20 -20 -20 -20 -20 -20 -20 -20 -20 -20 -20 -20 -20 -20 -20 -20 -20 -20 -20 -20 -20 -20 -20 -20 -20 -20 -20 -20 -20 -20 -16 -20 -13 -19 -20 -20 8 -5 -2
-20 -20 -20 -20 -20 -20 -20 -20 -20 -20 -20 -20 -20 -20 -20 -20 -20 -20 -20 -20 -20 -20 -20 -20 -20 -20 -20 -20 -20 -20 -20 -20 -20 -20 -20 -20 -20 -20 -20 -18 -20 22 28
-20 -20 -20 -20 -20 -20 -20 -20 -20 -20 -20 -17 -20 -20 -20 -20 -20 -20 -20 -20 -20 -20 -20 -20 -20 -20 -20 -20 -20 -20 -20 -20 -20 -20 -20 -20 -20 -20 -20 -20 -20 -8 25
-20 -20 -20 -20 -20 -20 -20 -20 -20 -20 -20 -20 -20 -20 -20 -20 -20 -20 -20 -20 -20 -20 -20 -20 -20 -20 -20 -20 -20 -20 -20 -20 -20 -20 -20 -20 -20 -20 -20 -20 -20 -20 -10
-20 -20 -20 -20 -20 -20 -20 -20 -20 -20 -20 -20 -20 -20 -20 -20 -20 -20 -20 -20 -20 -20 -20 -20 -20 -20 -20 -20 -20 -20 -20 -20 -20 -20 -20 -20 -20 -20 -20 -20 -20 -20 19
-20 -20 -20 -20 -20 -20 -20 -20 -20 -20 -20 -20 -20 -20 -20 -20 -20 -20 -20 -20 -20 -20 -20 -20 -20 -20 -20 -20 -20 -20 -20 -20 -20 -20 -20 -20 -20 -20 -20 -20 -20 -20 -20
-20 -20 -20 -20 -20 -20 -20 -20 -20 -20 -20 -20 -20 -20 -20 -20 -20 -20 -20 -20 -20 -20 -20 -20 -20 -20 -20 -20 -20 -20 -20 -20 -20 -20 -20 -20 -20 -20 -20 -20 -20 -20 -20
-20 -20 -20 -20 -20 -20 -20 -20 -20 -20 -20 -20 -20 -20 -20 -20 -20 -20 -20 -20 -20 -20 -20 -20 -20 -20 -20 -20 -20 -20 -20 -20 -20 -20 -20 -20 -20 -20 -20 -20 -20 -20 -20
-20 -20 -20 -20 -20 -20 -20 -20 -20 -20 -20 -20 -20 -20 -20 -20 -20 -20 -20 -20 -20 -20 -20 -20 -20 -20 -20 -20 -20 -20 -20 -20 -20 -20 -20 -20 -20 -20 -20 -20 -20 -20 -20
-20 -20 -20 -20 -20 -20 -20 -20 -20 -20 -20 -20 -20 -20 -20 -20 -20 -20 -20 -20 -20 -20 -20 -20 -20 -20 -20 -20 -20 -20 -20 -20 -20 -20 -20 -20 -20 -20 -20 -20 -20 -20 -20
-20 -20 -20 -20 -20 -20 -20 -20 -20 -20 -20 -20 -20 -20 -20 -20 -20 -20 -20 -20 -20 -20 -20 -20 -20 -20 -20 -20 -20 -20 -20 -20 -20 -20 -20 -20 -20 -20 -20 -20 -20 -20 -20
-20 -20 -20 -20 -20 -20 -20 -20 -20 -20 -20 -20 -20 -20 -20 -20 -20 -20 -20 -20 -20 -20 -20 -20 -20 -20 -20 -20 -20 -20 -20 -20 -20 -20 -20 -20 -20 -20 -20 -20 -20 -20 -20
-20 -20 -20 -20 -20 -20 -20 -20 -20 -20 -20 -20 -20 -20 -20 -20 -20 -20 -20 -20 -20 -20 -20 -20 -20 -20 -20 -20 -20 -20 -20 -20 -20 -20 -20 -20 -20 -20 -20 -20 -20 -20 -20
-20 -20 -20 -20 -20 -20 -20 -20 -20 -20 -20 -20 -20 -20 -20 -20 -20 -20 -20 -20 -20 -20 -20 -20 -20 -20 -20 -20 -20 -20 -20 -20 -20 -20 -20 -20 -20 -20 -20 -20 -20 -20 -20
-20 -20 -20 -20 -20 -20 -20 -20 -20 -20 -20 -20 -20 -20 -20 -20 -20 -20 -20 -20 -20 -20 -20 -20 -20 -20 -20 -20 -20 -20 -20 -20 -20 -20 -20 -20 -20 -20 -20 -20 -20 -20 -20
-20 -20 -20 -20 -20 -20 -20 -20 -20 -20 -20 -20 -20 -20 -20 -20 -20 -20 -20 -20 -20 -20 -20 -20 -20 -20 -20 -20 -20 -20 -5 -20 -20 -17 -1 -16 -20 -20 -20 -20 -20 -20 -20
-20 -20 -20 -20 -20 -20 -20 -20 -20 -20 -20 -20 -20 -20 -20 -20 -20 -20 -20 -20 -20 -20 -20 -20 -20 -20 -20 -20 -20 -20 -9 -12 -14 -20 -18 20 12 -20 -20 -20 -20 -20 -20
-20 -20 -20 -20 -20 -20 -20 -20 -20 -20 -13 -20 -20 -20 -20 -20 -20 -20 -20 -20 -20 -20 -20 -20 -20 -20 -20 -20 -20 -20 -20 -20 1 -9 -16 -10 22 22 -0 -20 -20 -20 -20

GFSSE_prec_radar_009.txt.gz
Reflectivity
-20 -20 -20 -20 -20 -20 -20 -20 -20 -20 -20 -20 -20 -20 -20 -20 -20 -20 -20 -20 -20 -20 -20 -20 -20 -20 -20 -20 -20 -20 -20 -20 -20 -20 -20 -20 -20 -20 -20 -20 -19 2 -20
-20 -20 -20 -20 -20 -20 -20 -20 -20 -20 -20 -18 -20 -20 6 -20 -20 -20 -20 -20 -20 -20 -20 -20 -20 -20 -20 -20 -20 -20 -20 -20 -20 -20 -20 -20 -19 -4 -20 -20 -20 28 -6
-20 -20 -20 -20 -20 -20 -20 -20 -20 -20 -20 -20 -20 -20 -20 -20 -20 -20 -20 -20 -20 -20 -20 -20 -20 -20 -20 -20 -20 -20 -20 -20 -20 -20 -20 -20 -20 35 8 -20 -20 -20 -20
-20 -18 -20 -20 -20 -20 -20 -20 -20 -20 -20 -20 -20 -20 -20 -20 -20 -20 -20 -20 -20 -20 -20 -20 -20 -20 -20 -20 -20 -20 -20 -20 -20 -20 -20 -20 -15 1 -1 -1 -20 -20 -20
-20 -20 -20 -20 -20 -20 -20 -20 -20 -19 -20 -20 -20 -20 -20 -20 -20 -20 -20 -20 -20 -20 -20 -20 -20 -20 -20 -20 -20 -20 -20 -20 -20 -20 -20 -20 21 26 -16 0 21 -14 -20
-20 -20 -20 -20 -20 -20 -20 -20 -20 -20 -20 -20 -20 -20 -20 -20 -20 -20 -20 -20 -20 -20 -20 -20 -20 -20 -20 -20 -20 -20 -20 -20 -20 -20 -20 1 9 9 -20 -20 2 20 -13
-20 -20 -20 -20 -20 -20 -20 -20 -20 -20 -20 -20 -20 -20 -20 -20 -20 -20 -20 -20 -20 -20 -20 -20 -20 -20 -20 -20 -20 -20 -20 -20 -20 -20 2 13 30 -13 -20 -20 -19 1 6
-20 -20 -20 -20 -20 -20 -20 -20 -20 -20 -20 -20 -20 -20 -20 -20 -20 -20 -20 -20 -20 -20 -20 -20 -20 -20 -20 -20 -20 -20 -20 -20 -20 -20 -18 -4 36 -17 -18 -4 -5 -2 3
-20 -20 -20 -20 -20 -20 -20 -20 -20 -20 -20 -20 -20 -20 -20 -20 -20 -20 -20 -20 -20 -20 -20 -20 -20 -20 -20 -20 -20 -20 -20 -20 -20 -16 -10 -11 -19 -13 -18 -18 -5 -2 3
-20 -20 -20 -20 -20 -20 -20 -20 -20 -20 -20 -20 -20 -20 -20 -20 -20 -20 -20 -20 -20 -20 -20 -20 -20 -20 -20 -20 -20 -20 -20 -20 -20 -20 -20 -11 -7 -20 -20 -20 5 4 6
-20 -20 -20 -20 -20 -20 -20 -18 -20 -20 -20 -20 -20 -20 -20 -20 -20 -20 -20 -20 -20 -20 -20 -20 -20 -20 -20 -20 -20 -20 -20 -20 -20 -20 -20 -20 -20 -20 -20 -20 -7 -13 -20
-20 -20 -20 -20 -20 -20 -20 -20 -20 -20 -20 -20 -20 -20 -20 -20 -20 -20 -20 -20 -20 -20 -20 -20 -20 -20 -20 -20 -20 -20 -20 -20 -20 -20 -20 -20 -20 -20 -20 -20 -20 -20 -20
-20 -20 -20 -20 -20 -20 -20 -20 -20 -20 -20 -20 -20 -20 -20 -20 -20 -20 -20 -20 -20 -20 -20 -20 -20 -20 -20 -20 -20 -20 -20 -20 -20 -20 -20 -20 -20 -20 -20 -20 -20 -20 -20
-20 -20 -20 -20 -20 -20 -20 -20 -20 -20 -20 -20 -20 -20 -20 -20 -20 -20 -20 -20 -20 -20 -20 -20 -20 -20 -20 -20 -20 -20 -20 -20 -20 -20 -20 -20 -20 -20 -20 -20 -20 -20 -20
-6 -20 -20 -20 -20 -20 -20 -20 -20 -20 -20 -20 -20 -20 -20 -20 -20 -20 -20 -20 -20 -20 -20 -20 -20 -20 -20 -20 -20 -20 -20 -20 -20 -20 -20 -20 -20 -20 -20 -20 -20 -20 -20
-20 -20 -20 -20 -20 -20 -20 -20 -20 -20 -20 -20 -20 -20 -20 -20 -20 -20 -20 -20 -20 -20 -20 -20 -20 -20 -20 -20 -20 -20 -20 -20 -20 -20 -20 -20 -20 -20 -20 -20 -20 -20 -20
-20 -20 -20 -20 -20 -20 -20 -20 -20 -20 -20 -20 -20 -20 -20 -20 -20 -20 -20 -20 -20 -20 -20 -20 -20 -20 -20 -20 -20 -20 -20 -20 -20 -20 -20 -20 -20 -20 -20 -20 -20 -20 -20
-20 -20 -20 -20 -20 -20 -20 -20 -20 -20 -20 -20 -20 -20 -20 -20 -20 -20 -20 -20 -20 -20 -20 -20 -20 -20 -20 -20 -20 -20 -20 -20 -20 -20 -20 -20 -20 -20 -20 -20 -20 -20 -20
-20 -20 -20 -20 -20 -20 -20 -20 -20 -20 -20 -20 -20 -20 -20 -20 -20 -20 -20 -20 -20 -20 -20 -20 -20 -20 -20 -20 -20 -20 -20 -20 -20 -20 -20 -20 -20 -20 -20 -20 -20 -20 -20
-20 -20 -20 -20 -20 -20 -20 -20 -20 -20 -20 -20 -20 -20 -20 -20 -20 -20 -20 -20 -20 -20 -20 -20 -20 -20 -20 -20 -20 -20 -20 -20 -20 -20 -20 -20 -20 -20 -20 -20 -20 -20 -20
-20 -20 -20 -20 -20 -20 -20 -20 -20 -20 -20 -20 -20 -20 -20 -20 -20 -20 -20 -20 -20 -20 -20 -20 -20 -20 -20 -20 -20 -20 -20 -20 -20 -20 -20 -20 -20 -20 -20 -20 -20 -20 -20
-20 -20 -20 -20 -20 -20 -20 -20 -20 -20 -20 -20 -20 -20 -20 -20 -20 -20 -20 -20 -20 -20 -20 -20 -20 -20 -20 -20 -20 -20 -20 -20 -20 -20 -20 -20 -20 -20 -20 -20 -20 -20 -20
-20 -20 -20 -20 -20 -20 -10 -20 -20 -20 -20 -20 -20 -20 -20 -20 -20 -20 -20 -20 -20 -20 -20 -20 -20 -20 -20 -20 -20 -20 -20 -20 -20 -20 -20 15 8 -6 -20 -20 -20 -20 -20
-20 -20 -20 -20 -20 -20 -20 -20 -20 -20 -20 -20 -20 -20 -20 -2 -17 -20 -20 -20 -20 -20 -20 -20 -20 -20 -20 -20 -20 -20 -20 5 -12 7 -20 -20 -4 -16 13 -8 -20 -20 -20
-20 -20 -20 -20 -20 -20 -20 -8 -3 -20 -20 2 18 -20 -4 -20 -20 -20 -20 -20 -20 -20 -20 -20 -20 -20 -20 -20 -20 -20 -20 -20 -20 -16 -7 -18 -17 25 6 10 28 -14 -20
-20 -20 -20 -20 -20 -14 4 -10 -20 -10 4 -0 -20 -20 -20 -20 -20 -20 -20 -20 -20 -20 -20 -20 -20 -10 -20 -5 -19 -20 -16 -20 -20 -10 -14 -20 -5 8 26 32 30 26 -11

GFSSE_prec_radar_012.txt.gz
Reflectivity
-20 -20 -20 -20 -20 -20 -20 -20 -20 -20 -20 -20 -20 -20 -20 -20 -20 -20 -20 -20 -20 -20 -20 -20 -20 -20 -20 -20 -20 -20 -20 -20 -20 -20 -20 -20 -17 -19 4 -14 -20 -20 -13
-20 -20 -20 -20 -20 -20 -20 -20 -20 -20 -20 -20 -20 -20 -20 -20 -20 -20 -20 -20 -20 -20 -20 -20 -20 -20 -20 -20 -20 -20 -20 -20 -20 -20 -20 -20 -20 -20 -20 -20 -20 -20 -20
-20 -20 -20 -20 -20 -20 -20 -20 -20 -20 -20 -20 -20 -20 -20 -20 -20 -20 -20 -20 -20 -20 -20 -20 -20 -20 -20 -20 -20 -20 -20 -20 -20 -20 -20 -20 -20 -19 -20 -20 -20 -20 -20
-20 -20 -20 -20 -20 -20 -20 -20 -20 -20 -20 -20 -20 -20 -20 -20 -20 -20 -20 -20 -20 -20 -20 -20 -20 -20 -20 -20 -20 -20 -20 -20 -20 -20 -20 -20 -20 -13 18 -17 -5 -20 -20
-20 -20 -20 -20 -20 -20 -11 -20 -4 -20 -20 -20 -20 -20 -20 -20 -20 -20 -20 -20 -20 -18 -20 -20 -20 -20 -20 -20 -20 -20 -20 -20 -20 -20 -20 -20 -4 29 8 33 -9 -4 -20
-20 -20 -20 -20 -20 -20 -20 -20 -20 -20 -20 -20 -20 -20 -20 -20 -20 -20 -20 -20 -20 -20 -20 -20 -20 -20 -20 -20 -20 -20 -20 -20 -20 -20 -20 25 30 -1 44 29 11 -18 -20
-20 -20 -20 -20 -20 -20 -20 -20 -20 -20 -20 -20 -20 -20 -20 -20 -20 -20 -20 -20 -20 -20 -20 -20 -20 -20 -20 -20 -20 -20 -20 -20 -20 -20 1 34 7 24 43 41 9 -20 -20
-20 -20 -20 -20 -20 -20 -20 -20 -20 -20 -20 -20 -20 -20 -20 -20 -20 -20 -20 -20 -20 -20 -20 -20 -20 -20 -20 -20 -20 -20 -20 -20 -20 -20 -6 -8 28 30 18 21 -6 -2 -20
-20 -20 -20 -20 -20 -20 -20 -20 -20 -20 -20 -20 -20 -20 -20 -20 -20 -20 -20 -20 -20 -20 -20 -20 -20 -20 -20 -20 -20 -20 -20 -20 -20 -20 -20 -20 15 6 9 -1 -12 -20 -20
-20 -20 -20 -20 -20 -20 -20 -20 -20 -20 -20 -20 -20 -20 -20 -20 -20 -20 -20 -20 -20 -20 -20 -20 -20 -20 -20 -20 -20 -20 -20 -20 -20 -20 -20 -20 -20 -20 -19 -20 -20 -20 -20
-20 -20 -20 -20 -20 -20 -20 -20 -20 -20 -20 -20 -20 -20 -20 -20 -20 -20 -20 -20 -20 -20 -20 -20 -20 -20 -20 -20 -20 -20 -20 -20 -20 -20 -20 -20 -20 -20 -20 -20 -20 -20 -20
-20 -20 -20 -20 -20 -20 -20 -20 -20 -20 -20 -20 -20 -20 -20 -20 -18 -20 -20 -20 -20 -20 -20 -20 -20 -20 -20 -20 -20 -20 -20 -20 -20 -20 -20 -20 -20 -20 -20 -20 -20 -20 -20
-20 -20 -20 -20 -20 -20 -20 -20 -20 -20 -20 -20 -20 -20 -20 -20 -20 -20 -20 -20 -20 -20 -20 -20 -20 -20 -20 -20 -20 -20 -20 -20 -20 -20 -20 -20 -20 -20 -20 -20 -20 -20 -20
-8 -20 -20 -20 -20 -20 -20 -20 -20 -20 -20 -20 -20 -20 -20 -20 -20 -20 -20 -20 -20 -20 -20 -20 -20 -20 -20 -20 -20 -20 -20 -20 -20 -20 -20 -20 -20 -20 -20 -20 -20 -20 -20
-4 -20 -20 -20 -20 -20 -20 -20 -20 -20 -20 -20 -20 -20 -20 -20 -20 -20 -20 -20 -20 -20 -20 -20 -20 -20 -20 -20 -20 -20 -20 -20 -20 -20 -20 -20 -20 -20 -20 -20 -20 -20 -20
-19 -20 -20 -20 -20 -20 -20 -20 -20 -20 -20 -20 -20 -20 -20 -20 -20 -20 -20 -20 -20 -20 -20 -20 -20 -20 -20 -20 -20 -20 -20 -20 -20 -20 -20 -20 -20 -20 -20 -20 -20 -20 -20
-20 -20 -10 6 -20 -20 -20 -20 -20 -20 -20 -20 -20 -20 -20 -20 -20 -20 -20 -20 -20 -20 -20 -20 -20 -20 -20 -20 -20 -20 -20 -20 -20 -20 -20 -20 -20 -20 -20 -20 -20 -20 -20
-20 -20 49 28 -20 -20 -20 -20 -20 -20 -20 -20 -20 -20 -20 -20 -20 -20 -20 -20 -20 -20 -20 -20 -20 -20 -20 -20 -20 -20 -20 -20 -20 -20 -20 -20 -20 -20 -20 -20 -20 -20 -20
-20 -20 -20 -19 -7 -20 -20 -20 -20 -20 -20 -20 -20 -20 -20 -20 -20 -20 -20 -20 -20 -20 -20 -20 -20 -20 -20 -20 -20 -20 -20 -20 -20 -20 -20 -20 -20 -20 -20 -20 -20 -20 -20
-20 -20 -20 7 20 -10 -20 -20 -20 -20 -20 -20 -20 -20 -20 -20 -20 -20 -20 -20 -20 -20 -20 -20 -20 -20 -20 -20 -20 -20 -20 -20 -20 -20 -20 -20 -20 -20 -20 -20 -20 -20 -20
-20 -20 -20 -20 2 19 -20 -20 -20 -20 -10 -20 -20 -20 -20 -20 -20 -20 -20 -20 -20 -20 -20 -20 -20 -20 -20 -20 -20 -20 -20 -20 -20 -20 -20 -20 -20 -20 -20 -20 -20 -20 -20
-20 -20 -20 -20 -20 -20 -20 -20 -20 -0 -20 -20 -20 -20 -20 -20 -20 -12 -19 -20 -20 -20 -20 -20 -20 -20 -20 -20 -20 -20 -20 -20 -20 -20 -20 -20 -20 -20 -20 -17 -19 -20 -20
-20 -20 -20 -20 -20 -20 -20 -20 -20 -20 -20 -20 -17 20 -19 -9 15 -4 -20 -20 -20 -20 -20 -20 -20 -20 -20 -20 -20 -20 -20 -20 -20 -20 -20 -20 -3 -18 20 32 35 8 -20
-20 -20 -20 -20 -20 -20 -20 -20 -20 -20 -20 -18 -17 -20 -20 -20 -20 -20 -20 -20 -20 -20 -20 -20 -20 -20 -20 -20 -20 -20 -20 -20 -20 -20 -20 -20 -20 -20 -11 14 8 33 18
-20 -20 -20 -20 -20 -20 -20 -20 -20 -20 -20 -20 -20 -20 -20 -20 -20 -20 -20 -20 -20 -20 -20 -20 -20 -20 -20 -20 -20 -20 -20 -20 -20 -20 -20 -20 -20 -20 -20 -15 29 15 42
-20 -20 -20 -20 -20 -20 -20 -20 -20 -20 -20 -20 -20 -20 -20 -20 -20 -20 -20 -20 -20 -20 -14 -20 -20 -20 -20 -20 -20 -20 -20 -13 13 -11 -20 -20 -20 -20 -20 -20 -4 21 35

GFSSE_prec_radar_015.txt.gz
Reflectivity
-20 -20 -20 -20 -20 -20 -20 -20 -20 -20 -20 -20 -20 -20 -20 -20 -20 -20 -20 -20 -20 -20 -20 -20 -20 -20 -20 -20 -20 -20 -20 -20 -20 -20 -20 -20 2 -12 18 23 5 12 -15
-20 -20 -20 -20 -20 -20 -20 -20 -20 -20 -20 -20 -20 -20 -20 -20 -20 -20 -20 -20 -20 -20 -20 -20 -20 -20 -20 -20 -20 -20 -20 -20 -20 -20 -20 -20 -20 -20 -11 -2 9 3 1
-20 -20 -20 -20 -20 -20 -20 -20 -20 -20 -20 -20 -20 -20 -20 -20 -20 -20 -20 -20 -20 -20 -20 -20 -20 -20 -20 -20 -20 -20 -20 -20 -20 -20 -20 -20 -20 -20 31 -18 -10 -9 -9
-20 -20 -20 -20 -20 -20 -20 -20 -20 -20 -20 -20 -20 -20 -13 -20 -20 -20 -20 -20 -20 -20 -20 -20 -20 -20 -20 -20 -20 -20 -20 -20 -20 -20 -20 -20 -20 -5 30 -0 30 -18 -18
-20 -20 -20 -20 -20 -20 -20 -20 -20 -20 -20 -20 -8 -20 -20 -20 -20 -20 -20 -20 -20 -20 -20 -20 -20 -20 -20 -20 -20 -20 -20 -20 -20 -20 -20 -20 -20 -20 9 26 6 -3 -12
-20 -20 -20 -20 -20 -20 -20 -20 -20 -20 -20 -20 -20 -20 -20 -20 -20 -20 -20 -20 -20 -20 -20 -20 -20 -20 -20 -20 -20 -20 -20 -20 -20 -20 -20 -20 -20 -20 -20 -20 -19 13 20
-20 -20 -20 -20 -20 -20 -20 -20 -20 -20 -20 -20 -20 -20 -20 -20 -20 -20 -20 -20 -20 -20 -20 -20 -20 -20 -20 -20 -20 -20 -20 -20 -20 -20 -20 -20 -20 -20 -20 -17 14 1 35
-20 -20 -20 -20 -20 -20 -20 -20 -20 -20 -20 -20 -20 -20 -20 -20 -20 -20 -20 -20 -20 -20 -20 -20 -20 -20 -20 -20 -20 -20 -20 -20 -20 -20 -20 -20 -20 -20 -13 -8 20 6 16
-20 -20 -20 -20 -20 -20 -20 -20 -20 -20 -20 -20 -20 -20 -20 -20 -20 -20 -20 -20 -20 -20 -20 -20 -20 -20 -20 -20 -20 -20 -20 -20 -20 -20 -20 -20 -20 -20 -20 -20 -12 22 14
-20 -20 -20 -20 -20 -20 -20 -20 -20 -20 -20 -20 -20 -20 -20 -20 -20 -20 -20 -20 -20 -20 -20 -20 -20 -20 -20 -20 -20 -20 -20 -20 -20 -20 -20 -20 -20 -20 -20 -20 -20 -20 -20
-20 -20 -20 -20 -20 -20 -20 -20 -20 -20 -20 -20 -20 -20 -20 -20 -20 -20 -20 -20 -20 -20 -20 -20 -20 -20 -20 -20 -20 -20 -20 -20 -20 -20 -20 -20 -20 -20 -20 -20 -20 -20 -20
-20 -20 -20 -20 -20 -20 -20 -20 -20 -20 -20 -20 -20 -20 -20 -20 -20 -20 -20 -20 -20 -20 -20 -20 -20 -20 -20 -20 -20 -20 -20 -20 -20 -20 -20 -20 -20 -20 -20 -20 -20 -20 -20
-20 -20 -20 -20 -20 -20 -20 -20 -20 -20 -20 -20 -20 -20 -20 -20 -20 -20 -20 -20 -20 -20 -20 -20 -20 -20 -20 -20 -20 -20 -20 -20 -20 -20 -20 -20 -20 -20 -20 -20 -20 -20 -20
-20 -20 -20 -20 -20 -20 -20 -20 -20 -20 -20 -20 -20 -20 -20 -20 -20 -20 -20 -20 -20 -20 -20 -20 -20 -20 -20 -20 -20 -20 -20 -20 -20 -20 -20 -20 -20 -20 -20 -20 -20 -20 -20
-20 -20 -20 -20 -20 -20 -20 -20 -20 -20 -20 -20 -20 -20 -20 -20 -20 -20 -20 -20 -20 -20 -20 -20 -20 -20 -20 -20 -20 -20 -20 -20 -20 -20 -20 -20 -20 -20 -20 -20 -20 -20 -20
-20 -20 9 -20 -6 -3 -16 -20 -20 -20 -20 -20 -20 -20 -20 -20 -20 -20 -20 -20 -20 -20 -20 -20 -20 -20 -20 -20 -20 -20 -20 -20 -20 -20 -20 -20 -20 -20 -20 -20 -20 -20 -20
-20 -20 -20 39 35 28 7 -20 -20 -20 -20 -20 -20 -20 -20 -20 -20 -20 -20 -20 -20 -20 -20 -20 -20 -20 -20 -20 -20 -20 -20 -20 -20 -20 -20 -20 -20 -20 -20 -20 -20 -20 -20
-20 -20 -5 24 1 18 19 16 -20 -20 -20 -20 -20 -20 -20 -20 -20 -20 -20 -20 -20 -20 -20 -20 -20 -20 -20 -20 -20 -20 -20 -20 -20 -20 -20 -20 -20 -20 -20 -20 -20 -20 -20
-20 -20 4 2 -11 5 6 -13 -20 -20 -20 -20 -20 -20 -20 -20 -20 -20 -20 -20 -20 -20 -20 -20 -20 -20 -20 -20 -20 -20 -20 -20 -20 -20 -20 -20 -20 -20 -20 -20 -20 -20 -20
-20 -20 -20 -20 -5 -20 -20 -20 -20 -20 -20 -20 -20 -20 -20 -20 -20 -20 -20 -20 -20 -20 -20 -20 -20 -20 -20 -20 -20 -20 -20 -20 -20 -20 -20 -20 -20 -20 -20 -20 -20 -20 -20
-20 8 -20 -20 -20 -20 -20 -20 -20 -20 -20 -20 -20 -20 -20 -20 -20 -20 -20 -20 -20 -20 -20 -20 -20 -20 -20 -20 -20 -20 -20 -20 -20 -20 -20 -20 -20 -20 -20 -20 -20 -20 -20
-20 -10 25 6 -20 -20 -20 -20 -20 -20 -20 -20 -20 -20 -20 -20 -20 -20 -20 -20 -20 -20 -20 -20 -20 -20 -20 -20 -20 -20 -20 -20 -20 -20 -20 -20 -20 -20 -20 -20 -20 23 -14
-11 -20 -20 -20 -20 -20 -20 -20 -20 -20 -20 -20 -20 -19 -11 -20 -20 -20 -20 -20 -20 -20 -20 -20 -20 -20 -20 -20 -20 -20 -20 -20 -20 -20 -20 -20 -20 -20 -20 -20 -20 -20 -20
-20 -20 -20 -20 -20 -20 -20 -20 -20 -20 -20 -20 -20 -20 -20 -20 -20 -20 -20 -20 -20 -20 -20 -20 -20 -20 -20 -20 -20 -20 -20 -20 -20 -20 -20 -20 -20 -20 -20 -20 -20 -20 7
-20 -20 -20 -20 -20 -20 -20 -20 -20 -20 -20 -20 -20 -20 -20 -20 -20 -20 -20 -20 -20 -20 -20 -20 -20 -20 -20 -20 -6 -14 -20 -20 -20 -20 -20 -20 -20 -20 -20 -20 -20 -20 -20
-20 -20 -20 -20 -20 -20 -20 -20 -20 -20 -20 -20 -20 -20 -20 -20 -20 -20 -20 -20 -20 -20 -20 -20 -20 -20 -20 -20 -17 -19 -20 0 11 22 -13 -20 -20 -20 -20 -20 -20 -20 -20

GFSSE_prec_radar_021.txt.gz
Reflectivity
-12 -20 -20 -20 -20 -20 -20 -20 -20 -20 -20 -20 -20 -20 -20 -20 -20 -20 -20 -20 -20 -20 -20 -20 -20 -20 -20 -20 -20 -20 -20 -20 -20 -20 -20 -20 -20 -20 -20 -20 -20 -20 4
-20 -20 -20 -20 -20 -20 -20 -20 -20 -20 -20 -20 -20 -20 -20 -20 -20 -20 -20 -20 -20 -20 -20 -20 -20 -20 -20 -20 -20 -20 -20 -20 -20 -20 -20 -20 -20 -20 -20 -20 -20 -20 1
-20 -20 -20 -20 -20 -20 -20 -12 3 -20 -20 -20 -20 -20 -20 -20 -20 -20 -20 -20 -20 -20 -20 -20 -20 -20 -20 -20 -20 -20 -20 -20 -20 -20 -20 -20 -20 -20 -20 -20 -20 -20 -20
-20 -20 -20 -20 -20 -20 -20 -20 -20 -20 -20 -20 -20 -20 -20 -20 -20 -20 -20 -20 -20 -20 -20 -20 -20 -20 -20 -20 -20 -20 -20 -20 -20 -20 -20 -20 -20 -20 -20 -20 -20 -20 -20
-20 -20 -20 -20 -20 -20 -20 -20 -20 -20 0 -20 -20 -20 -20 -20 -20 -20 -20 -20 -20 -20 -20 -20 -20 -20 -20 -20 -20 -20 -20 -20 -20 -20 -20 -20 -20 -20 -20 -20 -20 -20 -20
-20 -20 -20 -20 -20 -20 -20 -20 -20 -20 -20 -20 -20 -20 -20 -20 -20 -20 -20 -20 -20 -20 -20 -20 -20 -20 -20 -20 -20 -20 -20 -20 -20 -20 -20 -20 -20 -20 -20 -20 -20 -20 -20
-10 -20 -20 -20 -20 -20 -20 -20 -20 -20 -20 -20 -20 -20 -20 -20 -20 -20 -20 -20 -20 -20 -20 -20 -20 -20 -20 -20 -20 -20 -20 -20 -20 -20 -20 -20 -20 -20 -20 -20 -20 -20 -20
-20 -20 -20 -20 -20 -20 -20 -20 -20 -20 -20 -20 -20 -20 -20 -20 -20 -20 -20 -20 -20 -20 -20 -20 -20 -20 -20 -20 -20 -20 -20 -20 -20 -20 -20 -20 -20 -20 -20 -20 -20 -20 -20
-20 -20 -20 -20 -20 -20 -20 -20 -20 -20 -20 -20 -20 -20 -20 -20 -20 -20 -20 -20 -20 -20 -20 -20 -20 -20 -20 -20 -20 -20 -20 -20 -20 -20 -20 -20 -20 -20 -20 -20 -20 -20 -20
-20 -20 -20 -20 -20 -20 -20 -20 -20 -20 -20 -20 -20 -20 -20 -20 -20 -20 -20 -20 -20 -20 -20 -20 -20 -20 -20 -20 -20 -20 -20 -20 -20 -20 -20 -20 -20 -20 -20 -20 -20 -20 -20
-20 -20 -20 -20 -20 -20 -20 -20 -20 -20 -20 -20 -20 -20 -20 -20 -20 -20 -20 -20 -20 -20 -20 -20 -20 -20 -20 -20 -20 -20 -20 -20 -20 -20 -20 -20 -20 1 -20 -20 -20 -20 -20
-20 -20 -20 -20 -20 -20 -20 -20 -20 -20 -20 -20 -20 -20 -20 -20 -20 -20 -20 -20 -20 -20 -20 -20 -20 -20 -20 -20 -20 -20 -20 -20 -20 -20 -20 -20 -20 -20 -20 -20 -20 -20 -20
-20 -20 -20 -20 -20 -20 -20 -20 -20 -20 -20 -20 -20 -20 -20 -20 -20 -20 -20 -20 -20 -20 -20 -20 -20 -20 -20 -20 -20 -20 -20 -20 -20 -20 -20 -20 -20 -20 -20 -20 -20 -20 -20
-20 -20 -20 -20 -20 -20 -20 -20 -20 -20 -20 -20 -20 -20 -20 -20 -20 -20 -20 -20 -20 -20 -20 -20 -20 -20 -20 -20 -20 -20 -20 -20 -20 -20 -20 -20 -20 -20 -20 -20 -20 -20 -20
-20 -20 -20 -20 -20 -20 -20 -20 -20 -20 -20 -20 -20 -20 -20 -20 -20 -20 -20 -20 -20 -20 -20 -20 -20 -20 -20 -20 -20 -20 -20 -20 -20 -20 -20 -20 -20 -20 -20 -20 -20 -20 -20
-20 -20 -20 -20 -20 -20 -20 -20 -20 -20 -20 -20 -20 -20 -20 -20 -20 -20 -20 -20 -20 -20 -20 -20 -20 -20 -20 -20 -20 -20 -20 -20 -20 -20 -20 -20 -20 -20 -20 -20 -20 -20 -20
-20 -20 -20 -19 -2 -20 -20 -20 -20 -20 -20 -20 -20 -20 -20 -20 -20 -20 -20 -20 -20 -20 -20 -20 -20 -20 -20 -20 -20 -20 -20 -20 -20 -20 -20 -20 -20 -20 -20 -20 -20 -20 -20
-20 -14 30 25 23 25 10 6 -20 -20 -20 -20 -20 -20 -20 -20 -20 -20 -20 -20 -20 -20 -20 -20 -20 -20 -20 -20 -20 -20 -20 -20 -20 -20 -20 -20 -20 -20 -20 -20 -20 -20 -20
-20 22 29 27 22 38 24 25 -9 -20 -20 -20 -20 -20 -20 -20 -20 -20 -20 -20 -20 -20 -20 -20 -20 -20 -20 -20 -20 -20 -20 -20 -20 -20 -20 -20 -20 -20 -20 -20 -20 -20 -20
-20 14 29 29 29 28 17 7 -20 -20 -20 -20 -20 -20 -20 -20 -19 -7 -1 -20 -20 -20 -20 -20 -20 -20 -20 -20 -20 -20 -20 -20 -20 -20 -20 -20 -20 -20 -20 -20 -20 -20 -20
-20 29 29 28 11 -20 -17 -20 -20 -20 8 15 -7 1 -9 11 10 -16 -20 -20 -20 -20 -20 -20 -20 -20 -20 -20 -20 -20 -20 -20 -20 -20 -20 -20 -20 -20 -20 -20 -20 -20 -20
34 -10 -20 -20 -20 -20 -14 -15 2 -20 -20 -17 -8 -15 -18 -20 -20 -20 -20 -20 -20 -20 -20 -20 -20 -20 -20 -20 -20 -20 -20 -20 -20 -20 -20 -20 -20 -20 -20 -20 -20 -20 -20
-20 -20 -20 -20 -20 -20 -0 -20 -20 -20 -20 -20 -20 -20 -20 -20 -20 -20 -20 -20 -20 -20 -20 -20 -20 -20 -20 -20 -20 -20 -20 -20 -20 -20 -20 -20 -20 -20 -20 -20 -20 -20 -20
-20 -20 -20 -20 -20 -20 -20 -20 -20 -20 -20 -20 -20 -20 -20 -20 -20 -20 -20 -1 -15 -20 -20 -20 -20 -20 -20 -20 -20 -20 -20 -20 -20 -20 -20 -20 -20 -20 -20 -20 -20 -20 -20
-20 -20 -20 -20 -20 -20 -20 -20 -20 -20 -20 -20 -20 -20 -20 -20 -20 -20 -20 -20 -20 -20 -20 -20 -20 -20 -20 -20 -20 -20 -20 -20 -20 8 -19 -20 -20 -20 -20 -20 -20 -20 -20
-10 -20 -20 -20 -20 -20 -20 -20 -20 -20 -20 -20 -20 -20 -20 -20 -20 -20 -20 -20 -20 -20 -20 -20 -20 -20 -20 -20 -20 -20 -20 4 5 16 10 -20 -2 -3 -19 -20 -20 -20 -20

GFSSE_prec_radar_024.txt.gz
Reflectivity
-20 -20 -20 -20 -20 -20 -20 -20 -20 -20 -20 -20 -20 -20 -20 -20 -20 -20 -20 -20 -20 -20 -20 -20 -20 -20 -20 -20 -20 -20 -20 -20 -20 -20 -20 -20 -20 -20 -20 -20 -20 -20 -20
-20 1 -20 -20 -20 -20 -20 -20 -20 -20 -20 -20 -20 -20 -20 -20 -20 -20 -20 -20 -20 -20 -20 -20 -20 -20 -20 -20 -20 -20 -20 -20 -20 -20 -20 -20 -20 -20 -20 -20 -20 -20 -20
-20 -20 -20 -13 -20 -20 -20 -20 -20 -20 -20 -20 -20 -20 -20 -20 -20 -20 -20 -20 -20 -20 -20 -20 -20 -20 -20 -20 -20 -20 -20 -20 -20 -20 -20 -20 -20 -20 -20 -20 -20 -20 -20
-20 -20 -20 -11 -20 -20 -20 -20 -9 -20 -20 -20 -20 -20 -20 -20 -20 -20 -20 -20 -20 -20 -20 -20 -20 -20 -20 -20 -20 -20 -20 -20 -20 -20 -20 -20 -20 -20 -20 -20 -20 -20 -3
-20 -20 3 -20 -20 -20 -20 -17 -20 -20 -20 -20 -20 -20 -20 -20 -20 -20 -20 -20 -20 -20 -20 -20 -20 -20 -20 -20 -20 -20 -20 -20 -20 -20 -20 -20 -20 -20 -20 -20 -20 -20 -20
-20 -15 -20 -20 -20 -20 -20 -20 -20 -20 -20 -20 -20 -20 -20 -20 -20 -20 -20 -20 -20 -20 -20 -20 -20 -20 -20 -20 -20 -20 -20 -20 -20 -20 -20 -20 -20 -20 -20 -20 -20 -20 -19
-3 -20 -20 -20 -20 -20 -20 -20 -20 -20 -20 -20 -20 -20 -20 -20 -20 -20 -20 -20 -20 -20 -20 -20 -20 -20 -20 -20 -20 -20 -20 -20 -20 -20 -20 -20 -20 -20 -20 -20 -20 -20 -20
-19 -7 -20 -20 -20 -20 -20 -20 -20 -20 -20 -20 -20 -20 -20 -20 -20 -20 -20 -20 -20 -20 -20 -20 -20 -20 -20 -20 -20 -20 -20 -20 -20 -20 -20 -20 -20 -20 -20 2 -20 -20 -20
-20 -20 -20 -20 -20 -20 -20 -20 -20 -20 -20 -20 -20 -20 -20 -20 -20 -20 -20 -20 -20 -20 -20 -20 -20 -20 -20 -20 -20 -20 -20 -20 -20 -20 -20 -20 -20 -20 -20 -20 -20 -7 -20
-20 -20 -20 -20 -20 -20 -20 -20 -20 -20 -20 -20 -20 -20 -20 -20 -20 -20 -20 -20 -20 -20 -20 -20 -20 -20 -20 -20 -20 -20 -20 -20 -20 -20 -20 -20 -20 -20 -20 -20 -20 -20 -20
-20 -20 -20 -20 -20 -20 -20 -20 -20 -20 -20 -20 -20 -20 -20 -20 -20 -20 -20 -20 -20 -20 -20 -20 -20 -20 -20 -20 -20 -20 -20 -20 -20 -20 -20 -20 -20 -20 -20 -20 -20 -20 -20
-20 -20 -20 -20 -20 -20 -20 -20 -20 -20 -20 -20 -20 -20 -20 -20 -20 -20 -20 -20 -20 -20 -20 -20 -20 -20 -20 -20 -20 -20 -20 -20 -20 -20 -20 -20 -20 -20 -20 -20 -20 -20 -20
-20 -20 -20 -20 -20 -20 -20 -20 -20 -20 -20 -20 -20 -20 -20 -20 -20 -20 -20 -20 -20 -20 -20 -20 -20 -20 -20 -20 -20 -20 -20 -20 -20 -20 -20 -20 -20 -20 -20 -20 -20 -20 -20
-20 -20 -20 -20 -20 -20 -20 -20 -20 -20 -20 -20 -20 -20 -20 -20 -20 -20 -20 -20 -20 -20 -20 -20 -20 -20 -20 -20 -20 -20 -20 -20 -20 -20 -20 -20 -20 -20 -20 -20 -20 -20 -20
-20 -20 -20 -20 -20 -20 -20 -20 -20 -20 -20 -20 -20 -20 -20 -20 -20 -20 -20 -20 -20 -20 -20 -20 -20 -20 -20 -20 -20 -20 -20 -20 -20 -20 -20 -20 -20 -20 -20 -20 -20 -20 -20
-20 -20 -20 0 -20 -20 -20 -20 -20 -20 -20 -20 -20 -20 -20 -20 -20 -20 -20 -20 -20 -20 -20 -20 -20 -20 -20 -20 -20 -20 -20 -20 -20 -20 -20 -20 -20 -20 -20 -20 -20 -20 -20
-20 -20 -17 -10 -20 -20 -20 -10 27 31 9 -19 -20 -20 -20 -20 -20 -20 -20 -20 -20 -20 -20 -20 -20 -20 -20 -20 -20 -20 -20 -20 -20 -20 -20 -20 -20 -20 -20 -20 -20 -20 -20
-20 -20 -20 -19 -20 -20 -20 9 37 29 -20 -20 -20 -20 -20 -20 -20 -20 -20 -20 -20 -10 -9 -20 -20 -20 -20 -20 -20 -20 -20 -20 -20 -20 -20 -20 -20 -20 -20 -20 -20 -20 -20
-20 -20 -20 -20 -1 17 34 30 18 14 9 -11 -20 -20 -18 -20 -16 13 -20 8 -20 -20 -20 -20 -20 -20 -20 -20 -20 -20 -20 -20 -20 -20 -20 -20 -20 -20 -20 -20 -20 -20 -20
-20 -20 25 -20 16 43 32 10 0 -9 -20 -20 -20 14 -17 -16 14 -20 -19 -20 -20 -20 -20 -20 -20 -20 -20 -20 -20 -20 -20 -20 -20 -20 -20 -20 -20 -20 -20 -20 -20 -20 -20
-20 23 36 26 31 24 22 -12 -20 -20 -20 -5 -20 -20 -19 -20 -20 -20 -20 -20 -20 -20 -20 -20 -20 -20 -20 -20 -20 -20 -20 -20 -20 -20 -20 -20 -20 -20 -20 -20 -20 -20 -20
9 30 -9 6 -20 -20 -20 -20 -20 -20 -20 -20 -20 -20 -20 -20 -20 -20 -20 -20 -20 -20 -20 -20 -20 -20 -20 -20 -20 -20 -20 -20 -20 -20 -20 -20 -20 -20 -20 -20 -20 -20 -20
-20 -20 -20 -20 -20 -20 -20 -20 -20 -20 -20 -20 -20 -20 -20 -20 -20 -20 -20 -20 -20 -20 -20 -20 -20 -20 -20 -20 -20 -20 -20 -20 -20 -20 -20 -20 -20 -20 -20 -20 -20 -20 -20
-20 -20 -20 -20 -20 -20 -20 -20 -20 -20 -20 -20 -20 -20 -20 -20 -20 -20 -20 -20 -20 -20 -20 -20 -20 -20 -20 -20 -20 -20 -20 -17 2 -7 -20 -20 -20 -20 -20 -20 -20 -20 -20
-20 -20 -19 -20 -20 -20 -20 -20 -20 -20 -20 -20 -20 -20 -20 -20 -20 -20 -20 -20 -20 -20 -20 -20 -20 -20 -20 -20 -20 -20 -20 -20 -20 10 -9 -20 -20 -20 -20 -20 -20 -20 -20
-20 12 -8 -20 -20 -20 -20 -20 -20 -20 -20 -20 -20 -20 -20 -20 -20 -20 -20 -20 -20 -20 -20 -20 -20 -20 -20 -20 -20 -20 -20 -11 -12 2 6 -4 -9 16 -20 -10 -20 -20 -20

GFSSE_prec_radar_027.txt.gz
Reflectivity
-6 10 -20 -15 -20 -20 -20 -20 -20 -20 -20 -20 -20 -20 -20 -20 -20 -20 -20 -20 -20 -20 -20 -20 -20 -20 -20 -20 -20 -20 -20 -20 -20 -20 -20 -20 -20 -20 -20 -20 -20 -20 -20
-8 29 -20 21 -20 -20 -20 -20 -20 -20 -20 -20 -20 -20 -20 -20 -20 -20 -20 -20 -20 -20 -20 -20 -20 -20 -20 -20 -20 -20 -20 -20 -20 -20 -20 -20 -20 -20 -20 -20 -20 -20 -20
5 -4 -20 -20 -20 -20 -20 -20 -20 -20 -20 -20 -20 -20 -20 -20 -20 -20 -20 -20 -20 -20 -20 -20 -20 -20 -20 -20 -20 -20 -20 -20 -20 -20 -20 -20 -20 -20 -20 -20 -20 -20 -20
4 -17 -20 -20 -20 -20 -20 -20 -20 -20 -20 -20 -20 -20 -20 -20 -20 -20 -20 -20 -20 -20 -20 -20 -20 -20 -20 -20 -20 -20 -20 -20 -20 -20 -20 -20 -20 -20 -20 -20 -20 -20 -20
0 -20 -20 -20 -20 -12 -20 -20 -20 -20 -20 -20 -20 -20 -20 -20 -20 -20 -20 -20 -20 -20 -20 -20 -20 -20 -20 -20 -20 -20 -20 -20 -20 -20 -20 -20 -20 -20 4 -20 -20 -20 -20
-11 -20 -20 -20 -20 -20 -20 -20 -20 -20 -20 -20 -20 -20 -20 -20 -20 -20 -20 -20 -20 -20 -20 -20 -20 -20 -20 -20 -20 -20 -20 -20 -20 -20 -20 -20 -20 -20 -20 -20 -20 -20 -20
-3 1 -3 25 -20 -1 -20 -20 -20 -20 -20 -20 -20 -20 -20 -20 -20 -20 -20 -20 -20 -20 -20 -20 -20 -20 -20 -20 -20 -20 -20 -20 -20 -20 -20 -20 -20 -20 -20 -20 -20 -20 -20
-16 6 -20 -20 -20 -20 -20 -20 -20 -20 -20 -20 -20 -20 -20 -20 -20 -20 -20 -20 -20 -20 -20 -20 -20 -20 -20 -20 -20 -20 -20 -20 -20 -20 -20 -20 -20 -3 -20 -20 -20 -20 -20
24 -20 7 -7 -20 -20 -20 -20 -20 -20 -20 -20 -20 -20 -20 -20 -20 -20 -20 -20 -20 -20 -20 -20 -20 -20 -20 -20 -20 -20 -20 -20 -20 -20 -20 -20 -20 -20 -20 -20 -20 -20 -20
0 -15 -3 3 -20 -20 -20 -20 -20 -20 -20 -20 -20 -20 -20 -20 -20 -20 -20 -20 -20 -20 -20 -20 -20 -20 -20 -20 -20 -20 -20 -20 -20 -20 -20 -20 -20 -20 -20 -20 -20 -20 -20
-4 -20 -20 -20 -20 -20 -20 -20 -20 -20 -20 -20 -20 -20 -20 -20 -20 -20 -20 -20 -20 -20 -20 -20 -20 -20 -20 -20 -20 -20 -20 -20 -20 -20 -20 -20 -20 -20 -20 -20 -20 -20 -20
-20 -20 -20 -20 -20 -20 -20 -20 -20 -20 -20 -20 -20 -20 -20 -20 -20 -20 -20 -20 -20 -20 -20 -20 -20 -20 -20 -20 -20 -20 -20 -20 -20 -20 -20 -20 -20 -20 -20 -20 -20 -20 -20
-20 -20 -20 -20 -20 -20 -20 -20 -20 -20 -20 -20 -20 -20 -20 -20 -20 -20 -20 -20 -20 -20 -20 -20 -20 -20 -20 -20 -20 -20 -20 -20 -20 -20 -20 -20 -20 -20 -20 -20 -20 -20 -20
-20 -20 -20 -20 -20 -20 -20 -20 -20 -20 -20 -20 -20 -20 -20 -20 -20 -20 -20 -20 -20 -20 -20 -20 -20 -20 -20 -20 -20 -20 -20 -20 -20 -20 -20 -20 -20 -20 -20 -20 -20 -20 -20
-20 -20 -20 -20 -20 -20 -20 -20 -20 -20 -20 -20 -20 -20 -20 -20 -20 -20 -20 -20 -20 -20 -20 -20 -20 -20 -20 -20 -20 -20 -20 -20 -20 -20 -20 -20 -20 -20 -20 -20 -20 -20 -20
-20 -20 -20 -20 -20 -20 -20 -20 7 -11 12 -14 29 -11 -20 -20 -20 -20 -20 -20 -20 -20 -20 -20 -20 -20 -20 -20 -20 -20 -20 -20 -20 -20 -20 -20 -20 -20 -20 -20 -20 -20 -20
-19 -20 -20 -9 -17 -20 -20 21 6 -15 5 25 28 26 -7 -20 -20 -20 -20 -20 -20 -20 -20 -20 -20 -20 -20 -20 -20 -20 -20 -20 -20 -20 -20 -20 -20 -20 -20 -20 -20 -20 -20
-20 -20 -11 16 1 -19 18 20 32 29 21 28 18 16 -20 -20 -20 -20 -20 -18 -20 -20 -11 -20 -20 -20 -20 -20 -20 -20 -20 -20 -20 -20 -20 -20 -20 -20 -20 -20 -20 -20 -20
-12 -20 1 5 24 26 31 32 39 19 17 6 2 -9 -19 -13 -1 -20 -20 -15 -20 -20 -20 -20 -20 -20 -20 -20 -20 -20 -20 -20 -20 -20 -20 -20 -20 -20 -20 -20 -20 -20 -20
-12 -10 -20 23 24 36 37 12 10 17 4 -15 -14 -12 -11 -20 -20 -20 -20 -20 -20 -20 -20 -20 -20 -20 -20 -20 -20 -20 -20 -20 -20 -20 -20 -20 -20 -20 -20 -20 -20 -20 -20
-17 15 20 29 26 13 19 -10 -10 -20 -20 -20 -20 -20 -20 -20 -20 -20 -20 -20 -20 -20 -20 -20 -20 -20 -20 -20 -20 -20 -20 -20 -20 -20 -20 -20 -20 -20 -20 -20 -20 -20 -20
1 13 -20 -20 -20 -20 -20 -20 -20 -20 -20 -20 -20 -20 -20 -20 -20 -20 -20 -20 -20 -20 -20 -20 -20 -20 -20 -20 -20 -20 -20 -20 -20 -20 -20 -20 -20 -20 -20 -20 -20 -20 -20
-20 -20 -20 -20 -20 -20 -20 -20 -20 -20 -20 -20 -20 -20 -20 -20 -20 -20 -20 -20 -20 -20 -20 -20 -20 -20 -20 -20 -20 -20 -20 -20 -20 -20 -20 -20 -20 -20 -20 -20 -20 -20 -20
-20 -20 -20 -20 -20 -20 -20 -20 -20 -20 -20 -20 -20 -20 -20 -20 -20 -20 -20 -20 -20 -20 -20 -20 -20 -20 -20 -20 -20 -20 -20 -20 -20 -20 -20 -20 -20 -20 -20 -20 -20 -20 -4
-15 -20 -20 -20 -20 -20 -20 -20 -20 -20 -20 -20 -20 -20 -20 -20 -20 -20 -20 -20 -20 -20 -20 -20 -20 -20 -20 -20 -20 -20 -20 -20 -4 7 -9 -20 -20 -20 -19 -20 -3 -0 -10
-20 -20 -9 -5 -20 -20 -20 -20 -20 -20 -20 -20 -20 -20 -20 -20 -20 -20 -20 -20 -20 -20 -20 -20 -20 -20 -20 -20 -20 -20 -20 -20 -20 -8 -4 -20 -20 -20 -20 -20 -20 14 -0

GFSSE_prec_radar_030.txt.gz
Reflectivity
18 -20 -20 -20 -20 -20 -20 -20 -20 -20 -20 -20 -20 -20 -20 -20 -20 -20 -20 -20 -20 -20 -20 -20 -20 -20 -20 -20 -20 -20 -20 -20 -20 -20 -20 -20 -20 -20 -20 -20 -17 -17 -20
27 3 -15 -19 -15 -20 -20 -20 -20 -20 -20 -20 -20 -20 -20 -20 -20 -20 -20 -20 -20 -20 -20 -20 -20 -20 -20 -20 -20 -20 -20 -20 -20 -20 -20 -20 -17 -20 -20 -20 -20 -20 -20
8 2 2 -20 -20 -20 -20 -20 -20 -20 -20 -20 -20 -20 -20 -20 -20 -20 -20 -20 -20 -20 -20 -20 -20 -20 -20 -20 -20 -20 -20 -20 -20 -20 -20 -20 -20 -20 -20 -20 -20 -20 -20
0 28 -17 -20 -20 -20 -20 -20 -20 -20 -20 -20 -20 -20 -20 -20 -20 -20 -20 -20 -20 -20 -20 -20 -20 -20 -20 -20 -20 -20 -20 -20 -20 -20 -20 -20 -20 -20 -20 -20 -20 -20 -20
22 8 -20 -20 -20 27 -20 -20 -20 -20 -20 -20 -20 -20 -20 -20 -20 -20 -20 -20 -20 -20 -20 -20 -20 -20 -20 -20 -20 -20 -20 -20 -20 -20 -20 -20 -20 -20 -20 -20 -20 -20 -20
17 4 -17 -20 -20 -20 -20 -20 -20 -20 -20 -20 -20 -20 -20 -20 -20 -20 -20 -20 -20 -20 -20 -20 -20 -20 -20 -20 -20 -20 -20 -20 -20 -20 -20 -20 -20 -20 -20 -20 -20 -20 -20
36 8 -0 -20 -12 -7 -20 -20 -20 -20 -20 -20 -20 -20 -20 -20 -20 -20 -20 -20 -20 -20 -20 -20 -20 -20 -20 -20 -20 -20 -20 -20 -20 -20 -20 -20 -20 -20 -20 -20 -20 -20 -20
6 -4 1 -20 -20 -20 -2 -20 -20 -20 -20 -20 -20 -20 -20 -20 -20 -20 -20 -20 -20 -20 -20 -20 -20 -20 -20 -20 -20 -20 -20 -20 -20 -20 -20 -20 -20 -20 -20 -20 -20 -20 -20
9 -0 13 2 -8 -12 -20 -20 -20 -20 -20 -20 -20 -20 -20 -20 -20 -20 -20 -20 -20 -20 -20 -20 -20 -20 -20 -20 -20 -20 -20 -20 -20 -20 -20 -20 -20 -20 -20 -20 -20 -20 -20
6 9 6 -19 -20 -16 -20 -20 -20 -20 -20 -20 -20 -20 -20 -20 -20 -20 -20 -20 -20 -20 -20 -20 -20 -20 -20 -20 -20 -20 -20 -20 -20 -20 -20 -20 -20 -20 -20 -20 -20 -20 -20
9 -5 2 -7 -2 -20 -20 -20 -20 -20 -20 -20 -20 -20 -20 -20 -20 -20 -20 -20 -20 -20 -20 -20 -20 -20 -20 -20 -20 -20 -20 -20 -20 -20 -20 -20 -20 -20 -20 -20 -20 -20 -20
4 5 3 3 -20 -20 -20 -20 -20 -20 -20 -20 -20 -20 -20 -20 -20 -20 -20 -20 -20 -20 -20 -20 -20 -20 -20 -20 -20 -20 -20 -20 -20 -20 -20 -20 -20 -20 -20 -20 -20 -20 -20
-4 -19 -20 -20 -20 -20 -20 -20 -20 -20 -20 -20 -20 -20 -20 -20 -20 -20 -20 -20 -20 -20 -20 -20 -20 -20 -20 -20 -20 -20 -20 -20 -20 -20 -20 -20 -20 -20 -20 -20 -20 -20 -20
-20 -20 -20 -20 -20 -20 -20 -20 -20 -20 -14 6 -15 -20 -4 -11 -20 -20 -20 -20 -20 -20 -20 -20 -20 -20 -20 -20 -20 -20 -20 -20 -20 -20 -20 -20 -20 -20 -20 -20 -20 -20 -20
-20 -20 -20 -20 -20 -20 -20 -20 -20 -20 17 3 5 -20 -20 -19 -20 -20 -20 -20 -20 -20 -20 -20 -20 -20 -20 -20 -20 -20 -20 -20 -20 -20 -20 -20 -20 -20 -20 -20 -20 -20 -20
-20 -20 -20 -20 -20 -20 -20 -20 -20 -20 -20 -20 13 28 35 21 -19 -20 -20 -20 -20 -20 -20 -20 -20 -20 -20 -20 -20 -20 -20 -20 -20 -20 -20 -20 -20 -20 -20 -20 -20 -20 -20
-20 -20 -20 -20 -20 -20 -20 -20 -20 -20 6 5 23 29 15 -3 -20 -20 -20 -11 -12 -20 -20 -20 -20 -20 -20 -20 -20 -20 -20 -20 -20 -20 -20 -20 -20 -20 -20 -20 -20 -20 -20
-20 -20 -20 -20 -20 -14 12 -1 5 34 21 19 20 8 6 0 -0 -1 -20 -20 -20 -20 -20 -20 -20 -20 -20 -20 -20 -20 -20 -20 -20 -20 -20 -20 -20 -20 -20 -20 -20 -20 -20
-20 -20 -20 -20 4 29 24 22 31 18 14 17 13 9 2 -14 -18 -12 -18 -20 -20 -20 -20 -20 -20 -20 -20 -20 -20 -20 -20 -20 -20 -20 -20 -20 -20 -20 -20 -20 -20 -20 -20
-20 -20 -20 -20 24 13 14 30 22 14 7 -18 -13 -17 -20 -20 -20 -20 -20 -20 -20 -20 -20 -20 -20 -20 -20 -20 -20 -20 -20 -20 -20 -20 -20 -20 -20 -20 -20 -20 -20 -20 -20
-20 -9 -20 -17 26 -17 -20 -17 -7 -20 -20 -20 -20 -20 -20 -20 -20 -20 -20 -20 -20 -20 -20 -20 -20 -20 -20 -20 -20 -20 -20 -20 -20 -20 -20 -20 -20 -20 -20 -20 -20 -20 -20
-20 -18 -1 -16 -20 -20 -20 -20 -20 -20 -20 -20 -20 -20 -20 -20 -20 -20 -20 -20 -20 -20 -20 -20 -20 -20 -20 -20 -20 -20 -20 -20 -20 -20 -20 -20 -20 -20 -20 -20 -20 -20 -20
0 2 -1 -12 -20 -20 -20 -20 -20 -20 -20 -20 -20 -20 -20 -20 -20 -20 -20 -20 -20 -20 -20 -20 -20 -20 -20 -20 -20 -20 -20 -20 -20 -20 -20 -20 -20 -20 -20 -20 -20 -20 -20
-20 -20 -15 -20 -20 -20 -20 -20 -20 -20 -20 -20 -20 -20 -20 -20 -20 -20 -20 -20 -20 -20 -20 -20 -20 -20 -20 -20 -20 -20 -20 -20 -20 -10 -20 -20 -20 -20 -20 -20 -20 -20 -20
-20 -20 -20 -20 -20 -20 -20 -20 -20 -20 -20 -20 -20 -20 -20 -20 -20 -20 -20 -20 -20 -20 -20 -20 -20 -20 -20 -20 -20 -16 -20 -20 -20 -20 -20 -20 -20 -20 -20 -20 -20 -20 -1
-20 -20 -20 -20 -20 -20 -20 -20 -20 -20 -20 -20 -20 -20 -20 -20 -20 -20 -20 -20 -20 -20 -20 -20 -20 -20 -20 -20 -20 -20 -20 -20 -20 -20 -20 -20 -20 -20 -7 -0 -20 -20 -20

GFSSE_prec_radar_033.txt.gz
Reflectivity
-8 -20 -20 -20 -20 -20 -20 -20 -20 -20 -20 -20 -20 -20 -20 -20 -20 -20 -20 -20 -20 -20 -20 -20 -20 -20 -20 -20 -20 -20 -20 -20 -20 -20 -20 -20 -20 -20 -20 -20 -20 -17 -20
-20 -20 -20 -20 -20 -20 -20 -20 -20 -20 -20 -20 -20 -20 -20 -20 -20 -20 -20 -20 -20 -20 -20 -20 -20 -20 -20 -20 -20 -20 -20 -20 -20 -20 -20 -20 -20 -20 -20 -20 -20 -20 -20
-20 -20 -20 -20 11 -17 -20 -20 -20 -20 -20 -20 -20 -20 -20 -20 -20 -20 -20 -20 -20 -20 -20 -20 -20 -20 -20 -20 -20 -20 -20 -20 -20 -20 -20 31 -10 -20 -20 -20 -20 -20 -20
-10 -18 -11 2 -18 -20 -20 -20 -20 -20 -20 -20 -20 -20 -20 -20 -20 -20 -20 -20 -20 -20 -20 -20 -20 -20 -20 -20 -20 -20 -20 -20 -20 -20 -20 -20 -19 -20 -20 -20 -20 -20 -20
-3 12 21 5 -4 -20 -20 -20 -20 -20 -20 -20 -20 -20 -20 -20 -20 -20 -20 -20 -20 -20 -20 -20 -20 -20 -20 -20 -20 -20 -20 -20 -20 -20 -20 -20 -20 -20 -20 -20 -20 -20 -20
-5 10 22 -3 2 -20 -20 -20 -20 -20 -20 -20 -20 -20 -20 -20 -20 -20 -20 -20 -20 -20 -20 -20 -20 -20 -20 -20 -20 -20 -20 -20 -20 -20 -20 -20 -20 -20 -20 -20 -20 -20 -20
32 25 17 16 -5 -20 -20 -20 -20 -20 -20 -20 -20 -20 -20 -20 -20 -20 -20 -20 -20 -20 -20 -20 -20 -20 -20 -20 -20 -20 -20 -20 -20 -20 -20 -20 -20 -20 -20 -20 -20 -20 -20
32 41 21 11 -12 5 -20 -20 -20 -20 -20 -20 -20 -20 -20 -20 -20 -20 -20 -20 -20 -20 -20 -20 -20 -20 -20 -20 -20 -20 -20 -20 -20 -20 -20 -20 -20 -20 -20 -20 -20 -20 -20
41 38 16 11 14 14 -2 -12 -11 -20 -20 -20 -20 -20 -20 -20 -20 -20 -20 -20 -20 -20 -20 -20 -20 -20 -20 -20 -20 -20 -20 -20 -20 -20 -20 -20 -20 -20 -20 -20 -20 -20 -20
38 16 27 23 -15 -19 -1 3 -4 -20 -20 -20 -20 -20 -20 -20 -20 -20 -20 -20 -20 -20 -20 -20 -20 -20 -20 -20 -20 -20 -20 -20 -20 -20 -20 -20 -20 -20 -20 -20 -20 -20 -20
29 33 24 8 -10 -19 -20 -20 -20 -20 -20 -20 -20 -20 -20 -20 -20 -20 -20 -20 -20 -20 -20 -20 -20 -20 -20 -20 -20 -20 -20 -20 -20 -20 -20 -20 -20 -20 -20 -20 -20 -20 -20
10 4 -2 -13 -20 -20 -20 -20 -20 -20 -20 -20 -20 -20 -20 -20 -20 -20 -20 -20 -20 -20 -20 -20 -20 -20 -20 -20 -20 -20 -20 -20 -20 -20 -20 -20 -20 -20 -20 -20 -20 -20 -20
-6 -12 -18 -20 -20 -20 -20 -20 -20 -20 -20 -20 -20 -20 -20 -20 -20 -20 -20 -20 -20 -20 -20 -20 -20 -20 -20 -20 -20 -20 -20 -20 -20 -20 -20 -20 -20 -20 -20 -20 -20 -20 -20
-20 -20 -20 -20 -20 -20 -20 -20 -20 -19 -20 -20 -20 -18 -20 -20 -8 -20 -20 -20 -20 -20 -20 -20 -20 -20 -20 -20 -20 -20 -20 -20 -20 -20 -20 -20 -20 -20 -20 -20 -20 -20 -20
-20 -20 -20 -20 -20 -20 -20 -20 -20 -20 -12 1 -6 -20 -20 -20 -11 -6 -8 -20 -20 -20 -20 -20 -20 -20 -8 -15 -20 -20 -20 -20 -20 -20 -20 -20 -20 -20 -20 -20 -20 -20 -20
-20 -20 -20 -20 -20 -20 -20 -20 -2 -7 -8 -17 -20 -20 -20 22 8 -11 -20 -20 -20 -20 -18 -1 -20 -20 -20 -20 -20 -20 -20 -20 -20 -20 -20 -20 -20 -20 -20 -20 -20 -20 -20
-20 -20 -20 -20 -20 -20 7 -19 -20 -20 -11 13 12 -6 9 5 18 7 -3 -13 27 -10 -20 -20 -20 -20 -20 -20 -20 -20 -20 -20 -20 -20 -20 -20 -20 -20 -20 -20 -20 -20 -20
-20 -20 -20 -20 -20 -20 -18 -19 -12 15 29 3 6 9 12 5 1 -2 21 -1 -9 -14 -19 -20 -20 -20 -20 -20 -20 -20 -20 -20 -20 -20 -20 -20 -20 -20 -20 -20 -20 -20 -20
-20 -20 -20 -20 -20 13 21 3 32 28 18 16 9 -5 5 -14 -13 -19 -20 -20 -20 -20 -20 -20 -20 -20 -20 -20 -20 -20 -20 -20 -20 -20 -20 -20 -20 -20 -20 -20 -20 -20 -20
-20 -20 -20 -20 -20 24 3 -20 18 10 -14 -20 -20 -20 -20 -20 -20 -20 -20 -20 -20 -20 -20 -20 -20 -20 -20 -20 -20 -20 -20 -20 -20 -20 -20 -20 -20 -20 -20 -20 -20 -20 -20
-20 -20 -20 -15 -13 -20 -20 -20 -20 -20 -20 -20 -20 -20 -20 -20 -20 -20 -20 -20 -20 -20 -20 -20 -20 -20 -20 -20 -20 -20 -20 -20 -20 -20 -20 -20 -20 -20 -20 -20 -20 -20 -20
-20 -20 -20 -11 -13 -20 -20 -20 -20 -20 -20 -20 -20 -20 -20 -20 -20 -20 -20 -20 -20 -20 -20 -20 -20 -20 -20 -20 -20 -20 -20 -20 -20 -20 -20 -20 -20 -20 -20 -20 -20 -20 -20
-20 -20 31 23 -15 -13 -20 -20 -20 -20 -20 -20 -20 -20 -20 -20 -20 -20 -20 -20 -20 -20 -20 -20 -20 -20 -20 -20 -20 -20 -20 -20 -20 -20 -20 -20 -20 -20 -20 -20 -20 -20 -20
-20 -5 -18 -20 -20 -20 -20 -20 -20 -20 -20 -20 -20 -20 -20 -20 -20 -20 -20 -20 -20 -20 -20 -20 -20 -20 -20 -20 -20 -20 -20 -20 -20 -20 -20 -20 -20 -20 -20 -20 -20 -20 -20
-20 -20 -20 -20 -20 -20 -20 -20 -20 -20 -20 -20 -20 -20 -20 -20 -20 -20 -20 -20 -20 -20 -20 -20 -20 -20 -20 -20 -20 -20 -20 -20 -20 -20 -20 -20 -20 -20 -20 -20 -20 -20 -20
-20 -20 -20 -20 -20 -20 -20 -20 -20 -20 -20 -20 -20 -20 -20 -20 -20 -20 -20 -20 -20 -20 -20 -20 -20 -20 -20 -20 -19 -20 -20 -20 -19 -4 -10 -20 -20 -20 -20 -20 -20 -20 -20

GFSSE_prec_radar_036.txt.gz
Reflectivity
-20 -20 -20 -20 -20 -20 -20 -20 -20 -20 -20 -20 -20 -20 -20 -20 -20 -20 -20 -20 -20 -20 -20 -20 -20 -20 -20 -20 -20 -20 -20 -20 -20 -20 -10 -20 -3 -20 -20 -20 -20 -20 -13
18 -20 -20 -20 -20 -20 -20 -20 -20 -20 -20 -20 -20 -20 -20 -20 -20 -20 -20 -20 -20 -20 -20 -20 -20 -20 -20 -20 -20 -20 -20 -20 -20 -19 0 -20 -16 -20 -20 -20 -20 -20 -20
-19 -13 -17 -20 -20 -20 -20 -20 -20 -20 -20 -20 -20 -20 -20 -20 -20 -20 -20 -20 -20 -20 -20 -20 -20 -20 -20 -20 -20 -20 -20 -20 -20 2 -9 -4 -20 -20 -20 -20 -20 -20 -20
-20 -20 -20 -20 -20 -14 6 -20 -20 -20 -20 -20 -20 -20 -20 -20 -20 -20 -20 -20 -20 -20 -20 -20 -20 -20 -20 -20 -20 -20 -20 -20 -20 -10 -8 -14 -20 -20 -20 -20 -20 -20 -20
-20 -20 -20 -20 -16 11 -18 -14 -20 -20 -20 -20 -20 -20 -20 -20 -20 -20 -20 -20 -20 -20 -20 -20 -20 -20 -20 -20 -20 -20 -20 -20 -20 3 -20 -20 -20 -20 -20 -20 -20 -20 -20
-20 -20 -20 -20 12 19 -20 -1 -4 -20 -20 -20 -20 -20 -20 -20 -20 -20 -20 -20 -20 -20 -20 -20 -20 -20 -20 -20 -20 -20 -20 -20 -20 -20 -20 -20 -20 -20 -20 -20 -20 -20 -20
-7 3 -8 14 22 9 -5 -1 -9 -20 -20 -20 -20 -20 -20 -20 -20 -20 -20 -20 -20 -20 -20 -20 -20 -20 -20 -20 -20 -20 -20 -20 -20 -20 -20 -20 -20 -20 -20 -20 -20 -20 -20
32 34 34 33 29 6 -14 -4 -18 -20 -20 -20 -20 -20 -20 -20 -20 -20 -20 -20 -20 -20 -20 -20 -20 -20 -20 -20 -20 -20 -20 -20 -20 -20 -20 -20 -20 -20 -20 -20 -20 -20 -20
37 39 41 32 16 2 -18 -7 -3 -2 -20 -9 -7 -8 -20 -20 -20 -20 -20 -20 -20 -20 -20 -20 -20 -20 -20 -20 -20 -20 -20 -20 -20 -20 -20 -20 -20 -20 -20 -20 -20 -20 -20
38 40 41 23 -1 -4 10 9 8 5 9 9 -3 -20 -20 -20 -20 -20 -20 -20 -20 -20 -20 -20 -20 -20 -20 -20 -20 -20 -20 -20 -20 -20 -20 -20 -20 -20 -20 -20 -20 -20 -20
36 40 37 23 7 -12 -7 -4 -17 -16 -7 -20 -20 -20 -20 -20 -20 -20 -20 -20 -20 -20 -20 -20 -20 -20 -20 -20 -20 -20 -20 -20 -20 -20 -20 -20 -20 -20 -20 -20 -20 -20 -20
43 32 34 11 -7 -8 -10 -12 -15 -12 -14 -20 -20 -20 -20 1 -17 -20 -20 -20 -20 -20 -20 -20 -20 -20 -20 -20 -20 -20 -20 -20 -20 -20 -20 -20 -20 -20 -20 -20 -20 -20 -20
34 35 21 10 5 0 -5 -20 -20 -20 -20 -20 -20 -20 -19 -20 -20 -20 -20 -20 -20 -20 -20 -20 -20 -20 -20 -20 -20 -20 -20 -20 -20 -20 -20 -20 -20 -20 -20 -20 -20 -20 -20
16 13 10 7 -4 -19 -20 -20 -20 -20 -20 -20 -20 -20 -20 -20 -20 -20 -20 -20 -20 -20 -20 -20 -20 -20 -20 -20 -20 -20 -20 -20 -20 -20 -20 -20 -20 -20 -20 -20 -20 -20 -20
0 -9 -13 -19 -20 -20 -20 -20 -20 -1 -20 -20 -20 -20 -20 -20 -20 -20 -20 -20 -20 -20 -20 -20 -20 -20 -20 -20 -20 -20 -20 -20 -20 -20 -20 -20 -20 -20 -20 -20 -20 -20 -20
-20 -20 -20 -20 -20 -20 -20 -20 -20 -20 -20 -20 -20 10 -15 -20 -20 -19 -17 -1 -17 -0 -20 -20 -17 -20 -20 -20 -20 -20 -20 -20 -20 -20 -20 -20 -20 -20 -20 -20 -20 -20 -20
-20 -20 -20 -20 -20 9 -20 -20 -20 -20 -16 -2 -20 -20 -20 -20 -20 -20 -20 -20 -20 -20 -20 -20 -20 -20 -20 -20 -20 -20 -20 -20 -20 -20 -20 -20 -20 -20 -20 -20 -20 -20 -20
-20 -20 -20 -20 5 -12 -20 -20 -20 19 -11 -11 -2 5 8 -20 -20 -20 -20 -20 -20 -20 -20 -20 -20 -20 -20 -20 -20 -20 -20 -20 -20 -20 -20 -20 -20 -20 -20 -20 -20 -20 -20
-20 -20 -20 -18 6 -10 -1 -20 -20 -20 -20 -20 -20 -20 -20 -20 -20 -20 -20 -20 -20 -20 -20 -20 -20 -20 -20 -20 -20 -20 -20 -20 -20 -20 -20 -20 -20 -20 -20 -20 -20 -20 -20
-20 -20 -20 0 -3 13 -20 8 -20 -20 -20 -20 -20 -20 -20 -20 -20 -20 -20 -20 -20 -20 -20 -20 -20 -20 -20 -20 -20 -20 -20 -20 -20 -20 -20 -20 -20 -20 -20 -20 -20 -20 -20
-20 -20 -20 -20 31 -20 -17 -8 -20 -20 -20 -20 -20 -20 -20 -20 -20 -20 -20 -20 -20 -20 -20 -20 -20 -20 -20 -20 -20 -20 -20 -20 -20 -20 -20 -20 -20 -20 -20 -20 -20 -20 -20
-20 -20 -20 -20 4 -20 -20 -20 -20 -20 -20 -20 -20 -20 -20 -20 -20 -20 -20 -20 -20 -20 -20 -20 -20 -20 -20 -20 -20 -20 -20 -20 -20 -20 -20 -20 -20 -20 -20 -20 -20 -20 -20
-20 -20 -20 3 -20 -20 9 -20 -20 -20 -20 -20 -20 -20 -20 -20 -20 -20 -20 -20 -20 -20 -20 -20 -20 -20 -20 -20 -20 -20 -20 -20 -20 -20 -20 -20 -20 -20 -20 -20 -20 -20 -20
-20 -20 -20 -20 -20 -20 7 -20 -20 -20 -20 -20 -20 -20 -20 -20 -20 -20 -20 -20 -20 -20 -20 -20 -20 -20 -20 -20 -20 -20 -20 -20 -20 -20 -20 -20 -20 -20 -20 -20 -20 -20 -20
-18 -20 -20 -20 -6 -10 -20 -20 -20 -20 -20 -20 -20 -20 -20 -20 -20 -20 -20 -20 -20 -20 -20 -20 -20 -20 -20 -20 -20 -20 -20 -20 -20 -20 -20 -20 -20 -20 -20 -20 -20 -20 -20
-20 -20 -20 4 -13 -20 -20 -20 -20 -20 -20 -20 -20 -20 -20 -20 -19 -20 -20 -20 -20 -20 -20 -20 -20 -20 -20 -20 -20 -20 -20 -20 -20 -20 -20 -20 -20 -20 -20 -20 -20 -20 -20

GFSSE_prec_radar_042.txt.gz
Reflectivity
7 8 -20 -20 -20 -20 -7 -16 -20 -20 -20 -20 -20 -20 -20 -20 -20 -20 -20 -20 -20 -20 -20 -20 -20 -20 -20 -20 -20 -20 -20 -20 -20 -20 25 -20 -20 -20 -20 -20 -20 -20 -20
5 2 -20 -20 -20 -20 3 -20 -20 -20 -20 -20 -20 -20 -20 -20 -20 -20 -20 -20 -20 -20 -20 -20 -20 -20 -20 -20 -20 -20 -20 -20 -20 -20 -20 -20 -20 -20 -20 -20 -20 -20 -20
14 13 -20 -20 -20 -20 -14 -20 -16 -20 -20 -20 -20 -20 -20 -20 -20 -20 -20 -20 -20 -20 -20 -20 -20 -20 -20 -20 -20 -20 -20 -20 15 -20 -20 -20 -20 -20 -20 -20 -20 -20 -20
8 6 3 -20 -9 -20 -13 -20 -20 -20 -20 -20 -20 -20 -20 -20 -20 -20 -20 -20 -20 -20 -20 -20 -20 -20 -20 -20 -20 -20 -20 -20 -20 -20 -20 -20 -20 -20 -20 -20 -20 -20 -20
-1 -13 19 -3 -20 -20 -15 -20 -20 -20 -20 -20 -20 -20 -20 -20 -20 -20 -20 -20 -20 -20 -20 -20 -20 -20 -20 -20 -20 -20 -20 -20 -20 -20 -20 -20 -20 -20 -20 -20 -20 -20 -20
-6 5 8 20 -20 -4 -18 -1 -17 -20 -20 -20 -20 -20 -20 -20 -20 -20 -20 -20 -20 -20 -20 -20 -20 -20 -20 -20 -20 -20 -20 -20 -20 -20 -20 -20 -20 -20 -20 -20 -20 -20 -20
8 -3 31 31 16 -15 11 11 -5 7 -9 -20 -20 -12 -17 -20 -20 -20 -20 -18 -20 -20 -20 -20 -20 -20 -20 -20 -20 -20 -20 -20 -20 -20 -20 -20 -20 -20 -20 -20 -20 -20 -20
-1 31 33 40 29 12 -10 -8 6 2 -12 -6 -11 -20 -20 -20 -18 -19 -19 -20 -20 -20 -20 -20 -20 -20 -20 -20 -20 -20 -20 -20 -20 -20 -20 -20 -20 -20 -20 -20 -20 -17 -13
34 36 43 33 30 8 19 12 14 -10 -20 -12 -20 -20 -20 -20 -20 -20 -17 -19 -20 -20 -20 -20 -15 -20 -20 -20 -20 -20 -20 -20 -20 -20 -20 -20 -20 -20 -20 -20 -20 -19 -1
33 42 36 25 26 34 26 18 2 -4 3 -14 -13 -19 -20 -20 -20 -20 -20 -20 -20 -12 -14 -20 -20 -20 -20 -20 -20 -20 -20 -20 -20 -20 -20 -20 -20 -20 -20 -20 -20 -20 -20
39 37 31 39 35 28 17 12 11 9 8 3 -20 -20 -20 -20 -20 -20 -20 -17 -20 -20 -20 -20 -20 -20 -20 -20 -20 -20 -20 -20 -20 -20 -20 -20 -20 -20 -20 -20 -20 -20 -20
36 33 37 33 27 18 15 10 9 -0 -15 -19 -13 -7 -20 -20 -20 -20 -20 -20 -20 -20 -20 -20 -20 -20 -20 -20 -20 -20 -20 -20 -20 -20 -20 -20 -20 -20 -20 -20 -20 -20 -20
39 30 29 26 16 11 3 1 -5 -20 -20 -20 -20 -20 -8 -20 -19 -20 -20 -20 -20 -20 -20 -20 -20 -20 -20 -20 -20 -20 -20 -20 -20 -20 -20 -20 -20 -20 -20 -20 -20 -20 -20
16 30 19 12 9 7 -4 -20 -19 -19 -8 5 7 0 -20 -20 -20 -20 -20 -20 -20 -20 -20 -20 -20 -20 -20 -20 -20 -20 -20 -20 -20 -20 -20 -20 -20 -20 -20 -20 -20 -20 -20
16 11 18 11 5 -0 -16 -20 -18 -11 -17 -20 -20 -20 -20 -20 -20 -20 -20 -20 -20 -20 -20 -20 -20 -20 -20 -20 -20 -20 -20 -20 -20 -20 -20 -20 -20 -20 -20 -20 -20 -20 -20
10 -0 13 10 8 8 8 5 -2 -15 -18 -17 -20 -20 -20 -20 -20 -20 -20 -20 -20 -20 -20 -20 -20 -20 -20 -20 -20 -20 -20 -20 -20 -20 -20 -20 -20 -20 -20 -20 -20 -20 -20
1 11 6 2 -2 -4 -1 -8 -20 -20 -20 -20 -20 -20 -20 -20 -20 -20 -20 -20 -20 -20 -20 -20 -20 -20 -20 -20 -20 -20 -20 -20 -20 -20 -20 -20 -20 -20 -20 -20 -20 -20 -20
2 6 2 -2 -14 -20 -20 -20 -20 18 -20 -20 -20 -20 -20 -20 -20 -20 -20 -20 -20 -20 -20 -20 -20 -20 -20 -20 -20 -20 -20 -20 -20 -20 -20 -20 -20 -20 -20 -20 -20 -20 -20
-20 -20 -20 -20 -20 -20 -20 -20 -20 -20 -20 -20 -20 -20 -20 -20 -20 -20 -20 -20 -20 -20 -20 -20 -20 -20 -20 -20 -20 -20 -20 -20 -20 -20 -20 -20 -20 -20 -20 -20 -20 -20 -20
-20 -20 -20 -20 -20 -20 -20 -20 -20 -20 -20 -20 -20 -20 -20 -20 -20 -20 -20 -20 -20 -20 -20 -20 -20 -20 -20 -20 -20 -20 -20 -20 -20 -20 -20 -20 -20 -20 -20 -20 -20 -20 -20
-20 -20 -20 -20 -20 -20 -20 -20 -20 -20 -20 -20 -20 -20 -20 -20 -20 -20 -20 -20 -20 -20 -20 -20 -20 -20 -20 -20 -20 -20 -20 -20 -20 -20 -20 -20 -20 -20 -20 -20 -20 -20 -20
-20 -20 -20 -20 -20 -20 -20 -20 -20 -20 -20 -20 -20 -20 -20 -20 -20 -20 -20 -20 -20 -20 -20 -20 -20 -20 -20 -20 -20 -20 -20 -20 -20 -20 -20 -20 -20 -20 -20 -20 -20 -20 -20
-20 -20 -20 -20 -20 -20 -20 -20 -20 -20 -20 -20 -20 -20 -20 -20 -20 -20 -20 -20 -20 -20 -20 -20 -20 -20 -20 -20 -20 -20 -20 -20 -20 -20 -20 -20 -20 -20 -20 -20 -20 -20 -20
-20 -20 -20 -20 -20 -20 -20 -20 -20 -20 -20 -20 -20 -20 -20 -20 -20 -20 -20 -20 -20 -20 -20 -20 -20 -20 -20 -20 -20 -20 -20 -20 -20 -20 -20 -20 -20 -20 -20 -20 -20 -20 -20
-20 -20 -20 -20 6 -20 -17 -20 -20 -20 -20 -20 -20 -20 -20 -20 -20 -20 -20 -20 -20 -20 -20 -20 -5 -17 -20 -20 -20 -20 -20 -20 -20 -20 -20 -20 -20 -20 -20 -20 -20 -20 -20
11 -13 -20 -20 -10 17 -9 -20 -1 -20 -20 -20 -20 -20 -20 -20 -20 -20 -20 -20 1 -20 -19 -20 -20 -20 -20 -20 -20 -20 -20 -20 -20 -20 -20 -20 -20 -20 -20 -20 -20 -20 -20

GFSSE_prec_radar_045.txt.gz
Reflectivity
10 8 -11 -20 -20 -20 -20 -20 -20 -20 -20 -20 -20 -20 -20 -20 -20 -20 -20 -20 -20 -20 -20 -20 -20 -20 -20 -20 -20 5 -9 -20 -20 -20 -20 -20 -14 -20 -13 -9 -10 -13 -20
-1 8 2 0 -20 -20 -20 -20 -20 -3 -20 -20 -20 -20 -20 -20 -20 -20 -20 -20 -20 -20 -20 -20 -20 -20 -20 -20 -20 -20 -20 -20 -20 -20 -20 -20 -20 -20 -20 -20 -20 6 -20
-5 11 8 -20 -20 -20 -20 -20 -20 -20 -20 -20 -20 -20 -20 -20 -20 -20 -20 -20 -20 -20 -20 -20 -20 -20 -20 -20 -20 -20 -20 -20 -20 -20 -20 -20 -20 -20 -20 -20 -20 -20 -20
14 11 4 2 -3 -20 -20 -20 -18 -20 -20 -20 -20 -20 -20 -20 -20 -20 -20 -20 -20 -20 -20 -20 -20 -20 -20 -20 -20 -20 -20 -20 -20 -20 -20 -20 -20 -20 -20 -20 -20 -20 -20
16 10 7 7 2 -19 -20 -20 -20 -20 -20 -20 -20 -20 -20 -20 -20 -20 -20 -20 -20 -20 -20 -20 -20 -20 -20 -20 -20 -20 -20 -20 -20 -20 -20 -20 -20 -20 -20 -20 -20 -20 -20
9 -8 -19 -19 -20 -20 -11 1 3 -9 -20 -10 -5 -20 -20 -20 -20 -20 -20 -20 -20 -20 -20 -20 -20 -20 -20 -20 -20 -20 -20 -20 -20 -20 -20 -20 -20 -20 -20 -20 -20 -20 -20
14 10 18 27 -8 20 -9 -10 -2 4 12 -20 -3 -20 -20 -20 -20 -20 -20 -20 -20 -20 -20 -20 -20 -20 -20 -20 -20 -20 -20 -20 -20 -20 -20 -20 -20 -20 -20 -6 -0 -15 -4
35 29 16 36 33 32 29 8 5 12 0 14 -0 -20 -20 -20 -20 -20 -20 -20 -20 -20 -20 -20 -20 -20 -20 -20 -20 -20 -20 -20 -20 -20 -20 -20 -20 -20 -20 -20 -20 -20 -20
27 34 33 20 26 32 28 15 -4 7 16 15 -2 -2 -16 -20 -20 -20 -20 -20 -20 -20 -20 -20 -20 -20 -20 -20 -20 -20 -20 -20 -20 -20 -20 -20 -20 -20 -20 -20 -20 -20 -20
42 32 42 37 31 16 29 16 13 22 12 2 -3 -20 -20 -20 -20 -20 -20 -20 -20 -20 -20 -20 -20 -20 -20 -20 -20 -20 -20 -20 -20 -20 -20 -20 -20 -20 -20 -20 -20 -20 -20
22 37 32 36 33 29 29 15 18 18 18 2 -19 -20 -20 -20 -20 -20 -20 -20 -20 -20 -20 -20 -20 -20 -20 -20 -20 -20 -20 -20 -20 -20 -20 -20 -20 -20 -20 -20 -20 -20 -20
0 32 37 22 34 35 28 16 13 9 -10 -20 -14 -11 -5 -2 -20 -20 -19 -20 -13 -17 -20 -20 -20 -20 -20 -20 -20 -20 -20 -20 -20 -20 -20 -20 -20 -20 -20 -20 -20 -20 -20
31 33 37 33 26 25 16 9 10 8 -2 -3 2 -17 -12 -15 -20 -20 -18 -20 -20 -20 -20 -20 -20 -20 -20 -20 -20 -20 -20 -20 -20 -20 -20 -20 -20 -20 -20 -20 -20 -20 -20
32 30 28 25 22 24 16 13 9 5 -12 1 -6 -7 -20 -20 -19 -20 -20 -20 -20 -20 -20 -20 -20 -20 -20 -20 -20 -20 -20 -20 -20 -20 -20 -20 -20 -20 -20 -20 -20 -20 -20
10 0 9 25 19 14 8 12 1 1 -5 -20 -20 -10 -13 -13 -12 -20 -20 -20 -20 -20 -20 -20 -20 -20 -20 -20 -20 -20 -20 -20 -20 -20 -20 -20 -20 -20 -20 -20 -20 -20 -20
-20 -19 8 7 7 9 11 10 -11 -16 -20 -14 -20 -20 -20 -20 -20 -20 -20 -20 -20 -20 -20 -20 -20 -20 -20 -20 -20 -20 -20 -20 -20 -20 -20 -20 -20 -20 -20 -20 -20 -20 -20
-20 -10 7 2 -11 -20 -20 -20 -16 -14 -20 -20 -20 -20 -20 -20 -20 -20 -20 -20 -20 -20 -20 -20 -20 -20 -20 -20 -20 -20 -20 -20 -20 -20 -20 -20 -20 -20 -20 -20 -20 -20 -20
-15 -6 -16 -7 -6 -7 -6 -20 -20 -20 -20 -20 -20 -20 -20 -20 -20 -20 -20 -20 -20 -20 -20 -20 -20 -20 -20 -20 -20 -20 -20 -20 -20 -20 -20 -20 -20 -20 -20 -20 -20 -20 -20
-20 -20 -17 -18 -20 -20 -20 -20 -20 -20 4 -8 -20 -20 -20 -20 -20 -20 -20 -20 -20 -20 -20 -20 -20 -20 -20 -20 -20 -20 -20 -20 -20 -20 -20 -20 -20 -20 -20 -20 -20 -20 -20
-20 -20 -20 -20 -20 -20 -20 -20 -20 -20 -20 -20 -20 -20 -20 -20 -20 -20 -20 -20 -20 -20 -20 -20 -20 -20 -20 -20 -20 -20 -20 -20 -20 -20 -20 -20 -20 -20 -20 -20 -20 -20 -20
-20 -20 -20 -20 -20 -20 -20 -20 -20 -20 -20 -20 -20 -20 -20 -20 -20 -20 -20 -20 -20 -20 -20 -20 -20 -20 -20 -20 -20 -20 -20 -20 -20 -20 -20 -20 -20 -20 -20 -20 -20 -20 -20
-20 -20 -20 -20 -20 -20 -20 20 -20 -20 -20 -20 -20 -20 -20 -20 -20 -20 -20 -20 -20 -20 -20 -20 -20 -20 -20 -20 -20 -20 -20 -20 -20 -20 -20 -20 -20 -20 -20 -20 -20 -20 -20
-20 -20 -20 -20 -20 -20 -20 -20 -20 0 -20 -20 -20 -20 -20 -20 -20 -20 -20 -20 -20 -20 -20 -20 -20 -20 -20 -20 -20 -20 -20 -20 -20 -20 -20 -20 -20 -20 -20 -20 -20 -20 -20
-20 -20 -20 -20 -20 -20 -20 -20 -20 -20 16 4 -20 -20 -20 -20 -20 -20 -20 -20 -20 -20 -20 -20 -20 -20 -20 -20 -20 -20 -20 -20 -20 -20 -20 -20 -20 -20 -20 -20 -20 -20 -20
-20 -20 -20 14 -20 -20 -20 -20 27 -18 22 -20 -20 -20 -20 -20 -20 -20 -20 -20 -20 -20 -20 -15 -14 -20 -20 -20 -20 -20 -20 -20 -20 -20 -20 -20 -20 -20 -20 -20 -20 -20 -20
-20 12 -20 -7 -3 -20 -20 -20 -0 20 -2 -10 -20 -20 -20 -20 -20 -20 -20 -20 -20 -20 -11 8 -20 -20 -17 -15 -20 -20 -20 -20 -20 -20 -20 -20 -20 -20 -20 -20 -20 -20 -20

GFSSE_prec_radar_048.txt.gz
Reflectivity
-9 9 -20 -2 4 -2 -16 -20 -20 -20 -20 -20 -20 -20 -20 -20 -20 -20 -20 -20 -20 -20 -20 -20 -20 -20 -20 -20 -20 -20 -20 -20 -20 -20 -20 -20 -20 -20 -20 -20 -20 -20 -20
9 -12 -20 8 4 -20 -20 -20 -20 -20 -20 -20 -20 -20 -20 -20 -20 -20 -20 -20 -20 -20 -20 -20 -20 -20 -20 -20 -20 -20 -20 -20 -20 -20 -20 -20 -20 -20 -20 -20 -20 -20 -19
6 10 9 6 1 -20 -20 -20 -20 -20 -20 -20 -20 -20 -20 -20 -20 -20 -20 -20 -20 -20 -20 -20 -20 -20 -20 -20 -20 -20 -20 -20 -20 -20 -20 -20 -20 -20 -20 -20 -20 -20 -20
8 12 7 8 0 -20 -20 -20 -20 -20 -19 -15 -20 -20 -20 -20 -20 -20 -20 -20 -20 -20 -20 -20 -20 -20 -20 -20 -20 -20 -20 -20 -20 -20 -20 -20 -20 -20 -20 -20 -20 -20 -20
8 4 -14 4 -14 -20 -20 -12 -19 -20 -20 -20 -20 -20 -20 -20 -20 -20 -20 -20 -20 -20 -20 -20 -20 -20 -20 -20 -20 -20 -20 -20 -20 -20 -20 -20 -20 -20 -20 -20 -20 -15 -20
-1 21 10 28 26 -18 -20 2 -8 -20 13 -20 -20 -20 -20 -20 -20 -20 -20 -20 -20 -20 -20 -20 -20 -20 -20 -20 -20 -20 -20 -20 -20 -20 -20 -20 -20 -20 -20 -8 -20 -8 -7
24 -1 19 28 27 17 -20 -9 -20 -2 0 -11 -20 -20 -20 -20 -20 -20 -20 -20 -20 -20 -20 -20 -20 -20 -20 -20 -20 -20 -20 -20 -20 -20 -20 -20 -20 -20 -20 -20 -20 -20 -20
24 34 29 19 22 25 25 -2 -1 5 -5 -7 -7 -13 -10 -20 -20 -20 -20 -20 -20 -20 -20 -20 -20 -20 -20 -20 -20 -20 -20 -20 -20 -20 -20 -20 -20 -20 -20 -20 -20 -20 -20
30 40 42 36 28 27 19 -7 17 2 -20 1 3 5 -8 -19 -20 -20 -20 -20 -20 -20 -20 -20 -20 -20 -20 -20 -20 -20 -20 -20 -20 -20 -20 -20 -20 -20 -20 -20 -20 -20 -20
18 33 26 33 28 30 21 12 -20 -17 15 4 2 -0 -6 -16 -17 -20 -20 -20 -20 -20 -20 -20 -20 -20 -20 -20 -20 -20 -20 -20 -20 -20 -20 -20 -20 -20 -20 -20 -20 -20 -20
29 42 48 44 38 26 27 19 12 23 15 10 2 7 8 -4 -20 -20 -20 -20 -20 -20 -20 -20 -20 -20 -20 -20 -20 -20 -20 -20 -20 -20 -20 -20 -20 -20 -20 -20 -20 -20 -20
3 10 21 16 16 30 30 30 22 30 21 11 7 -7 -20 -20 -20 -20 -20 -15 -15 -20 -20 -20 -20 -20 -20 -20 -20 -20 -20 -20 -20 -20 -20 -20 -20 -20 -20 -20 -20 -20 -20
-20 -9 23 26 31 29 32 25 10 4 8 2 -17 -18 -20 -20 -15 -5 -8 -20 -20 -20 -20 -20 -20 -20 -20 -20 -20 -20 -20 -20 -20 -20 -20 -20 -20 -20 -20 -20 -20 -20 -20
22 24 17 29 31 30 21 19 10 -0 2 1 -14 -20 -6 3 -4 -20 -13 -18 -20 -20 -20 -20 -20 -20 -20 -20 -20 -20 -20 -20 -20 -20 -20 -20 -20 -20 -20 -20 -20 -20 -20
8 5 17 8 26 25 19 10 -4 -1 -5 -9 -11 -14 -16 1 -11 -13 -20 -20 -20 -20 -20 -20 -20 -20 -20 -20 -20 -20 -20 -20 -20 -20 -20 -20 -20 -20 -15 -20 -20 -20 -20
-5 9 -2 -8 -20 -11 0 8 8 12 8 3 11 -2 -3 -16 -20 -20 -20 -20 -20 -20 -20 -20 -20 -20 -20 -20 -20 -20 -20 -20 -20 -20 -20 -20 -20 -20 -20 -20 -20 -20 -20
-20 -20 -20 -7 -3 -12 2 4 6 -19 -9 1 4 31 -12 -20 -20 -20 -20 -20 -20 -20 -20 -20 -20 -20 -20 -20 -20 -20 -20 -20 -20 -20 -20 -20 -20 -20 -20 -20 -20 -20 -20
-4 -9 -5 -5 -19 -20 -20 -20 -0 -2 -18 -20 -6 -20 -18 -20 26 -20 -20 -20 -20 -20 -20 -20 -20 -20 -20 -20 -20 -20 -20 -20 -20 -20 -20 -20 -20 -20 -20 -20 -20 -20 -20
-20 -20 -20 -20 -20 -20 -20 -20 -20 -20 -20 -20 -20 -20 -1 -20 -20 -20 -20 -20 -20 -20 -20 -20 -20 -20 -20 -20 -20 -20 -20 -20 -20 -20 -20 -20 -20 -20 -20 -20 -20 -20 -20
-20 -20 -20 -20 -20 -20 -20 -20 -20 -20 -20 31 -20 -20 -20 -20 -20 -20 -20 -20 -20 -20 -20 -20 -20 -20 -20 -20 -20 -20 -20 -20 -20 -20 -20 -20 -20 -20 -20 -20 -20 -20 -20
-20 -20 -20 -20 -20 -20 -20 -20 -20 -20 -20 -0 13 -20 -20 -20 -20 -20 -20 -20 -20 -20 -20 -20 -20 -20 -20 -20 -20 -20 -20 -20 -20 -20 -20 -20 -20 -20 -20 -20 -20 -20 -20
-20 -20 -20 -20 -20 -20 -20 -20 -20 -20 -20 29 -8 -20 -20 -20 -20 -20 -20 -20 -20 -20 -20 -20 -20 -20 -20 -20 -20 -20 -20 -20 -20 -20 -20 -20 -20 -20 -20 -20 -20 -20 -20
-20 -20 -20 -20 -20 -20 -20 -20 -20 -20 -20 -20 -12 -20 -20 -20 -20 -20 -20 -20 -20 -20 -20 -20 -20 -20 -20 -20 -20 -20 -20 -20 -20 -20 -20 -20 -20 -20 -20 -20 -20 -20 -20
-20 -20 -20 -20 -20 -20 -20 -20 -20 -20 -20 25 20 -20 -20 -20 -20 -20 -20 -20 -20 -20 -20 -20 -20 -20 -20 -20 -20 -20 -20 -20 -20 -20 -20 -20 -20 -20 -20 -20 -20 -20 -20
-20 -20 -20 -20 -20 -20 -18 -20 -20 -20 28 -17 -8 -20 -20 -20 -20 -20 -20 -20 -20 -20 -20 -20 -13 -12 7 24 -20 -20 -20 -20 -20 -20 -20 -20 -20 -20 -20 -20 -20 -20 -20
-20 -20 -20 -20 -20 -20 -14 -20 -20 23 24 22 17 15 4 -20 -20 -20 -20 -20 -20 -20 -20 -11 -20 30 -20 -20 -20 -20 -20 -20 -20 -20 -20 -20 -20 -20 -20 -20 -20 -20 -20

GFSSE_prec_radar_051.txt.gz
Reflectivity
8 14 -20 -20 -20 -20 -20 -20 -20 -20 -20 -20 -20 -20 -20 -20 -20 -20 -20 -20 -20 -20 -20 -20 -20 -20 -20 -20 -20 -20 -20 -20 -20 -20 -20 -20 -20 -20 -20 -20 -20 -8 2
9 13 -20 -6 -20 -20 -20 -20 -20 -20 -20 -20 -20 -20 -20 -20 -20 -20 -20 -20 -20 -20 -20 -20 -20 -20 -20 -20 -20 -20 -20 -20 -20 -20 -20 -20 -20 -20 -20 -20 -20 -20 -20
10 10 -20 7 2 -20 -20 -20 -20 -20 -20 -20 -20 -20 -20 -20 -20 -20 -20 -20 -20 -20 -20 -20 -20 -20 -20 -20 -20 -20 -20 -20 -20 -20 -20 -20 -20 -20 -20 -20 -20 -20 -20
12 13 3 12 2 -20 -20 -20 -20 -20 -20 -20 -20 -20 -20 -20 -20 -20 -20 -20 -20 -20 -20 -20 -20 -20 -20 -20 -20 -20 -20 -20 -20 -20 -20 -20 -20 -20 -20 -20 -20 -20 -20
17 9 5 2 4 -20 -20 -20 -20 -20 -20 -20 -20 -20 -20 -20 -20 -20 -20 -20 -20 -20 -20 -20 -20 -20 -20 -20 -20 -20 -20 -20 -20 -20 -20 -20 -20 0 2 -0 -0 -2 -12
14 14 -19 -2 -20 -8 -20 -20 -20 -20 -20 -20 -20 -20 -20 -20 -20 -20 -20 -20 -20 -20 -20 -20 -20 -20 -20 -20 -20 -20 -20 -20 -20 -20 -20 -20 -20 -2 -13 -1 8 12 1
31 8 20 21 27 14 -18 -11 -20 -20 -20 -20 -20 -20 -20 -20 -20 -20 -20 -20 -20 -20 -20 -20 -20 -20 -20 -20 -20 -20 -20 -20 -20 -20 -20 -20 -20 -20 -20 -20 -20 -20 -20
36 34 31 22 23 7 14 23 -2 -20 -20 -20 -20 -20 -20 -20 -20 -20 -20 -20 -20 -20 -20 -20 -20 -20 -20 -20 -20 -20 -20 -20 -20 -20 -20 -20 -20 -20 -20 -20 -20 -20 -20
21 35 28 25 24 27 25 29 20 4 -9 -16 -16 -20 -20 -14 -20 -20 -20 -20 -20 -20 -20 -20 -20 -20 -20 -20 -20 -20 -20 -20 -20 -20 -20 -20 -20 -20 -20 -20 -20 -20 -20
30 12 34 27 41 37 35 17 13 -4 -6 1 0 0 4 5 -16 -20 -20 -20 -20 -20 -20 -20 -20 -20 -20 -20 -20 -20 -20 -20 -20 -20 -20 -20 -20 -20 -20 -20 -20 -20 -20
-10 20 16 30 13 22 39 16 15 10 6 16 10 -6 2 3 -7 -20 -20 -20 -20 -20 -20 -20 -20 -20 -20 -20 -20 -20 -20 -20 -20 -20 -20 -20 -20 -20 -18 -20 -20 -20 -20
-5 27 22 26 34 34 26 38 25 13 30 13 6 3 18 14 2 -20 -20 -20 -20 -20 -20 -20 -20 -20 -20 -20 -20 -20 -20 -20 -20 -20 -20 -20 -20 -20 -17 -20 -20 -20 -20
8 7 24 35 31 26 33 18 29 36 14 6 6 7 2 1 -18 -20 -20 -20 -20 -20 -20 -20 -20 -20 -20 -20 -20 -20 -20 -20 -20 -20 -20 -20 -20 -20 -20 -20 -20 -20 -20
8 24 25 17 16 25 27 36 26 24 10 -10 4 -9 5 -10 -20 -20 -20 -20 -20 -20 -20 -20 -20 -20 -20 -20 -20 -20 -20 -20 -20 -20 -20 -20 -20 -20 -20 -20 -20 -20 -20
22 23 17 19 24 20 25 25 13 13 14 14 -18 -20 -20 -20 -20 -14 -19 -20 -20 -20 -20 -20 -20 -20 -20 -20 -20 -20 -20 -20 -20 -20 -20 -20 -20 -20 -20 -20 -20 -20 -20
-20 -10 -1 13 15 3 4 11 6 -0 -17 -20 -20 -20 -20 -2 -10 -19 -20 -20 -20 -20 -20 -20 -20 -20 -20 -20 -20 -20 -20 -20 -20 -20 -20 -20 -20 -20 -20 -20 -20 -20 -20
-20 -20 -9 -11 -20 -20 -19 -14 -19 -20 -20 -18 2 10 5 -2 -8 -15 -20 -20 -20 -20 -20 -20 -20 -20 -20 -20 -20 -20 -20 -20 -20 -20 -20 -20 -20 -20 -20 -20 -20 -20 -20
-20 -20 -20 -20 -20 -20 -20 -20 -20 -11 -7 -8 5 -6 9 -20 -18 -20 -20 -16 -20 -18 -19 -20 -20 -20 -20 -20 -20 -20 -20 -20 -20 -20 -20 -20 -20 -20 -20 -20 -20 -20 -20
-4 -18 -20 -17 -20 -20 -20 -20 -20 -20 -20 -20 -20 29 -13 5 1 -20 -20 -20 -20 -20 -20 -20 -20 -20 -20 -20 -20 -20 -20 -20 -20 -20 -20 -20 -20 -20 -20 -20 -20 -20 -20
-20 -20 -20 -20 -20 -20 -20 -20 -20 -20 -20 -20 -20 -8 -20 -20 -20 21 -20 -20 -20 -20 -20 -20 -20 -20 -20 -20 -20 -20 -20 -20 -20 -20 -20 -20 -20 -20 -20 -20 -20 -20 -20
-20 -20 -20 -20 -20 -20 -20 -20 -20 -20 -20 -17 -20 29 28 -20 -20 -20 -20 -20 -20 -20 -20 -20 -20 -20 -20 -20 -20 -20 -20 -20 -20 -20 -20 -20 -20 -20 -20 -20 -20 -20 -20
-20 -20 -20 -20 -20 -20 -20 -20 -20 -20 -20 -20 29 17 25 -20 -20 -20 -20 -20 -20 -20 -20 -20 -20 -20 -20 -20 -20 -20 -20 -20 -20 -20 -20 -20 -20 -20 -20 -20 -20 -20 -20
-20 -20 -20 -20 -20 -20 -20 -20 -20 -20 -20 -9 30 27 22 -9 -20 -20 -20 -20 -20 -20 -20 -20 -20 -20 -20 -20 -20 -20 -20 -20 -20 -20 -20 -20 -20 -20 -20 -20 -20 -20 -20
-20 -20 -20 -20 -20 -20 -20 -20 -20 -20 -20 28 26 21 11 -20 -20 -20 3 -20 -20 -20 -20 -20 -20 -20 -20 -18 -20 -18 -20 -20 -20 -20 -20 -20 -20 -20 -20 -20 -20 -20 -20
-20 -20 -20 -20 -20 -20 -20 -20 -20 -20 -20 2 22 24 19 -20 -20 -8 -20 -20 -20 -20 -20 -20 -20 -2 1 14 -4 -20 -20 -20 -20 -20 -20 -20 -20 -20 -20 -20 -20 -20 -20
-20 -20 -20 -20 -20 -20 -17 -17 -20 -7 -20 -20 -12 21 21 15 -14 -20 -20 -20 -20 -20 -20 -14 18 27 -13 10 -20 -20 -20 -20 -20 -20 -20 -20 -20 -20 -20 -20 -20 -20 -20

GFSSE_prec_radar_057.txt.gz
Reflectivity
-17 -20 -20 11 -10 8 -18 5 -0 -20 -20 -20 -20 -20 -20 -20 -20 -20 -20 -14 -3 -20 -18 -20 -20 -20 -20 -20 -20 -20 -20 -20 -20 -20 -20 -20 -20 -20 -20 -20 -20 -1 3
-20 -20 -1 13 13 8 -20 -19 -20 -20 -20 -20 -20 -20 -20 -20 -20 -20 -20 -18 -14 -20 -20 -20 -20 -20 -20 -20 -20 -20 -20 -20 -20 -20 -20 -20 -20 -20 -20 -20 -20 -20 -20
-20 -20 2 12 2 -15 -20 -20 -20 -20 -20 -20 -20 -20 -20 -20 -20 -20 -20 -20 -19 -2 -20 -20 -20 -20 -20 -20 -20 -20 -20 -20 -20 -20 -20 -20 -20 -18 2 -13 4 -17 -20
-20 -20 2 -0 8 -5 -10 -20 -20 -20 -20 -20 -20 -20 -20 -20 -20 -20 -20 -5 0 -20 -20 -20 -20 -20 -20 -20 -20 -20 -20 -20 -20 -20 -20 -20 -20 5 11 -2 -20 9 8
3 -15 8 -8 -14 -6 -15 -20 -20 -20 -20 -20 -20 -20 -20 -14 -20 -20 -20 -9 12 -20 -20 -20 -20 -20 -20 -20 -20 -20 -20 -20 -20 -20 -20 -20 -20 -20 -20 -20 -20 -20 -5
32 13 -19 -19 -12 -20 -20 -20 -20 -20 -20 -20 -20 -20 -20 -20 -20 -20 -20 1 -11 -20 -20 -20 -20 -20 -20 -20 -20 -20 -20 -20 -20 -20 -20 -20 -20 -20 -20 -20 -20 -20 -20
35 18 17 30 20 -1 -16 -11 -20 -20 -20 -20 -20 -20 -20 -20 -20 -20 -20 -8 -20 -20 -20 -20 -20 -20 -20 -20 -20 -20 -20 -20 -20 -20 -20 -20 -20 -20 -20 -20 -20 -20 -20
38 34 20 32 26 20 10 6 -11 -20 -20 -20 -20 -20 -20 -20 -20 -16 -20 -20 -20 -20 -20 -20 -20 -20 -20 -20 -20 -20 -20 -20 -20 -20 -20 -20 -20 -20 -20 -20 -20 -20 -20
12 47 48 32 27 28 21 7 5 11 6 -20 -20 -20 -19 -20 -20 -20 -20 -20 -20 -20 -15 -20 -20 -20 -20 -20 -20 -20 -20 -20 -20 -20 -20 -20 -20 -20 -20 -20 -20 -20 -20
38 36 36 27 38 25 25 18 34 22 32 8 -5 -20 7 -2 -20 -20 -20 -20 -20 -6 -20 -20 -20 -20 -20 -20 -20 -20 -20 -20 -20 -20 -20 -20 -20 -20 -20 -20 -20 -20 -20
-2 4 26 29 28 44 29 23 7 34 21 -8 -17 -18 9 6 1 6 -20 -20 -20 5 -9 -19 2 -4 -20 -20 -20 -20 -20 -20 -20 -20 -20 -20 -20 -20 -20 -20 -20 -20 -20
18 25 -18 8 11 21 12 -7 16 22 28 19 -18 2 24 21 14 13 -14 -20 -20 -20 -9 -12 -20 -20 -20 -20 -20 -20 -20 -20 -20 -20 -20 -20 -20 -20 -20 -20 -20 -20 -20
-12 12 21 2 12 4 -9 -1 26 32 24 16 19 19 16 21 23 12 -17 -20 -20 -19 -4 -20 -20 -20 -20 -20 -20 -20 -20 -20 -20 -20 -20 -20 -20 -20 -20 -20 -20 -20 -20
-0 -11 -4 2 15 2 16 33 17 31 30 22 23 24 26 -4 1 -19 -2 -8 -20 -20 -20 -20 -20 -20 -20 -20 -20 -20 -20 -20 -20 -20 -20 -20 -20 -20 -20 -20 -20 -20 -20
2 28 -0 4 15 7 16 40 32 27 11 19 26 8 7 5 -0 4 -14 -20 -20 -20 -20 -20 -20 -20 -20 -20 -20 -20 -20 -20 -20 -20 -20 -20 -20 -20 -20 -20 -20 -20 -20
26 20 17 23 28 30 36 28 33 33 21 14 -11 -20 -3 5 -5 -5 -20 -20 -20 -20 -20 -20 -20 -20 -20 -20 -20 -20 -20 -20 -20 -20 -20 -20 -20 -18 -20 -20 -20 -20 -20
2 21 24 24 30 26 26 22 19 2 0 -14 -20 -20 -16 -10 -19 -20 -20 -20 -20 -20 -20 -20 -20 -20 -20 -20 -20 -20 -20 -20 -20 -20 -20 -20 -20 -20 -20 -20 -20 -20 -20
-19 0 18 27 28 19 24 24 25 14 5 -17 -20 -20 -20 -20 -20 -20 -20 -20 -20 -20 -20 -20 -20 -20 -20 -20 -20 -20 -20 -20 -20 -20 -20 -20 -20 -20 -20 -20 -20 -20 -20
-20 -20 -20 -20 -20 -2 10 11 15 6 -8 -13 -15 -20 -20 -20 -19 -20 -20 -20 -20 -20 -20 -20 -20 -20 -20 -20 -20 -20 -20 -20 -20 -20 -20 -20 -20 -20 -20 -20 -20 -20 -20
-20 -20 -20 -20 -20 -20 28 -17 -18 -18 -20 -10 -20 -20 5 8 2 -20 -20 -20 -20 -20 -20 -20 -20 -20 -20 -20 -20 -20 -20 -20 -20 -20 -20 -20 -20 -20 -20 -20 -20 -20 -20
-20 -20 -20 -20 -20 -20 -20 -20 -20 -20 -20 -20 -20 -20 -0 -11 -3 -1 -20 2 -20 -20 -20 -20 -20 -20 -20 -20 -20 -20 -20 -20 -20 -20 -20 -20 -20 -20 -20 -20 -20 -20 -20
-20 -20 -20 -20 -20 -20 -20 -20 -20 -20 -20 -20 -20 -20 14 -17 7 -5 -15 26 -20 -20 -20 -20 -20 -20 -17 -20 -20 -20 -20 -20 -20 -20 -20 -20 -20 -20 -20 -20 -20 -20 -20
-20 -20 -20 -20 -20 -20 -20 -20 -20 -20 -20 -20 -20 -20 -20 14 9 9 21 -5 -20 -20 -20 -20 -20 -20 -16 -17 -20 -20 -20 -20 -20 -20 -20 -20 -20 -20 -20 -20 -20 -20 -20
-20 -20 -20 -20 -20 -20 -20 -20 -20 -20 -20 -20 -20 -20 -11 -20 -13 33 31 36 24 -20 -20 -20 -20 -20 -20 -20 -20 -20 -20 -8 -7 -20 -6 -18 -20 -20 -20 -20 -20 -20 -20
-20 -20 -20 -20 -20 -20 -20 -20 -20 -20 -20 -20 -20 -20 2 2 -8 -20 -19 13 4 12 -17 -20 -18 -20 -20 -20 -20 4 -5 -2 -20 -20 -20 -20 -20 -20 -20 -20 -20 -20 -20
-20 -20 -20 -20 -20 -20 -20 -20 -20 -20 -20 -20 -20 -3 -17 -18 0 -2 17 16 14 25 26 4 -13 -20 -20 -20 -17 -20 -20 2 4 9 -10 -20 -20 -20 -20 -20 -20 -20 -20

GFSSE_prec_radar_060.txt.gz
Reflectivity
12 -19 6 5 -20 -2 -2 -20 -20 -20 -20 -20 -20 -20 -20 -20 -20 -20 -6 -15 -20 -20 -20 -20 -20 -20 -20 -20 -20 -20 -20 -20 -20 -20 -20 -20 -20 -20 -20 -20 -13 -19 0
41 16 -1 4 10 -15 -7 -20 -20 -20 -20 -20 -20 -20 -20 -20 -20 3 -17 -20 -20 -20 -20 -20 -20 -20 -20 -20 -20 -20 -20 -20 -20 -20 -20 -20 -14 11 3 -20 -20 -20 3
48 30 11 -5 -20 -16 -20 -5 -20 -20 -20 -20 -20 -20 -20 -20 -20 11 -20 -20 -20 -20 -20 -20 -20 -20 -20 -20 -20 -20 -20 -20 4 -20 -20 -20 6 -12 8 7 9 10 7
33 36 14 12 -3 -20 -20 -20 -20 -20 -20 -20 -20 -20 -20 -20 -10 -2 -20 -20 -20 -20 -20 -20 -20 -20 -20 -20 -20 -20 -20 -20 -20 -20 -20 -20 -20 6 -11 -7 -20 -3 2
16 12 37 17 1 -20 -20 -20 -20 -20 -20 -20 -20 -20 -20 -20 -20 -20 -20 -20 -20 -20 -20 -20 -20 -20 -20 -20 -20 -20 -20 -20 -20 -20 -20 -20 -20 -18 -20 -20 -20 -10 16
23 -1 -18 30 16 -15 -1 -20 -20 -20 -20 -20 -20 -20 -20 -20 -20 -20 -20 -20 -20 -20 -20 -20 -20 -20 -20 -20 -20 -20 -20 -20 -20 -20 -20 -20 -20 -20 -20 -20 -20 -15 -15
35 16 35 17 12 -14 0 -0 -8 -20 -20 -20 -17 7 -4 -20 -20 -5 -20 -20 -20 -20 -20 -20 -20 -20 -20 -20 -20 -20 -20 -20 -20 -20 -20 -20 -20 -20 -20 -20 -20 -20 -20
-5 37 27 30 34 21 7 2 -11 -20 -20 -20 -20 6 7 -20 -8 -20 -20 -20 -20 -20 -20 -20 -20 -20 -20 -20 -20 -20 -20 -20 -20 -20 -20 -20 -20 -20 -20 -20 -20 -20 -20
14 20 43 44 34 35 42 32 -3 4 3 -3 -20 -15 -19 -20 -20 -20 -20 -20 -20 -20 -20 -19 -20 -20 -20 -20 -20 -20 -20 -20 -20 -20 -20 -20 -20 -20 -20 -20 -20 -20 -20
1 -5 32 32 45 37 39 45 32 18 12 -6 -20 -20 -20 -20 -20 -20 5 -6 -15 -20 -20 -20 -4 -20 -20 -20 -20 -20 -20 -20 -20 -20 -20 -20 -20 -20 -20 -20 -20 -20 -20
-20 -6 6 11 24 35 28 40 40 33 31 29 -5 -6 -20 -19 -20 -6 9 3 -20 -20 -20 -20 -20 -9 -15 -20 -20 -20 -20 -20 -20 -20 -20 -20 -20 -20 -20 -20 -20 -20 -20
-10 -6 8 8 11 10 10 22 21 25 29 22 21 3 -13 -15 -8 -7 -0 22 13 -1 -13 -18 -20 -20 -20 -20 -20 -20 -20 -20 -20 -20 -20 -20 -20 -20 -20 -20 -20 -20 -20
-20 4 21 -3 5 1 5 7 9 11 28 19 26 27 10 13 5 14 17 10 12 -8 12 -9 -20 -20 -20 -20 -20 -20 -20 -20 -20 -20 -20 -20 -20 -20 -20 -20 -20 -20 -20
14 11 8 26 15 22 -13 11 25 14 23 -0 5 24 20 13 -11 12 26 10 -7 7 -18 -20 -20 -20 -20 -20 -20 -20 -20 -20 -20 -20 -20 -20 -19 -20 -20 -20 -20 -20 -20
17 19 24 -2 27 16 20 4 -4 19 27 29 28 0 25 6 9 -8 -19 -0 -15 -20 -20 -20 -20 -20 -20 -20 -20 -20 -20 -20 -20 -20 -20 -20 -20 -20 -20 -20 -20 -20 -20
3 22 19 25 9 15 -1 27 17 24 23 23 13 -2 1 -10 -19 -10 -20 -20 -20 -20 -20 -20 -20 -20 -20 -20 -20 -20 -20 -20 -20 -20 -20 -20 -20 -20 -20 -20 -20 -20 -20
-11 15 10 10 20 24 23 23 36 29 28 22 22 -10 -2 -0 -20 -20 -20 -20 -20 -20 -20 -20 -20 -20 -20 -20 -20 -20 -20 -20 -20 -20 -20 -20 -20 -20 -20 -20 -20 -20 -20
-20 -16 4 11 12 4 23 30 29 5 -20 -19 -20 -20 -20 2 -20 -20 -20 -20 -20 -20 -20 -20 -20 -20 -20 -20 -20 -20 -20 -20 -20 -20 -20 -20 -20 -20 -20 -20 -20 -20 -20
-20 -20 2 1 -16 4 12 -5 -20 -14 -20 -19 -3 -20 -20 -20 -20 -20 -20 -20 -20 -20 -20 -20 -20 -20 -20 -20 -20 -20 -20 -20 -20 -20 -20 -20 -20 -20 -20 -20 -20 -20 -20
-20 -20 -20 -20 -20 -20 -20 -18 -20 -16 -5 -20 -20 -20 21 -20 -20 -20 -20 -20 -20 -20 -20 -20 -20 -20 -20 -20 -20 -20 -20 -20 -20 -20 -20 -20 -20 -20 -20 -20 -20 -20 -20
-20 -20 -20 -20 -20 -20 -20 -20 -20 12 -20 -20 -20 -20 -20 -20 11 2 -0 -18 -20 -20 -20 -20 -20 -20 -20 -20 -20 -20 -20 -20 -20 -20 -20 -20 -20 -20 -20 -20 -20 -20 -20
-20 -20 -20 -20 -20 -20 -20 -20 -16 -20 -20 -20 -20 -20 -20 -20 2 7 35 6 -20 21 -13 -20 -20 -20 -20 -20 -20 -20 -20 -20 -20 -20 -20 -20 -20 -20 -20 -20 -20 -20 -20
-20 -20 -20 -20 -20 -20 -20 -20 -20 -20 -20 -20 -20 -20 -20 -20 -7 9 26 15 -4 -20 -6 -20 -20 -20 -20 -6 -20 -20 -20 -20 -20 -20 -2 -13 -20 -20 -20 -20 -20 -20 -20
-20 -20 -20 -20 -20 -20 -20 -20 -20 -20 -20 -20 -20 -20 -20 -20 -20 -20 -10 -18 16 31 10 36 5 -14 -17 -10 -3 -16 -17 -20 -20 3 -8 -15 -9 -20 -20 -20 -20 -20 -20
-20 -20 -20 -20 -20 -20 -20 -20 -19 -9 -20 -20 -20 -20 -1 -20 -20 -20 -20 -20 -20 -20 -20 -16 34 24 29 19 20 -16 -20 -20 2 -20 -20 -20 5 -20 -19 -20 -20 -20 -20
-20 -20 -20 -20 -20 -20 -20 -20 -20 -12 -20 -20 -20 -20 -20 6 -20 -20 -20 -20 -20 -20 -20 1 41 28 25 39 38 23 22 -9 -11 -18 0 -17 -20 -19 -13 -18 -14 -20 -20

GFSSE_prec_radar_063.txt.gz
Reflectivity
3 34 9 -2 7 -20 -20 -20 -20 -20 -20 -20 -20 -20 -20 -20 -20 -20 -20 -20 -20 -20 -20 -20 -20 -20 -20 -20 -20 -20 -20 -20 -20 -20 -20 -20 -20 -20 -20 -11 8 -10 10
2 1 30 18 4 -3 -1 -20 -20 -20 -20 -20 -20 -20 -20 -20 -20 -20 -20 -20 -20 -20 -20 -20 -20 -20 -20 -20 -20 -20 -20 -14 -20 -20 -20 -1 11 5 -2 -20 -20 1 3
-20 -20 -10 42 17 1 3 -11 -20 -20 -20 -20 -20 -20 -20 -1 -20 -20 -20 -20 -20 -20 -20 -20 -20 -20 -20 -20 -20 -20 4 2 9 -20 -20 -20 -20 10 7 -19 -4 18 17
-20 -4 17 31 42 12 5 -20 -20 -20 -20 -20 -20 -20 -7 -17 -20 -20 -20 -20 -20 -20 -20 -20 -20 -20 -20 -20 -20 -20 -20 -20 -20 -20 -20 -20 -20 2 10 -3 -9 8 9
-20 8 16 38 38 16 0 1 -1 -20 -20 -20 -20 -20 9 6 -20 -20 -20 -20 -20 -20 -20 -20 -20 -20 -20 -20 -20 -20 -20 -20 -20 -20 -20 -20 -20 -20 -18 -20 3 18 12
7 -20 -14 36 -10 10 1 -20 10 17 -20 -20 -20 -20 12 -0 -20 -20 -20 -20 -20 -20 -20 -20 -20 -20 -20 -20 -20 -20 -20 -20 -20 -20 -20 -20 -20 -20 -20 -5 -20 -20 10
16 -20 -17 35 -17 6 2 -20 -20 -20 -20 -20 -20 -20 6 -0 -20 -20 -20 -20 -20 -20 -20 -20 -20 -20 -20 -20 -20 -20 -20 -20 -20 -20 -20 -20 -20 -20 -20 -20 -20 -20 -20
25 16 35 36 22 6 19 11 -20 -13 1 3 -20 -19 1 -5 -20 -20 -20 -20 -20 -20 -20 -20 -20 -20 -20 -20 -20 -20 -20 -20 -20 -20 -20 -20 -20 -20 -20 -20 -20 -20 -20
3 24 31 46 47 44 44 33 31 12 28 19 -14 -18 -6 -20 -20 -20 -20 -20 -20 -18 -20 -20 -20 -20 -20 -20 -20 -20 -20 -20 -20 -20 -20 -20 -20 -20 -20 -20 -20 -20 -20
-2 17 28 42 46 43 50 36 45 36 34 15 15 -4 16 -20 -20 -20 -20 -20 -16 3 -10 -17 -20 -20 -20 -20 -20 -20 -20 -20 -20 -20 -20 -20 -20 -20 -20 -20 -20 -20 -20
-8 -2 4 25 25 35 37 39 38 38 8 -7 0 -2 -20 -20 -19 -20 -14 -20 -17 19 15 1 -20 -20 -20 -20 -20 -20 -20 -20 -20 -20 -20 -20 -20 -20 -20 -20 -20 -20 -20
-19 -4 3 2 15 9 17 16 34 36 25 14 8 4 14 9 6 -2 -5 -19 -20 -2 -0 15 -12 -6 -20 -20 -20 -20 -20 -20 -20 -20 -20 -20 -20 -20 -20 -20 -20 -20 -20
-20 -18 -20 -6 6 9 7 12 -3 15 10 21 28 13 29 14 11 7 5 -3 -8 -2 10 -13 -4 -17 -20 -20 -20 -20 -20 -20 -20 -20 -20 -20 -20 -20 -20 -20 -20 -20 -20
24 17 -9 -20 -20 -6 -20 -13 -5 -19 -16 -6 -17 -14 4 8 16 27 20 -8 -20 -20 10 -17 -20 -20 -20 -20 -20 -20 -20 -20 -20 -20 -20 -20 -20 -20 -20 -20 -20 -20 -20
0 12 10 -19 -5 15 -13 -12 -6 -7 13 -1 -20 -6 15 5 -13 -12 -11 -20 -20 -11 -20 -20 -20 -20 -20 -20 -20 -20 -20 -20 -20 -20 -20 -20 -20 -20 -20 -20 -20 -20 -20
0 21 23 26 6 -7 17 -3 24 -6 -7 -19 -15 11 5 1 -7 -20 -20 -20 -10 -20 -20 -20 -20 -20 -20 -20 -20 -20 -20 -20 -20 -20 -20 -20 -20 -20 -20 -20 -20 -20 -20
-3 6 32 21 16 -13 -14 -1 17 -20 0 8 8 13 15 -5 -20 -10 -20 -19 -20 -20 -20 -20 -20 -20 -20 -20 -20 -20 -20 -20 -20 -20 -20 -20 -20 -20 -20 -20 -20 -20 -20
6 -3 8 10 9 -2 6 7 -12 13 13 -3 8 -4 -20 -20 -20 -20 -8 -20 -20 -20 -20 -20 -20 -20 -20 -20 -20 -20 -20 -20 -20 -20 -20 -20 -20 -20 -20 -20 -20 -20 -20
-20 -4 19 18 18 12 -20 -11 -7 -5 -2 13 -7 -18 -20 -20 -20 7 -20 -20 -20 -20 -20 -20 -20 -20 -20 -20 -20 -20 -20 -20 -20 -20 -20 -20 -20 -20 -20 -20 -20 -20 -20
-20 -20 -20 -17 -14 -20 -20 -20 -20 -20 -20 -20 -20 -20 -20 -20 -20 -20 -20 -20 -20 -20 -20 -20 -20 -20 -20 -20 -20 -20 -20 -20 -20 -20 -20 -20 -20 -20 -20 -20 -20 -20 -20
-20 -20 -20 -20 -20 -20 -20 -20 -20 -20 -20 -20 -20 -20 -20 -20 -1 -2 -18 -20 -20 -20 -20 -20 -20 -20 -20 -20 -20 -20 -20 -20 -20 -20 -20 -20 -20 -20 -20 -20 -20 -20 -20
-20 -20 -20 -20 -20 -20 -20 -20 -20 -20 -20 -20 -20 -20 -20 -20 -20 -15 18 17 15 -20 -20 -14 -20 -20 -20 -20 -20 13 0 -15 -20 -20 -20 -20 -20 -20 -20 -20 -20 -20 -20
-20 -20 -20 -20 -20 -20 -20 -20 -20 -20 -20 -20 -20 -20 -20 -20 -20 -20 -20 4 27 -13 -1 -20 9 -20 -9 10 -1 -18 18 14 -20 -19 -20 -20 -20 -20 -20 -20 -20 -20 -20
-20 -20 -20 -20 -20 -20 -20 -20 -20 -20 -20 -20 -20 -20 -20 -20 -20 -20 -20 -13 28 -20 -20 -2 -13 -15 -12 -4 32 21 11 12 25 16 -20 -19 -17 -20 -20 -20 -20 -20 -20
-20 -20 -20 -20 -20 -20 -20 -20 -20 -20 -20 -20 -20 -20 -20 -20 -20 -20 -20 -20 -20 -17 -20 -20 14 -15 -1 24 33 17 20 33 35 25 -13 -9 -19 -18 -20 -20 -20 -20 -20
-20 -20 -20 -20 -20 -20 -20 -20 -20 -20 -20 -20 -20 -20 -20 -20 -20 -3 -20 -11 -20 25 -20 -20 17 20 5 6 7 26 23 33 27 26 -7 -13 -12 -14 -16 -20 -16 -20 -20

GFSSE_prec_radar_066.txt.gz
Reflectivity
5 4 9 10 6 -3 -4 -20 -20 -20 -20 -20 -20 -20 -4 -5 0 -20 -20 -20 -20 -20 -20 -20 -20 -20 -20 -20 -20 -20 -20 -20 -1 -1 -20 -0 -1 -2 6 5 -20 -20 14
-11 -20 11 -15 33 -12 -20 -20 -20 -20 -20 -20 -20 -20 -5 -20 -20 -20 -20 -20 -20 -20 -20 -20 -20 -20 -20 -20 -20 -20 -20 -20 -20 -19 9 10 15 19 1 -20 17 2 10
-20 -20 -20 3 -3 37 25 -18 -20 -20 -20 -20 -20 -3 -20 -20 -20 -20 -20 -20 -20 -20 -20 -20 -20 -20 -20 -20 8 1 -7 -20 -20 -20 -20 -18 3 7 -13 2 18 17 12
-4 -20 -5 -12 -20 2 47 10 -15 -20 -20 -20 -20 -5 -20 -20 -20 -20 -20 -20 -20 -20 -20 -20 -20 -20 -20 -20 -20 -20 -20 -20 -20 -20 -20 -20 -20 -6 15 9 16 16 13
-20 -20 -20 -20 -20 5 32 38 5 -6 -19 -13 10 8 -20 -20 -20 -20 -20 -20 -20 -20 -20 -20 -20 -20 -20 -20 -20 -20 -20 -20 -20 -20 -20 -20 -20 -15 -13 -3 16 12 13
-4 -20 -20 -20 -20 3 32 33 30 28 -3 -9 -6 -18 -20 -20 -20 -20 -20 -20 -20 -20 -20 -20 -20 -20 -20 -20 -20 -20 -20 -20 -20 -20 -20 -20 -20 -10 -20 -20 4 13 13
-17 -20 -20 -7 0 9 30 40 39 29 16 2 -9 10 -20 -20 -20 -20 -20 -20 -20 -20 -20 -20 -20 -20 -20 -20 -16 4 -18 -20 -20 -20 -20 -20 -20 -20 -2 -0 0 14 16
-20 -20 -11 15 40 46 41 27 24 3 12 21 12 -10 -20 -20 -20 -20 -20 -20 -20 -20 -20 -20 -20 -20 -20 0 -5 -20 -20 -20 -20 -20 -20 -20 -20 -20 -20 1 8 12 16
-12 17 32 37 39 44 46 42 34 -5 12 -1 -1 -18 -20 -20 -20 -20 -20 -20 -20 -20 -20 -20 -20 -20 -20 -7 -4 -20 -20 -20 -20 -20 -20 -20 -20 -20 -20 -20 -6 -5 -4
-17 7 30 36 33 46 42 43 37 40 20 -14 11 -17 -20 -20 -20 -20 -20 -20 -20 -20 -15 14 8 -20 -20 1 0 -20 -20 -20 -20 -20 -20 -20 -20 -20 -20 -20 -20 -20 -20
3 2 15 30 17 35 42 40 40 41 33 14 7 -3 -20 -8 -20 -20 -20 -20 -13 -18 -20 5 6 -7 -15 -10 -9 -20 -20 -20 -20 -20 -20 -20 -20 -20 -20 -20 -20 -20 -20
15 4 -17 7 3 28 31 31 31 42 32 19 14 29 11 -15 -20 -20 -19 -20 10 3 -9 -20 -19 5 -17 -20 -17 -20 -20 -20 -20 -20 -20 -20 -20 -20 -20 -20 -20 -20 -20
19 11 -13 -20 -2 16 19 16 15 23 30 31 21 30 15 -2 -17 1 6 12 -5 11 -4 -18 -20 -20 -20 -20 -20 -20 -20 -20 -20 -20 -20 -20 -20 -20 -20 -20 -20 -20 -20
9 5 2 -5 -18 -3 9 5 15 1 12 12 27 26 28 11 -11 2 -18 9 9 5 -20 -20 -20 -20 -20 -20 -20 -20 -20 -20 -20 -20 -20 -20 -20 -20 -20 -20 -20 -20 -20
-10 13 -18 -6 -13 -20 5 -0 4 -2 -1 -6 -13 23 4 4 14 -20 -8 -20 -13 -20 -20 -20 -20 -20 -20 -20 -20 -20 -20 -20 -20 -20 -20 -20 -20 -20 -20 -20 -20 -20 -20
-3 11 15 10 24 -20 7 -5 -7 -8 -13 -0 4 -20 -13 0 15 -20 -17 -20 -20 -20 -20 -20 -20 -20 -20 -20 -20 -20 -20 -20 -20 -20 -20 -20 -20 -20 -20 -20 -20 -20 -20
-1 29 23 22 17 27 23 15 25 4 13 6 1 -11 8 0 -12 -18 -20 -20 -20 -20 -20 -20 -20 -20 -20 -20 -20 -20 -20 -20 -20 -20 -20 -20 -20 -20 -20 -20 -20 -20 -20
15 22 25 30 27 22 11 8 2 24 21 0 -2 -20 -20 -5 -16 -20 -20 -20 -20 -20 -20 -20 -20 -20 -20 -20 -20 -20 -20 -20 -20 -20 -20 -20 -20 -20 -20 -20 -20 -20 -20
-1 -20 -0 20 -10 14 7 6 21 20 -5 12 -16 -3 -9 16 -10 -20 -20 -20 -20 -20 -20 -20 -20 -20 -20 -20 -20 -20 -20 -20 -20 -20 -20 -20 -20 -20 -20 -20 -20 -20 -20
-7 -12 5 21 1 1 3 -0 9 -5 10 13 -14 5 -16 -20 -20 -20 -20 -20 -20 -20 -20 -20 -20 -20 -20 -20 -20 -20 -20 -20 -20 -20 -20 -20 -20 -20 -20 -20 -20 -20 -20
5 -2 -3 18 7 -18 -20 4 11 11 14 3 7 -20 -20 -20 -20 -20 -20 -20 -20 -20 -20 -20 -20 -20 -20 -20 -20 -20 -20 -20 -20 -20 -20 -20 -20 -20 -20 -20 -20 -20 -20
-20 -20 -20 -20 -20 -20 -20 -20 -16 -20 -20 -20 -20 -20 -20 -20 -20 -20 -13 -20 -20 -20 -20 -20 -20 -20 -20 -20 -20 -20 -20 -11 -20 -20 -20 -20 -20 -20 -20 -20 -20 -20 -20
-20 -20 -20 -20 -20 -20 -20 -20 -20 -20 -20 -20 -20 -20 -20 -20 -20 -20 -20 -20 -13 -20 -20 -20 -1 -20 -20 -20 -9 -3 9 -13 5 -20 1 -20 -12 -17 -3 -20 -20 -20 -20
-20 -20 -20 -20 -20 -20 -20 -20 -20 -20 -20 -20 -20 -20 -20 -20 -20 -20 -20 -20 -20 -20 -20 -20 -20 -20 -20 -15 -20 -13 29 21 11 1 20 24 17 -20 -15 -20 -20 -20 -20
-20 -20 -20 -19 -20 -20 -20 -20 -20 -20 -20 -20 -20 -20 -20 -20 -20 -20 -20 -20 -20 -20 -20 -20 -20 20 20 -18 -5 26 -10 3 6 12 13 30 8 -20 -5 -8 -6 -16 -20
-20 -20 -20 -20 -20 -20 -20 -20 -20 -20 -20 -20 -20 -20 -20 -20 -20 -20 -20 -20 -20 -20 -20 -20 -20 2 -20 -20 23 -12 31 7 24 8 11 -8 -11 -10 -11 5 -8 -6 -19

GFSSE_prec_radar_069.txt.gz
Reflectivity
8 1 -5 -15 42 -2 -20 -19 -4 3 10 -20 -20 -20 -20 -16 -20 -20 -20 -20 -20 -20 -20 -20 -20 -20 -20 -20 -11 -20 -20 -20 -20 -20 -12 8 16 9 -9 -20 -20 -20 11
5 8 -20 -16 3 -20 -20 -20 -20 -20 -19 -20 -20 -20 -20 -20 -20 -20 -20 -20 -20 -20 -20 -20 -18 -20 -20 -20 -20 -20 -20 -18 10 -9 16 17 12 -1 17 -19 14 -20 5
-1 -7 -20 -18 -20 -20 -3 -19 -16 -15 -17 -5 13 -9 -16 -12 -20 -20 -20 -20 -20 -20 -20 -6 4 1 -14 -20 -20 -20 -20 -20 -20 -20 -15 -16 7 18 10 12 14 11 4
-20 -20 -20 -20 -20 -20 -15 2 37 6 20 3 11 5 7 3 -20 -20 -20 -20 -20 -20 -20 -20 -20 -20 -20 -20 -20 -20 -20 -20 -20 -20 -20 -19 7 14 13 13 16 16 12
-20 -20 7 -7 -20 -20 -18 -6 2 31 27 7 8 8 8 -20 -20 -20 -20 -20 -20 -20 -20 -20 -20 -20 -20 -15 -20 -20 -20 -20 -20 -20 -20 -20 -15 9 16 11 12 11 8
-20 -20 38 -20 35 33 27 -8 -20 25 36 -3 -6 6 -4 -20 -20 -20 -20 -20 -20 -20 -20 -20 -20 -20 -20 -20 -20 -20 -20 -20 -20 -20 -20 -20 -20 -4 7 12 -5 6 -20
-20 -20 -18 -2 18 28 24 33 19 -0 34 19 -16 1 -20 -20 -20 -20 -20 -20 -20 -20 -20 -20 -20 -20 -20 -20 -20 -20 -20 -20 -20 -20 -20 -20 -20 -20 5 18 16 -15 12
-18 7 5 -20 -6 3 3 22 35 23 40 30 -14 -20 -0 -20 -20 -20 -20 -20 -20 -20 -20 -20 -20 -20 -20 -20 -20 -18 -13 -20 -20 -20 -20 -20 -20 3 18 1 15 2 7
16 -2 22 29 26 23 21 19 28 31 33 28 20 22 -5 -20 -20 -20 -20 -20 -20 -20 -20 -20 -20 -20 -20 -20 -20 -20 -20 -20 -20 -20 -20 -20 -20 -20 -20 -16 -14 -17 -20
23 12 6 31 17 35 34 42 43 40 41 33 19 31 8 -20 -20 -20 -20 -20 -20 -20 -20 -20 -20 -5 -18 -20 -20 -20 -20 -20 -20 -20 -20 -20 -20 -20 -20 -20 -20 -20 -20
21 4 7 24 26 25 27 37 41 44 38 35 24 -20 -20 -20 -20 -20 -20 -17 -20 -20 -20 -20 -3 3 -9 -17 8 -14 -20 -20 -20 -20 -20 -20 -20 -20 -20 -20 -20 -20 -20
13 15 4 3 3 5 7 33 39 40 42 34 25 9 -6 -9 -20 -20 -10 -8 -20 -20 -20 -20 -11 -19 -19 -20 -14 -20 -20 -20 -20 -20 -20 -20 -20 -20 -20 -20 -20 -20 -20
-3 2 -20 -20 -1 -20 10 19 32 29 36 39 30 13 11 -2 -20 -15 9 -6 -20 -20 -20 1 -19 -20 -20 -20 -20 -20 -20 -20 -20 -20 -20 -20 -20 -20 -20 -20 -20 -20 -20
4 -13 -19 -20 -1 -16 2 5 15 19 29 33 30 23 14 2 12 19 4 -20 -20 -7 8 19 -20 -20 -20 -20 -20 -20 -20 -20 -20 -20 -20 -20 -20 -20 -20 -20 -20 -20 -20
-4 7 -11 -20 -20 -20 -20 3 7 11 16 10 15 25 10 18 28 4 -12 -18 -20 4 -20 -20 -20 -20 -20 -20 -20 -20 -20 -20 -20 -20 -20 -20 -20 -20 -20 -20 -20 -20 -20
-16 -10 -20 -14 -16 18 -16 -20 1 -5 2 10 18 19 23 18 1 -2 -19 -20 -20 -10 -20 -20 -20 -20 -20 -20 -20 -20 -20 -20 -20 -20 -20 -20 -20 -20 -20 -20 -20 -20 -20
-20 -16 -2 19 18 -2 18 11 12 -11 -8 17 16 10 -2 -20 8 1 -20 -20 -19 -20 -20 -20 -20 -20 -20 -20 -20 -20 -20 -20 -20 -20 -20 -20 -20 -20 -20 -20 -20 -20 -20
-20 -13 11 18 21 29 23 20 18 15 28 19 17 17 25 5 23 1 -18 4 -19 -20 -20 -20 -20 -20 -20 -20 -20 -20 -20 -20 -20 -20 -20 -20 -20 -20 -20 -20 -20 -20 -20
-20 -20 -14 21 27 19 -16 20 21 21 7 15 8 12 22 -16 -3 -1 5 5 -20 -20 -20 -20 -20 -20 -20 -20 -20 -20 -20 -20 -20 -20 -20 -20 -20 -20 -20 -20 -20 -20 -20
-20 -20 -17 10 29 31 21 -5 -3 23 20 21 10 24 -6 6 -3 -6 4 -20 -20 -20 -20 -20 -20 -20 -20 -20 -20 -20 -20 -20 -20 -20 -20 -20 -20 -20 -20 -20 -20 -20 -20
-13 -2 -17 3 -3 11 2 17 25 6 17 7 16 14 10 13 -1 -20 -20 -20 -20 -20 -20 -20 -1 -20 -20 -20 -20 -20 -20 -20 -20 -20 -20 -20 -20 -20 -20 -20 -20 -20 -20
-11 -0 -20 -18 -20 -7 -3 8 -1 11 3 5 21 -17 -20 -20 -20 -20 -20 -20 -20 -20 -20 7 -20 -20 -20 -20 -20 -20 -20 -20 -20 -19 -20 -17 -20 -19 -18 -20 -20 -20 -20
-20 -20 -20 -20 14 -20 -20 -20 -18 -9 6 17 7 -5 -20 -20 -20 -20 -20 -17 -12 -20 -20 -16 -20 -18 -19 6 -4 -11 -18 -15 -3 -20 -20 -2 -12 -14 4 -20 -20 -20 -20
-20 -20 -20 -20 -20 -20 -20 -20 -20 -19 -19 -16 -16 -13 -20 -20 -20 8 12 2 -20 -20 -20 -7 -18 -20 16 -12 -18 -14 -6 10 19 -17 -20 -14 -20 -9 7 -4 -20 -20 -20
-20 -20 -20 -20 -20 -20 -20 -20 -20 -20 -20 -20 -20 -20 -20 -20 -20 -20 -20 -20 -20 -20 -20 -19 -20 -20 -8 11 18 16 -6 12 -20 21 22 2 3 -3 18 12 -19 -10 -12
-20 -20 -20 -20 -20 -20 -20 -20 -20 -20 -20 -20 -20 -20 -20 -20 -20 -20 -20 -20 -20 -20 -20 -20 -20 -20 -20 -20 -20 -7 -20 12 18 9 21 16 -20 9 9 7 -13 -17 15

GFSSE_prec_radar_075.txt.gz
Reflectivity
4 -20 -20 -20 -20 -20 -20 -20 -20 -20 -20 -20 -20 -20 -17 -7 -20 0 -20 -15 -20 13 11 -20 13 13 10 14 -9 -20 -20 -20 -20 -18 7 1 2 9 8 -5 10 13 11
6 6 -20 -20 -20 -3 -20 -20 -20 -20 -20 -20 -20 -20 -11 -10 -0 4 -20 -20 -19 -15 0 -9 -20 -2 14 -17 -20 -20 -20 -20 -20 5 4 2 7 9 9 -18 7 6 13
-3 7 -20 -20 -20 -20 -20 -20 -20 -20 -20 -20 -20 -20 -20 -20 -20 -20 -20 -20 -20 -12 -20 -2 2 -14 7 -19 -20 -20 -18 -20 0 -11 -20 -20 12 -1 -3 -20 -20 -20 -20
16 11 -20 -20 -20 -20 -7 -13 -10 -9 -20 -20 -20 -20 -16 -20 -20 -20 -20 -20 -20 -20 -20 -20 -20 5 9 -0 -20 -20 -20 -20 -20 -20 -20 -20 6 4 -4 -20 -20 -20 -20
10 1 23 16 21 21 -20 11 11 2 -11 -20 -20 -20 -2 -20 -20 -20 -20 -20 -20 -20 -20 -18 5 6 -5 -19 -20 -20 -20 -20 -20 -20 -17 -1 -20 -8 -15 -20 -3 -8 3
-20 -17 -15 5 21 37 1 -20 39 13 15 -20 -20 -20 -20 7 -20 -20 -20 -8 -20 -20 -0 4 -7 -20 -20 -20 -20 -20 -20 -20 -20 -20 -20 1 -20 10 -20 -20 13 -20 -20
-18 13 37 -20 4 -9 8 1 -20 -19 38 29 2 -20 -20 -6 7 -4 -2 -16 11 18 21 2 -20 -20 -20 -20 -20 -20 -20 -20 -20 -20 -7 -11 -20 -18 -20 6 -20 -20 -20
-16 -10 30 -18 -20 14 24 10 10 27 44 39 36 4 -16 -17 11 5 -2 -3 -20 -8 -15 -7 -20 -20 -20 -20 -20 -20 -20 -20 -20 -20 -16 -20 -1 3 -12 -20 -10 -8 -15
3 23 27 30 -7 32 18 23 28 22 33 30 37 14 -8 -20 -6 1 -5 -20 -20 -20 -19 -20 -20 -20 -20 -20 -20 -20 -20 -20 -20 -20 -20 -20 3 -20 -10 -20 -20 -20 -20
10 -18 32 16 14 -2 -12 18 -11 -14 10 37 25 14 -1 -10 9 11 -20 -20 -20 -20 -20 -20 -20 -20 -20 -20 -20 -20 -20 -20 -20 -20 -20 -20 -6 -20 -20 -20 -20 -20 -20
-3 11 23 32 32 33 -16 -20 -20 -20 -19 34 43 15 21 -14 10 7 -15 -19 -20 -20 -20 -20 -20 -20 -20 -20 -20 -20 -20 -20 -20 -20 -20 -4 -20 -20 -20 -20 -20 -20 -20
-20 -20 -11 -13 -19 35 -20 -20 -6 -20 -13 32 33 30 -0 3 12 13 11 -20 -20 -20 -20 -20 -20 -20 -20 -20 -20 -20 -20 -20 -20 -20 -20 -6 -20 -20 -20 -20 -20 -20 -20
-20 12 8 -14 -11 -12 -20 -20 -20 -0 26 38 35 29 20 11 9 16 23 -8 -20 -20 -20 -20 -20 -20 -20 -20 -20 -20 -20 -20 -20 -20 -20 -20 -20 -20 -20 -20 -20 -20 -20
-20 -20 1 -12 -20 -20 -17 -17 -13 -1 40 35 35 33 16 -13 -6 13 25 14 -16 -20 -20 -13 -18 -20 -20 6 -8 -20 -20 -20 -20 -20 -20 -20 -20 -20 -20 -20 -20 -20 -20
-20 -20 -20 -17 -13 -20 -20 -20 6 15 35 34 36 27 -12 -16 8 23 25 12 -14 -20 -20 -20 -20 -20 -19 -20 -20 -20 -20 -20 -20 -20 -20 -20 -20 -20 -20 -20 -20 -20 -20
-5 -16 -10 -15 -6 -10 -20 -20 13 18 37 25 29 21 -10 6 14 13 11 7 -0 3 -20 -20 -20 -20 -20 -20 -20 -20 -20 -20 -20 -20 -20 -20 -20 -20 -18 -20 -20 -20 -20
-15 4 16 2 -20 -20 -19 0 17 25 29 29 28 26 24 21 15 26 23 9 11 -20 -20 14 -10 -20 -20 -20 -20 -20 -20 -20 -20 -20 -20 -20 -20 -20 -20 -20 -20 -20 -20
-20 -11 7 -6 2 20 7 21 -12 31 29 28 22 10 15 12 16 -3 -11 12 16 20 -7 -11 -20 -20 -20 -20 -20 -20 -20 -20 -20 -20 -20 -20 -20 -20 -20 -20 -20 -20 -20
3 -10 -12 -11 21 10 22 4 9 26 26 17 21 2 -15 7 -3 -20 -13 9 8 -16 15 -11 -20 -20 -20 -20 -20 -20 -20 -20 -20 -20 -20 -20 -20 -20 -20 -20 -20 -20 -20
-6 -1 2 6 6 25 11 -9 6 29 28 25 17 16 -2 -0 21 3 -17 4 19 21 25 -15 -20 -20 -20 -20 -20 -20 -20 -20 -20 -20 -20 -20 -20 -20 -20 -20 -20 -20 -20
4 6 3 -9 -0 10 12 2 18 29 34 24 20 11 4 8 29 6 10 27 20 19 3 -20 -20 -20 -20 -20 -20 -20 -20 -20 -20 -20 -20 -20 -20 -20 -20 -20 11 4 6
2 -2 4 -19 -7 -13 5 -19 -7 18 31 31 20 13 4 13 21 7 17 18 15 13 0 -6 -9 18 -6 -20 -13 -20 -20 -20 -20 -20 -20 -20 -18 13 -20 -1 17 -18 -20
-12 -11 -14 -20 -7 -20 -20 -16 -20 -6 5 14 26 18 8 22 17 15 -2 -11 -19 -20 -20 -16 -20 -20 -20 8 -7 8 -20 -19 -20 21 9 -0 18 -14 -20 -14 -4 3 11
-20 -20 -20 -20 4 -20 -20 -20 -20 -3 -2 -10 3 -9 26 20 22 24 19 -19 -20 2 0 -10 -1 -20 -20 -20 -20 13 14 -18 -20 -9 -8 -20 -20 7 10 -12 4 28 -13
-20 -20 -20 -20 -20 -20 -20 -20 -20 4 22 30 32 30 24 24 12 20 18 2 8 17 -4 1 -20 -20 -7 -20 -20 18 2 -16 -20 -20 -20 -20 -20 -20 -10 30 -20 10 12
-20 -15 -20 -20 -20 -20 -20 -20 -20 -20 -9 -10 -16 -10 -14 -12 -11 6 2 -7 10 -8 -13 -15 10 -6 -12 -12 22 11 0 -10 -20 -12 -20 -20 13 -5 -20 -20 -18 -18 -10

GFSSE_prec_radar_078.txt.gz
Reflectivity
-14 -20 -20 -20 -20 -20 -9 -20 -20 -19 -20 -20 -20 -16 -20 -20 -20 -20 -20 -20 -20 -20 -20 5 -11 17 1 11 -3 -20 -12 -20 -20 -1 8 10 5 5 -3 16 10 11 13
-20 -20 -20 -20 -20 -20 -18 -20 -20 -20 -3 -20 -20 -20 -20 -14 -16 -17 -20 -20 -20 -15 -15 -10 8 9 4 -18 -20 -20 -20 -20 -20 -20 -9 7 12 7 8 -20 1 -13 -2
-9 -20 -20 -20 -20 -20 -4 -20 -20 -17 -20 -20 -20 -20 -20 -20 -1 -3 -20 -19 -20 14 2 -10 -4 -8 -19 -20 -20 -20 -20 -20 -20 -19 14 8 9 7 -5 5 11 11 12
2 5 -11 -20 -20 -20 -8 8 10 3 -20 -20 -20 -20 -3 -10 -10 3 -19 -20 -20 -20 8 -11 -20 -10 -11 -20 -20 -20 -20 -20 -20 -20 -20 3 7 5 11 9 -7 -20 -20
-16 11 0 -20 -20 -20 -20 18 14 3 3 -3 -20 -20 -20 -19 13 -9 -20 -20 -20 -20 4 1 3 0 -20 -20 -20 -20 -20 -20 -20 -20 -20 -20 -14 -14 -20 -20 -20 -20 -20
-20 9 -14 -7 -2 -20 16 23 39 37 6 3 2 -8 -9 11 4 -1 -20 -20 -20 -20 -20 -6 5 3 -20 -20 -20 -20 -20 -20 -20 -20 -20 -20 -20 -20 -15 -20 -20 -20 -20
-16 6 -20 13 -0 -13 17 18 35 44 39 30 28 5 -20 -20 -7 -20 -16 -20 -20 -18 -13 -3 4 -8 -20 -20 -20 -20 -20 -20 -20 -20 -20 -20 -20 -13 -20 -20 -20 -20 -20
2 -1 1 -15 17 29 42 18 36 35 17 39 35 36 17 -20 -20 16 -20 -20 -20 11 -20 -6 -20 -20 -20 -20 -20 -20 -20 -20 -20 -20 -20 -20 -9 -5 -20 -12 -20 -17 -16
2 13 13 -11 3 29 33 2 32 37 -13 10 14 39 -1 17 -20 19 9 -7 10 -20 -20 -20 -20 -20 -20 -20 -20 -20 -20 -20 -20 -20 -20 -20 3 -20 -19 -10 -5 -6 -15
4 2 -6 7 11 4 -3 -3 -18 4 -7 -2 4 20 32 8 -8 18 25 2 -17 -20 -20 -20 -20 -20 -20 -20 -20 -20 -20 -20 -20 -20 -20 -20 -1 -2 -1 -1 -6 -11 -20
-5 9 -8 -18 14 18 5 2 12 -7 -20 -20 22 33 39 25 7 2 7 -11 -20 -20 -20 -20 -20 -20 -20 -20 -20 -20 -20 -20 -20 -20 -20 -20 2 -20 -20 -20 -20 -20 -20
-1 -7 -12 -15 5 -9 16 14 5 -20 -20 -8 20 33 39 29 9 6 17 -10 -20 -20 -20 -20 -20 -20 -20 -20 -20 -20 -20 -20 -20 -20 -20 -3 -20 -20 -20 -20 -20 -20 -20
5 -13 -1 -20 -13 5 13 26 15 -20 -20 16 22 34 27 37 30 15 12 -10 -20 -20 -20 -20 -20 -20 -20 -20 -20 -20 -20 -20 -20 -20 -20 -20 -20 -20 -20 -20 -20 -20 -20
14 10 2 7 8 -4 -0 -2 6 0 1 9 32 44 36 36 23 9 -2 7 -19 -20 -20 -20 -20 -20 -20 -20 -20 -20 -20 -20 -20 -20 -20 -20 -1 -20 -20 -20 -20 -20 -20
2 12 17 11 8 12 11 8 -7 3 -4 13 37 28 36 19 24 17 11 4 -5 -11 -20 -20 -20 -20 -20 -20 -20 -20 -20 -20 -20 -20 -20 -20 -20 -6 -20 -20 -20 -20 -20
6 -10 6 6 1 -11 3 16 4 -2 27 30 35 32 29 30 29 23 12 10 2 -12 -8 -20 -20 -20 -20 -20 -20 -20 -20 -20 -20 -20 -20 -20 -20 -20 -20 -20 -20 -20 -20
-14 5 -6 13 8 -20 2 -3 -3 10 23 30 34 36 34 25 31 24 9 3 -3 -0 -3 -18 -20 -20 -20 -20 -20 -20 -20 -20 -20 -20 -20 -20 -20 -20 -20 -20 -20 -20 -20
-9 7 4 13 2 -3 1 16 7 -13 28 19 35 30 33 31 6 12 14 1 17 19 14 -4 6 -20 -20 -20 -20 -20 -20 -20 -20 -20 -20 -20 -20 -20 -20 -20 -20 -20 -20
-20 6 9 10 -15 -15 21 6 30 17 -1 2 26 25 -4 -4 19 22 20 20 22 23 18 12 -9 -20 -20 -20 -20 -20 -20 -20 -20 -20 -20 -20 -20 -20 -20 -20 -20 -20 -20
-20 -0 15 3 -20 7 10 9 17 10 28 20 25 28 22 23 25 27 27 25 20 -20 -20 19 -7 -20 -20 -20 -20 -20 -20 -20 -20 -20 -20 -20 -20 -20 -20 -20 -20 -20 -20
-14 3 4 -10 -9 3 5 11 21 21 23 15 17 19 18 18 17 13 -2 6 -13 -20 -4 -5 4 -20 -20 -20 -20 -20 -20 -20 -20 -20 -20 -20 -20 -20 -20 -20 -20 -12 -20
-14 2 8 1 3 3 10 10 11 16 13 13 25 -2 10 11 1 -6 -0 12 1 -20 -15 -17 -18 -20 -20 -17 -20 -20 -15 -20 -20 -20 -20 -20 -20 -20 4 -5 -20 -20 -20
-15 -10 -5 1 -3 4 7 13 10 22 18 4 1 5 -12 2 16 7 -7 -17 7 -1 12 -19 -20 -13 -6 9 13 -15 -11 2 -20 17 -20 -2 22 -10 -17 -11 -20 -20 -20
-20 -20 -20 -0 -0 0 -20 -2 5 2 24 7 -1 -11 16 1 -5 -12 11 21 -19 18 -2 -13 -17 -18 -20 -20 -16 -18 14 6 -12 26 -20 -20 13 -10 -5 4 -20 -20 -20
-20 -20 4 2 3 -3 -1 -20 -4 5 3 13 6 -1 3 -8 14 24 -5 -2 -0 -20 -20 -20 -20 -20 -20 -19 -20 -20 -20 -6 30 -11 15 22 -20 -20 -20 -20 -20 -20 -20
-20 -14 -20 -20 -10 7 -12 -20 -20 -14 -18 4 21 14 6 -18 1 -6 10 -7 9 -7 -9 -20 -20 -20 -20 4 28 29 -20 -20 19 3 -17 -9 20 -14 16 18 -14 -20 -20

GFSSE_prec_radar_084.txt.gz
Reflectivity
-20 -20 -20 -20 -20 -20 -20 -12 -12 -20 -20 -20 -20 -20 -20 -20 -20 -20 -20 -20 -20 -20 -20 -20 -1 -10 -20 -20 -20 -20 -20 -20 -20 -20 5 12 7 7 -20 -20 7 -6 -20
-20 -20 -20 -20 -20 -20 -20 -20 -20 -20 -20 -10 -20 -20 -20 -20 -20 -20 -20 -20 -20 -20 3 4 3 -8 -6 -20 -20 -20 -20 -20 -20 -20 -6 14 16 4 4 13 17 -1 -20
-20 -20 -20 -20 -20 -20 -20 -1 5 -1 -2 -6 -20 -20 -20 -20 -20 -20 -20 -20 5 -16 -1 3 9 18 -7 -20 -20 -20 -20 -20 -20 -20 -20 3 12 15 11 -2 -20 4 14
-20 -20 -20 -20 -20 -20 -20 -20 -20 -7 7 -20 -20 -20 3 -16 -20 -2 -20 -20 -20 3 9 3 11 10 -20 -20 -20 -20 -20 -20 -20 -17 -20 -12 8 14 12 14 15 11 14
-20 -20 -20 -20 -20 -20 -20 -20 -20 -20 -20 -13 -20 -20 -20 7 -20 -20 -20 -20 -14 3 2 10 15 -6 -20 -20 -20 -0 -20 -12 -20 -20 -20 -20 -11 11 16 15 17 9 -20
-20 -20 -20 -20 -20 -20 -20 -20 -20 -20 -17 -9 -20 -20 6 4 -20 -20 -20 -20 -11 22 9 -3 -1 -20 -20 -20 -20 -20 -20 -20 -20 -20 -20 -3 6 14 14 7 0 -16 -2
-20 -20 -17 -20 -20 -20 -17 -11 25 1 37 36 38 30 8 -20 -20 -13 -20 -20 23 20 -4 4 8 -20 -20 -20 -20 -20 -20 -20 -10 -20 -20 -20 11 17 7 12 -2 -20 -20
-20 -20 -20 -13 -20 -20 -20 -17 -16 18 38 35 43 43 31 7 -20 -19 3 -8 19 -18 -18 -10 -18 -20 -20 -20 -20 -20 -20 -20 -20 -20 -20 -2 16 18 -5 2 -20 -20 -20
-20 -20 -2 6 -20 -15 -20 -10 -20 -16 19 38 36 37 38 33 -11 -20 21 29 -1 10 -20 -20 -20 0 6 -20 -20 -20 -20 -20 -20 -20 -20 -2 20 12 0 -16 -20 -20 -20
-20 -10 10 7 -20 -20 -20 -20 -20 -4 13 12 36 44 34 29 37 30 26 29 -19 -9 -20 -9 6 -20 -20 -20 -20 -20 -20 -20 -20 -20 -20 -8 16 2 -1 -20 -20 -20 -20
-18 6 -20 11 -20 -20 -20 -20 -20 -20 -10 20 34 40 31 -18 32 35 0 -20 14 17 -19 -20 -20 5 -15 -20 -20 -20 -20 -20 -20 -20 -20 3 17 3 -2 -19 -20 -20 -20
-20 -15 6 -1 3 -20 -20 -20 -20 -20 4 19 38 35 33 25 24 36 24 -20 -19 -20 -20 -20 -17 4 -20 -20 -20 -20 -20 -20 -20 -20 -20 2 -2 -20 -7 -18 -20 -6 -20
-20 -6 -10 -20 -12 6 -20 -20 7 8 -19 -12 12 29 30 24 20 34 36 28 -20 -3 -19 -20 -19 -19 -20 -20 -20 -20 -20 -20 -20 -20 -20 -2 -1 -10 1 -6 -11 -20 -20
-20 -20 1 -20 -9 17 11 -20 8 20 27 11 -13 -20 -2 -19 25 29 30 33 -1 -20 -8 -18 -11 3 -20 -20 -20 -20 -20 -20 -20 -20 -20 -20 -3 -18 -20 -20 -8 -20 -20
-20 -20 -20 -9 -20 -20 -20 -20 -20 -19 10 19 17 -5 -20 -20 -4 6 20 34 22 5 -11 -20 -3 -14 -20 -20 -20 -20 -20 -20 -20 -20 -20 -20 -20 -1 -16 -20 -20 -20 -20
-20 -20 -20 -2 -20 -20 -20 -20 -20 -16 20 14 34 -10 -15 -20 -20 18 32 33 23 -5 -0 -20 -20 -20 -20 -20 -20 -20 -20 -20 -20 -20 -20 -20 -20 -20 -4 -20 -20 -20 -20
-20 -20 -20 -20 -7 -15 10 -18 -12 -8 -20 15 15 18 -20 -9 -10 21 21 22 12 11 2 -20 -20 -20 -20 -20 -20 -20 -20 -20 -20 -20 -20 -20 -20 -20 -20 -20 -20 -20 -20
-20 -20 -20 -20 -19 10 -12 -15 -20 -20 -16 -20 -1 27 -15 -17 -20 -20 25 31 26 12 4 -8 4 -13 -20 -20 -20 -20 -20 -10 -20 -20 -20 -20 -20 -20 -3 -20 -20 -20 -20
-20 -20 -20 -20 -8 -14 -13 -7 -7 -10 -17 -9 -6 7 5 -2 1 4 -2 27 33 -18 -2 27 6 -11 -20 -20 -12 -20 -20 -20 -20 -18 -20 -20 -20 -20 -20 -20 -20 -20 -20
-20 -20 -20 -20 -6 14 10 -15 -12 5 -7 9 18 23 22 8 28 32 34 29 24 23 8 7 12 6 -20 -14 7 -13 -15 -20 -20 -20 -20 -20 -20 -20 -20 -20 -20 -20 -20
-20 -20 -20 -20 -6 7 9 14 -7 -8 5 7 14 27 30 30 29 32 37 31 19 12 -16 -17 11 9 8 12 12 29 16 -5 -10 -20 -20 -20 -20 -20 -20 -20 -20 -20 -20
-20 -20 -20 -15 -1 -7 -19 -20 -18 -20 -7 -11 23 16 14 25 26 29 27 21 26 28 25 3 5 7 8 -1 -2 -9 -20 -20 -20 -20 -20 -20 -20 -20 -20 -20 -20 -20 -20
-20 -20 -20 -20 1 -10 -15 -20 -12 -18 14 -11 -20 -11 9 17 4 -12 -6 3 7 4 -9 -20 -20 -20 -20 -17 -20 -20 -15 -12 -20 -20 -20 -20 -20 -20 -20 -20 -20 -20 -20
-20 -20 -20 -20 -12 -20 -4 -20 15 -3 -20 -20 -20 -11 11 -4 5 7 5 4 3 -12 -17 -20 -20 -20 -20 -20 -20 1 -2 6 21 -8 -20 -20 -20 -20 -20 -20 5 -20 -20
-20 -20 -20 -14 -9 2 8 -20 -20 -20 -20 -20 -15 -16 -6 -20 -20 -19 -16 -20 -20 -20 -20 -20 -20 -20 19 -5 -4 -5 1 27 29 19 -8 -8 23 -20 -16 -20 -20 -20 1
-20 -20 -20 -20 -5 1 -9 -5 -20 -20 -13 -20 -20 -12 -19 -17 -15 -20 11 -20 -20 -20 -14 -20 -14 -14 14 -19 25 4 -7 -5 -8 -16 -20 -20 -20 -20 -20 -20 -11 -12 -20

GFSSE_prec_radar_087.txt.gz
Reflectivity
-20 -20 -20 -20 -20 -20 -20 -20 -20 -20 -20 -20 -20 -20 -20 -20 -20 -20 -20 -20 -20 -20 -20 -20 -20 -4 -20 -20 -20 -20 -20 -20 -20 -18 -1 14 2 7 -13 -18 -19 7 -9
-20 -20 -20 -20 -20 -20 -20 -20 -20 -20 -20 -20 -20 -20 -20 -20 -20 -20 -20 -20 -20 -20 -20 -20 -20 9 -13 -20 -20 -20 -20 -20 8 8 -2 16 16 12 15 12 -18 4 -19
-20 -20 -20 -20 -20 -20 -20 -20 -20 -20 -20 -20 -20 -20 -20 -20 -20 -20 -20 -20 -20 -6 3 -9 -15 16 0 -20 -20 -20 -20 -20 -20 5 -8 -16 -12 11 9 -16 2 13 5
-20 -20 -20 -20 -20 -20 -20 -20 -20 -20 -20 -20 -20 -20 -20 -20 -20 -20 -20 -20 -20 2 11 11 17 13 -20 -20 -20 -20 -20 -20 -20 3 -2 -18 5 12 7 14 13 19 15
-20 -20 -20 -20 -20 -20 -20 -20 -20 -20 -16 -20 -20 -20 -20 -20 -20 -20 -20 -20 -20 -20 12 14 15 -15 -20 -20 -20 -20 -20 -20 -20 -20 -20 -18 -6 16 14 5 16 -11 10
-20 -20 -20 -20 -20 -20 -20 -20 -20 -20 -20 36 35 34 -17 -20 -20 -20 -20 -20 -20 -19 13 6 -20 -20 -20 -20 -20 -20 -20 -20 -20 -20 -20 1 -3 9 15 12 -20 -6 0
-20 -20 -20 -20 -20 -20 -20 -20 -20 9 -20 -7 21 19 41 12 16 -20 15 -14 8 -20 -20 -20 -20 -20 -20 -20 -20 -20 -20 -20 -20 -20 -20 7 3 17 18 16 7 13 10
-20 -20 -20 -20 -20 -20 -20 -20 -20 -20 -20 -5 32 33 46 41 32 -20 6 -10 -20 -20 -20 -20 -20 -20 -20 8 -19 -20 -20 -20 -20 -20 -20 10 13 17 21 17 -5 3 -2
-20 -20 -9 -20 -20 -20 -20 -20 -20 -20 -20 1 3 20 36 47 37 1 -16 -12 -1 -20 -20 -20 -20 -20 -6 -12 -20 -20 -20 -20 -20 -20 -20 6 16 18 16 18 14 -1 -1
-20 -20 7 7 -5 -20 -20 -20 -20 -20 -20 4 -0 21 35 30 35 36 -15 30 -2 -8 -20 -19 -2 -20 -6 -9 12 -20 -17 -20 -20 -20 -20 3 17 17 16 -4 -3 -2 -20
-20 -20 -20 10 -0 -20 -20 -20 -20 -20 -20 -20 -2 8 32 39 36 32 -1 13 3 21 15 4 7 -20 -19 7 -20 -20 -20 -20 -20 -20 -20 9 19 12 14 4 -1 -20 -20
-20 -20 -20 9 3 -20 -20 -20 -20 -20 -20 -20 -4 8 15 29 35 36 32 -19 -20 -17 -6 -20 -20 -20 -17 -9 -20 -20 -2 -20 -20 -20 -20 17 14 -5 0 1 -1 -20 -20
-20 -20 -20 -11 -12 4 -12 -20 -20 -20 -20 -20 -3 31 46 36 28 -12 22 27 -18 -20 -20 -20 -20 -20 -20 -20 -11 -1 1 -20 -20 -20 -20 -3 -0 -15 1 -1 -20 -20 -20
-20 -20 -20 -20 -20 -18 -20 -19 -20 -20 -20 -20 -6 11 38 35 25 -20 19 28 -20 -20 -20 -20 -20 -20 -20 -20 -14 -19 -20 -20 -20 -20 -20 -20 -8 -5 -5 -20 -20 -20 -20
-20 -20 -20 -20 -20 -9 -20 -20 -20 -20 -20 -20 -20 -5 16 8 9 -9 -10 13 17 -17 -20 -20 -20 -20 -20 -20 3 -20 -20 -20 -20 -20 -20 -20 -12 -20 -15 -20 -20 -20 -20
-20 -20 -20 -20 -20 -20 -20 -20 -20 -20 -20 -20 -20 1 -13 -5 -20 -17 -6 -20 -20 -2 -20 -20 -20 -20 -20 -15 -6 -20 -20 -20 -20 -20 -20 -20 -20 -20 -20 -20 -20 -20 -20
-20 -20 -20 -20 -20 -20 -20 -20 -20 -20 -20 -20 11 -18 -17 -20 19 -13 -4 -20 -20 18 -20 -20 -20 -20 -20 -3 -13 -20 -20 -20 -20 -20 -20 -20 -20 -20 -20 -20 -20 -20 -20
-20 -20 -20 -20 -20 -4 6 -20 -20 -20 -20 -20 12 21 -8 -20 -19 -20 -11 18 7 19 -20 -20 -20 -19 -13 -2 -20 -12 -5 -20 -20 -20 -20 -20 -20 -20 -20 -20 -20 -20 -20
-20 -20 -20 -20 -20 -20 5 -14 -20 -20 -20 -20 -20 14 15 5 18 21 25 12 18 23 -8 -12 -20 -20 -20 -20 -17 -20 -20 -20 -20 -20 -20 -20 -20 -20 -20 -20 -20 -20 -20
-20 -20 -20 -20 -20 -16 -20 -10 -6 -20 -20 -20 -20 -20 17 12 10 14 9 4 21 18 -0 -8 -20 -20 -15 -16 -14 -20 -20 -20 13 -2 -20 -20 -20 -20 -20 -20 -20 -20 -20
-20 -20 -20 -20 -20 -20 3 8 -16 -8 -19 -20 -14 -20 16 13 5 22 32 29 7 22 -6 -19 6 13 -9 8 11 14 7 -17 4 16 12 -14 -20 -20 -20 -20 -20 -20 -20
-20 -20 -20 -20 -20 -19 -20 -3 -20 -20 -13 17 0 15 14 21 23 24 17 26 29 19 -15 -6 11 -14 14 10 6 12 11 -10 8 -11 -0 1 -19 -20 -20 -20 -20 -20 -20
-20 -20 -20 -20 -20 -20 -6 12 -11 -20 -20 4 5 11 13 27 31 35 34 29 31 11 1 -20 -20 -20 -20 -20 -12 -9 -20 -20 -6 -4 4 -12 -10 -6 -20 -20 -20 -20 -20
-20 -20 -20 -20 -20 -20 13 13 -6 -20 -20 -20 -8 -20 -9 -7 2 12 21 29 22 25 25 -13 -17 -14 -20 -10 -20 -20 -9 -5 -18 -11 -20 -20 -20 -20 -20 -20 -20 -20 -20
-20 -20 -20 -20 -20 -20 -19 14 -19 -20 -17 -19 6 -20 -11 15 3 20 21 16 18 24 25 19 -20 -19 -20 -20 -20 -20 -20 -20 -20 -20 -20 -20 -20 -20 -20 -20 -20 -18 -20
-20 -20 -20 -20 -20 -15 -20 1 -17 -20 -20 -20 -20 -20 -9 -10 -3 -20 -4 -14 -12 7 11 -3 -19 -15 -19 -17 -15 -16 -19 -20 -20 14 22 -10 -20 -20 -20 -20 -20 -20 -20

GFSSE_prec_radar_090.txt.gz
Reflectivity
-20 -3 -20 -20 -20 -20 -20 -20 -20 -20 -20 -20 -20 -20 -20 -20 -20 -20 -20 -20 -20 -20 -20 -20 -20 -20 -14 -12 -20 -20 -20 -5 5 4 14 16 8 9 -5 -20 -2 -4 -13
-20 -20 -20 -20 -20 -20 -20 -20 -20 -20 -20 -20 -20 -20 -20 -20 -20 -20 -20 -20 -20 -19 -7 -20 -4 -3 0 -2 -19 -20 -20 -5 -18 11 15 10 9 -2 8 -20 -17 -19 -20
-20 -20 -20 -20 -20 -20 -20 -20 -20 -20 -20 -20 -20 -20 -20 -20 -20 -20 -20 -20 -20 1 3 1 12 16 11 -5 -20 -20 -20 -20 -20 -15 -11 -12 9 5 4 5 9 -20 8
-20 -20 -20 -20 -20 -20 -20 -20 -20 -20 4 -20 -20 -20 -20 -20 -20 -20 -20 -20 -20 -20 1 -13 16 17 6 -20 -20 -20 -20 -11 10 -17 -20 6 -20 9 18 10 9 8 13
-20 -20 -20 -20 -20 -20 -20 -20 -20 -20 -20 -20 -20 -20 -20 -20 -20 -20 -20 -20 -20 -20 -16 3 12 8 -20 -20 -20 -20 -20 -20 -17 -20 -20 2 8 14 6 11 13 10 13
-20 -20 -20 -20 -20 -20 -20 -20 -20 -20 -20 -20 -20 -20 -20 -20 -20 -20 -20 -20 -20 -20 -16 5 7 14 -20 -20 -20 -20 -20 -20 -20 -20 6 9 3 3 17 5 -7 11 18
-20 -20 -20 -20 -20 -20 -20 -20 -20 -20 -20 -20 -19 -20 -19 1 39 20 -6 -19 -11 -9 6 -20 -20 8 -20 -19 -20 -20 -20 -20 -20 -20 -20 -20 -19 7 17 18 15 7 1
-20 -20 -20 -20 -20 -20 -10 -15 -20 -2 -20 -18 -16 17 34 34 31 42 13 -7 -20 -20 -20 -20 -20 -20 -20 -20 -20 -4 -20 -20 -20 -20 -20 -8 10 11 19 12 15 18 17
-20 -20 -20 -15 -20 -20 -20 -16 6 -20 -20 7 21 21 28 23 38 41 37 33 34 19 -20 -20 -20 -20 -20 -20 -1 0 1 -13 -20 -20 -20 4 14 16 -1 18 20 19 8
-20 -20 -20 -20 -11 -20 -20 -20 -20 -20 -20 5 -1 28 2 11 10 32 38 36 31 20 -20 -20 -20 -20 -20 -20 -19 -0 3 -20 -20 -20 -14 7 13 12 20 19 20 12 12
-20 -20 -20 -20 -20 -13 -20 -20 -20 -20 -20 -20 -20 -16 -20 -20 21 43 37 35 -2 26 -6 -20 -20 -20 -20 -20 -17 10 7 14 -20 -20 -20 12 15 -15 6 12 10 -11 -12
-20 -20 -20 -20 -20 -20 -20 -20 -20 -20 -20 -20 -10 26 23 -8 6 42 34 34 -16 1 -6 -20 -20 -20 -20 -20 -4 22 1 -20 -20 -20 -20 16 6 -11 -9 18 -15 -9 -2
-20 -20 -20 -20 -10 -16 -20 -20 -20 -20 -20 -20 -19 -3 23 8 30 34 37 31 -20 -19 -20 -13 -20 -20 3 13 6 4 -5 -20 -20 -20 -17 14 15 13 19 -19 -5 -1 -2
-20 -20 -20 -20 -20 7 -20 -20 -20 -20 -20 -20 -17 1 25 24 33 41 34 32 1 -20 -20 -20 -20 -11 -20 -20 -20 -20 -20 -20 -20 -20 -12 15 -0 -0 -3 -0 -3 -20 -12
-20 -20 -20 -20 -20 -20 8 -20 -20 -20 11 -20 -15 2 35 34 32 32 27 14 4 -20 -20 -20 -20 -20 -20 -20 -20 -20 -19 -10 -20 -20 -20 -8 -1 -14 -10 -20 -10 -20 -20
-20 -20 -20 -20 -20 -20 -20 -20 -13 -20 -20 -1 -20 -4 9 24 19 14 -5 -20 6 -5 -18 -20 -20 -20 -20 -20 -20 -20 -20 2 -20 -20 -20 -20 -20 -17 -20 -20 -4 -9 -20
-20 -20 -20 -20 -20 -20 -20 -20 -20 -20 -20 7 -20 -3 1 6 6 1 -16 -20 -20 -20 -20 -20 -20 -20 -20 -20 -20 -20 -15 4 -20 -20 -20 -20 -20 -20 -20 -20 -20 -20 -20
-20 -20 -20 -20 -20 -20 -20 -20 -16 -20 -20 -8 -1 -2 -20 -14 -9 4 -12 21 -17 -10 -20 -20 -20 -20 -20 -20 -20 -20 -13 4 -1 -20 -20 -20 -20 -20 -20 -20 -20 -20 -20
-20 -20 -20 -20 -20 -20 -20 -20 -13 -17 -20 -20 19 16 4 5 -20 -16 27 -13 -9 -20 -16 -6 -20 -18 -18 -20 -20 -20 -16 -14 -0 11 -19 -20 -20 -20 -20 -20 -20 -20 -20
-20 -20 -20 -20 -20 -20 -20 -20 -20 -20 -20 -20 -19 17 15 9 26 7 -5 -12 12 13 -11 -3 -20 -20 -20 -20 -19 -1 -10 -6 -18 -7 8 -19 -9 -10 -20 -20 -20 -20 -20
-20 -20 -20 -20 -20 -20 -20 -20 -20 -20 -20 -20 -20 -20 18 33 27 31 9 35 16 17 12 -11 -9 -20 -3 -20 -2 -8 -20 -20 -19 7 12 -6 13 5 -10 -20 -20 -20 -20
-20 -20 -20 -20 -20 -20 -20 -20 -20 -20 -17 -20 -20 -20 1 10 18 8 9 5 26 23 11 14 0 -19 5 -5 -18 6 4 12 -20 -19 3 7 -2 6 -14 -20 -20 -20 -20
-20 -20 -20 -20 -20 -20 -20 -20 -15 -20 -13 -19 -20 -20 -12 -2 18 21 21 28 17 27 18 25 1 15 16 7 4 -20 -20 -20 2 -14 -20 -20 -20 -20 -15 -14 -15 -20 -20
-20 -20 -20 -20 -20 -20 -20 -20 -20 -20 -20 -20 -20 -6 18 15 14 9 27 25 27 32 26 17 9 10 9 -12 -16 -20 -16 -0 -5 -20 -18 -8 -1 1 1 -9 -20 -20 -20
-20 -20 -20 -20 -20 -20 -20 -20 -20 4 -20 -9 -3 -20 -1 9 23 28 24 33 36 34 28 14 -12 8 4 14 -7 -12 -19 -20 -20 -20 -20 -20 -4 11 -14 -20 -20 -20 -20
-20 -20 -20 -20 -20 -20 -20 -18 -20 -11 -20 -20 -11 -20 -12 -4 20 18 30 25 26 28 23 15 29 15 7 -10 -20 -20 -20 -1 -18 5 -16 -19 -6 -14 -20 -20 -18 -20 -20

GFSSE_prec_radar_093.txt.gz
Reflectivity
-20 -20 -20 -20 -20 -20 -20 -20 -20 -20 -20 -20 -20 -20 -20 -20 -20 -20 -20 -20 -20 -20 -20 -20 -20 -20 -3 -20 -20 -20 4 -20 -20 -14 16 12 -3 17 -11 -20 -20 -17 -9
-20 -20 -20 -20 -20 -20 -20 -20 -20 -20 -20 -20 -20 -20 -20 -20 -20 -20 -20 -20 -20 -20 -20 -20 -20 11 3 -4 -20 -11 -11 -20 -20 -11 29 9 2 -13 -5 -6 -20 -19 -10
-20 -20 -20 -20 -20 -20 -20 -20 -20 -20 -20 -20 -20 -20 -20 -20 -20 -20 -20 -18 -6 -19 -18 -20 -20 10 14 -2 -20 -20 -20 -5 -20 -20 -20 -20 3 -7 -20 -18 -20 -2 12
-20 -20 -20 -20 -20 -20 -20 -20 -20 -20 -20 -20 -20 -20 -20 -20 -20 -20 -20 -20 4 11 10 -13 2 5 12 -7 -20 -20 -20 -20 -20 -20 -20 -20 3 -1 2 8 11 -7 12
-20 -20 -20 -20 -20 -20 -20 -20 -20 -20 -1 -20 0 -19 -20 -20 -20 -20 -20 -20 7 11 10 9 -19 7 9 -20 -20 -20 -20 -20 -20 -20 -20 -20 -14 -5 10 9 15 14 13
-20 -20 -20 -20 -20 -20 -20 -20 -20 -20 -20 -9 -20 -20 -17 -8 -18 -20 -7 4 9 -19 -11 10 -20 -20 -20 -20 -20 -20 -20 -20 -20 -20 -20 1 -20 -20 11 12 13 14 14
-20 -20 -20 -20 -20 -20 -20 -20 -20 -20 11 -12 24 36 10 27 -9 9 27 -1 7 -3 15 -20 8 -4 -20 -20 -20 -20 -20 -20 -20 -20 -20 -20 -20 7 18 15 8 14 14
-20 -20 -20 -20 -20 -20 -3 -0 3 -1 -10 -14 -8 -19 -14 26 27 26 23 12 10 12 4 -3 -20 -9 -20 -20 -20 -20 -20 -20 -20 -20 -20 -20 2 12 -9 14 16 18 17
-20 -20 -20 -20 -20 -16 -2 -14 4 11 -20 -20 -12 -20 -15 19 34 41 38 33 34 28 -8 7 1 -20 -20 -20 -20 -20 -20 -20 -20 -20 -20 -7 4 12 9 13 16 5 4
-20 -20 -20 -20 -20 -20 -20 12 -11 -18 33 13 -16 26 1 10 -2 32 16 26 31 33 -17 -19 -15 -20 -20 -20 -20 -20 -20 -20 -19 6 -20 0 8 11 6 16 12 18 16
-20 -20 -20 -20 -20 -20 -20 -13 8 28 -11 -20 -12 -4 -11 6 -11 -19 -20 18 35 34 32 -12 -20 -20 -20 -20 -20 -20 -20 -20 -20 -20 -15 -9 1 9 16 17 18 15 17
-20 -20 -20 -20 -20 -20 -8 12 -16 -4 -20 5 -15 8 -2 -12 -20 16 -20 -18 28 38 33 25 -20 -20 -20 -20 -20 -20 -20 -20 -20 14 5 -11 -20 10 17 19 16 10 15
-20 -20 -20 -20 -20 -20 -20 -12 -15 -20 -20 -20 -20 -20 -11 -4 16 23 6 -3 33 43 32 10 -20 -20 -20 -20 -20 -20 -20 -2 9 -19 -20 -15 15 14 19 5 13 18 16
-20 -20 -20 -20 -20 -20 -18 -20 -20 -20 -20 -20 -20 -16 1 17 29 24 3 24 33 36 -13 -5 -20 -20 -19 -20 -20 -19 -19 -8 -20 0 -20 -8 12 6 18 19 19 17 17
-20 -20 -20 -20 -20 -20 2 -8 -20 -20 -20 -20 -20 -20 13 37 22 34 15 30 33 24 0 -14 -20 -20 -11 9 -13 12 -20 -20 -20 -20 -14 5 12 14 14 20 15 17 7
-20 -20 -20 -20 -20 -20 -20 -4 -20 -20 -20 -20 -20 -20 -2 29 36 34 30 32 32 2 -20 -20 -20 -20 -20 -12 1 -20 -20 -20 -20 -20 -19 -20 -20 1 16 15 11 2 -3
-20 -20 -20 -20 -20 -20 -20 -20 -20 -6 13 -20 -20 -20 14 6 30 35 36 32 28 21 -20 -10 -20 -20 -20 -20 -20 -20 -20 -20 -20 -20 -6 -20 -20 -15 3 4 4 -0 -4
-20 -20 -20 -20 -20 -20 -20 -20 -20 -20 5 -14 -20 1 -13 4 3 14 17 24 11 15 -7 -20 -20 -20 -20 -20 -20 -20 -20 -20 -16 -4 7 -20 -20 -20 -20 -5 0 -3 -19
-20 -20 -20 -20 -20 -20 -20 -20 -20 -20 -20 2 -17 -9 9 3 -0 1 -9 4 -20 -20 -3 -14 -20 -20 -20 -20 -20 -20 -20 -20 -20 -18 0 -5 -20 -20 -20 -20 -20 -18 -20
-20 -20 -20 -20 -20 -20 -20 -20 -20 -20 -20 -2 -11 19 9 14 1 -8 21 20 -7 -20 -19 -11 -15 -20 -20 -20 -20 -12 -20 -20 -20 -20 -18 -2 -5 -1 -20 -20 -20 -20 -12
-20 -20 -20 -20 -20 -20 -20 -20 -20 -20 -20 -20 -20 -20 30 5 6 17 -13 -20 36 14 -20 -15 -18 -10 -15 -20 -20 -20 -20 -20 -20 -20 -20 1 11 -2 9 6 5 -17 -20
-20 -20 -20 -20 -20 4 -20 -20 -20 -20 -20 -20 -20 -20 -20 14 30 17 21 36 24 11 -10 26 7 -20 -18 -20 -8 -1 -0 -20 -20 9 11 5 -20 -20 -5 8 -17 -20 -20
-20 -20 -20 -20 -20 -7 -20 -20 -20 -20 -20 -20 -20 -20 -20 -11 1 8 31 3 20 -20 23 25 24 8 -20 -19 5 5 8 -3 3 7 -20 -20 -20 -20 -16 -20 -13 -20 -20
-20 -20 -20 -20 -20 -18 -20 -20 -20 -20 -20 -20 -20 -20 -20 -9 -3 22 12 14 37 10 14 18 19 17 8 -19 6 15 13 5 12 -20 -20 -20 -20 -20 -20 -20 -20 -20 -20
-20 -20 -20 -20 -20 8 -20 -20 -20 -20 -20 -20 -20 -18 2 -20 1 4 5 26 21 17 19 21 28 3 11 10 13 17 26 6 -7 -20 -12 -12 -20 -13 -8 -20 -20 -20 -20
-20 -20 -20 -15 3 -18 -20 -20 -20 -20 -20 -20 -20 -20 9 -3 7 -3 17 14 22 39 30 31 32 10 26 28 19 28 5 -16 -5 -13 14 20 -4 9 -10 -20 -20 -9 -14

GFSSE_prec_radar_096.txt.gz
Reflectivity
-20 -20 -5 -3 -20 -20 -20 -20 -20 -20 -20 -20 -20 -20 -20 -20 -20 -20 -20 -20 -20 -20 -20 -20 -20 -18 2 0 -12 -20 -11 5 9 11 -17 0 28 7 9 -20 -11 -18 -20
-20 -20 -20 -20 -20 -20 -20 -20 -20 -20 -20 -20 -20 -20 -20 -20 -20 -20 -20 -20 -20 -20 -20 -20 -20 -15 4 -7 -18 -20 -9 -20 -20 -5 17 4 11 6 -20 -20 -20 -20 -20
-20 -20 -20 -20 -17 -20 -20 -20 -20 -20 -20 -11 -20 -20 -1 -20 -20 -20 -20 -20 -20 -20 -19 -20 -15 -18 12 -5 -20 -20 -20 -20 -2 -20 -12 -20 -3 1 2 -20 6 -20 -19
-20 -20 -20 -20 -20 -20 -20 -20 -20 -20 -20 -0 -9 -19 -20 -20 -20 -20 -20 -20 -20 -10 -5 -20 -20 7 9 -12 -20 -20 -20 -20 -20 -20 -20 -20 -20 -20 -20 -20 -10 -14 -6
-20 -20 -20 -20 -20 -20 -20 -20 -20 -20 -20 -20 -20 -20 -20 -20 -20 -20 -16 -20 -20 -14 1 2 -14 21 8 -20 -20 -20 -20 -20 -20 -20 -20 -20 -20 -2 13 9 7 10 2
-20 -20 -20 -20 -20 -20 -20 -20 -20 -20 -20 -12 -20 9 -1 6 5 5 36 17 -19 -20 -20 -17 3 -13 -0 -20 -20 -20 -20 -20 -20 -20 -20 -20 -20 -20 -5 6 12 16 10
-20 -20 -20 -20 -20 -20 -18 -10 -2 -20 -20 -20 8 5 -17 40 36 7 -20 -20 12 23 -8 -9 -20 -12 -20 -20 -20 -20 -20 -20 -20 -20 -20 -20 -20 4 10 11 13 7 13
-20 -20 -20 -20 -20 -20 3 -3 4 16 -20 -20 -20 -10 13 -19 19 39 11 21 21 27 16 4 5 -20 -20 -20 -20 -20 -20 -20 -20 -20 -20 -20 -20 7 20 4 12 10 10
-20 -20 -20 -20 -20 -16 5 -4 -10 -14 2 -9 -20 -20 -20 -20 -20 -13 11 6 34 33 31 4 -1 -20 -20 -20 -19 -20 -20 -20 -20 -20 -20 -20 4 1 18 12 11 13 13
-20 -20 -20 -20 -20 -20 -20 -2 -8 11 -20 -20 15 -17 -20 -1 -20 -20 16 9 27 33 34 19 -18 -20 -20 -20 -11 -3 -20 -20 -20 -20 -20 8 -4 9 16 14 4 13 -19
-20 -20 -20 -20 -20 -20 -20 -12 -1 16 17 18 20 14 -14 -3 -1 -20 -20 -20 -12 -17 30 31 -18 -20 -20 -20 -19 -20 -20 -20 -20 -20 -20 6 6 19 10 -15 8 14 17
-20 -20 -20 -20 -20 -20 -20 -11 13 7 10 -20 -20 -20 -0 -20 -20 -20 -1 -11 14 17 15 35 -17 -20 -20 -20 -20 -20 -20 -20 -20 -20 -20 8 10 15 12 6 17 14 14
-20 -20 -20 -20 -20 -20 -20 -3 10 17 -9 -4 -20 16 18 -20 23 -20 1 -5 28 30 10 37 21 -20 -20 -20 -20 -20 -20 -20 -20 -19 -19 9 11 14 9 13 17 17 16
-20 -20 -20 -8 -20 -20 -20 -15 12 16 1 -10 4 -18 -20 -20 -20 21 21 17 6 26 40 32 4 13 -20 -20 -20 -20 -20 -20 -20 -20 -8 3 11 10 9 13 14 14 12
-20 -20 -20 4 -20 -20 -20 -20 -20 -5 -11 -20 -20 -20 -20 -18 -10 30 23 26 16 25 35 32 21 -20 -20 -20 -20 -20 -20 -20 -20 -20 -4 -10 13 13 19 16 14 11 13
-20 -20 -20 -12 -3 -20 -20 -20 -20 -20 -20 -20 -20 -19 -20 -13 5 32 31 35 19 30 31 35 17 -20 -20 -20 -20 -20 -20 -20 -6 1 -20 -10 11 16 14 15 10 16 4
-20 -20 -20 -20 -20 -20 -20 -20 -20 -20 -20 -20 -20 -20 -20 -20 -1 26 33 30 29 32 32 34 17 -17 -20 -20 -20 -18 14 10 -19 -20 -20 -6 6 12 16 12 13 13 10
-20 -20 -20 -20 -20 -20 -20 -20 -20 -15 -1 -2 -20 -12 -2 -20 -20 5 27 32 34 32 36 30 21 -18 -20 -20 -20 -20 -19 -20 -20 -20 -20 -7 -11 3 2 13 8 10 11
-20 -20 -20 -20 -20 -20 -20 -20 -20 -20 2 12 9 -20 -19 -8 -13 4 7 32 36 30 29 28 18 18 1 -20 -20 -20 -20 -20 -20 -20 -20 -20 -2 4 -8 -5 -0 -10 -11
-20 -20 -20 -20 -20 -20 -20 -20 -20 -20 -20 -7 16 10 -5 3 -5 4 3 3 15 20 14 10 0 -11 1 -15 -20 -20 -20 -20 -20 -20 -20 -20 -20 0 -2 -19 -20 -20 -20
-20 -20 -20 -20 -20 -20 -20 -20 -20 -20 -20 -20 -20 12 13 -0 18 -20 -7 -5 17 7 -8 -20 -20 -20 -18 -20 -20 -20 -20 -20 -20 -20 -20 -20 -20 -20 -15 -20 -20 -20 -3
-20 -20 -20 -20 -20 -20 -20 -20 -6 9 -10 -20 -20 -20 -20 27 7 16 15 -18 14 27 18 3 -20 -20 -20 -15 7 14 -1 -20 -20 -19 -9 -20 -19 2 -19 3 -10 -18 13
-20 -20 -20 -20 -20 -20 -20 -20 -10 -1 -9 -20 -20 -20 -20 -20 19 17 11 -9 27 24 18 12 19 2 -17 -20 -20 -12 -13 -20 14 -7 -13 -20 -20 -20 -18 -11 -2 -6 -10
-20 -20 -20 -20 -20 -12 -20 9 -18 -19 -20 -20 -20 -20 -20 -20 -20 -13 34 21 18 27 35 16 11 6 13 16 5 6 -20 -20 19 0 3 -15 -20 -4 -20 -3 -6 -20 -20
-19 -20 -20 -20 -20 -20 -2 -19 -20 -20 -20 -20 -20 -20 -20 -17 -20 3 7 9 -7 15 27 24 1 -11 5 25 5 -15 15 11 14 16 -2 -8 -14 -20 -18 -13 -20 -20 -20
-20 -20 -20 -20 -20 -20 12 -20 -20 -20 -20 -20 -20 -20 -5 8 -1 4 -10 -5 6 21 23 35 -2 -7 23 26 22 -16 12 16 24 14 -1 -20 -14 -15 -15 -9 -20 -8 -18

GFSSE_prec_radar_099.txt.gz
Reflectivity
-20 -20 -20 -2 -20 -20 -20 -20 -20 -20 -20 -20 -20 -20 -20 -20 -20 -20 -15 -20 -2 4 4 -20 -17 -3 8 4 -6 -12 4 -20 1 11 4 -2 4 -1 -9 -20 -3 -14 -20
-20 -20 -11 13 -13 -20 -20 -20 -20 -20 -20 -20 -20 -20 -20 -20 -20 -20 -20 -20 -7 6 5 3 -20 -20 -0 -19 -18 -20 -18 -20 -20 -8 -18 10 9 1 1 -18 7 -7 -20
-20 -20 -20 3 -15 -20 -20 -20 -20 -20 -20 -20 -20 -20 -20 -5 -20 -20 -7 -20 2 8 9 6 -11 -8 0 -18 -20 -20 -20 -20 -20 -20 -5 7 6 -1 -15 -20 -20 -20 -4
-20 -20 -20 -20 -20 -20 -20 -20 -20 -20 -20 -20 -20 -20 -20 11 -18 3 -20 -20 -11 2 3 -7 -2 -14 8 -13 -20 -20 -20 -20 -20 -20 -10 3 -9 -20 -20 -20 -20 -13 1
-20 -20 -20 -20 -20 -20 -20 -20 -20 -20 -20 -17 -8 -20 -20 11 10 -12 -20 -20 -20 27 -20 -3 5 -9 -9 -20 -20 -20 -20 -20 -20 -20 -20 -20 -20 -3 -20 -20 -16 -14 -13
-20 -20 -20 -20 -20 -9 -20 -20 -20 -20 -20 -17 -3 -20 -1 -2 -14 39 -7 38 -18 -20 -20 -20 5 -20 -20 -20 -20 -20 -20 -20 -20 -20 -20 -20 -19 4 -20 4 -20 -20 9
-20 -20 -20 -20 -20 -2 -3 -20 -20 -20 -20 -1 2 -20 -19 6 36 -6 29 38 31 -13 -19 -12 -9 -20 -20 -20 -20 -20 -20 -20 -20 -20 -20 -20 -20 -7 -5 -20 8 -6 -15
-20 -20 -20 -20 -20 -14 -2 -9 -20 -20 -20 -20 0 7 -14 -12 -14 26 15 36 21 16 20 21 12 13 -20 -20 -20 -20 -20 -20 -20 -20 -20 -20 -20 2 6 9 7 1 -9
-20 -20 -20 -11 -20 -20 -20 -20 -20 -20 -20 -20 -20 -8 -20 -20 -20 -20 -19 -19 -18 4 29 25 36 16 -20 -20 -20 -20 -20 -20 -20 -20 -20 -20 5 11 4 8 8 9 4
-20 -20 -20 -20 -0 3 2 -20 -20 -20 -20 -20 -20 -20 -20 -20 -20 -1 8 -20 -18 18 -12 23 36 30 6 -20 -20 -20 -20 -20 -2 -20 -20 -20 3 7 -3 14 -4 11 10
-20 -20 -20 -20 -20 -6 5 1 -2 -11 9 2 -20 -20 -20 -20 -20 -20 -20 -20 -20 -19 -19 12 34 32 8 -20 -19 -20 -20 -20 -20 -20 -20 -20 11 9 12 13 2 10 4
-20 -20 -20 -20 -20 -20 -20 -16 -16 -5 7 3 -7 -19 -20 -20 -20 -20 -20 -20 -20 28 30 25 34 29 6 -1 15 -20 -7 -20 -20 -20 -14 -20 12 -10 14 8 3 -8 11
-20 -20 -20 -20 -20 -20 -20 -20 -14 -5 17 15 12 -16 -16 -20 11 -11 -20 -20 -20 16 29 32 31 -1 -2 -19 -20 -6 -20 -20 -20 -20 -5 8 -20 11 4 10 5 7 -4
-20 -20 -20 -20 -20 -20 -20 -19 -20 6 2 -14 7 4 7 3 -7 -2 -2 -18 -20 28 26 28 29 -3 27 -20 -20 -20 -20 -20 -20 -20 -18 11 -20 16 14 10 12 -7 4
-20 -20 -20 -20 -20 -20 -20 -20 -20 -6 9 -4 -11 10 -20 -7 -20 -3 5 -1 -10 13 24 22 30 16 -2 -20 -20 -20 -20 -20 -20 -13 -8 5 -0 15 6 15 13 12 8
-20 -20 -20 -20 -20 -20 -20 -20 -20 -17 -5 -4 3 -8 -11 -20 -8 -20 6 -2 23 21 20 24 31 31 12 -16 -20 -20 -20 -20 -20 -20 -20 -20 5 13 12 10 9 14 9
-20 -20 -20 -20 -5 -20 -20 -20 -20 -20 -20 -17 -20 -19 -17 -2 3 1 -3 10 29 24 17 15 36 32 -17 -20 -20 -20 -20 -20 -20 -20 -20 -20 8 10 10 -14 2 9 7
-20 -20 -20 -20 -20 8 -20 -20 -20 -20 -20 -20 -7 -20 -1 9 3 4 6 8 29 30 17 25 31 30 11 -20 -20 -20 -20 -20 -20 -20 10 -20 4 3 13 -16 -6 7 13
-20 -20 -20 -20 -20 -17 -20 -20 -20 -20 -9 -20 -8 -10 -9 -17 8 0 15 9 31 22 25 33 33 33 15 -20 -20 -20 -20 -20 -20 -20 -14 -20 -9 -4 9 6 10 3 9
-20 -20 -20 -20 -20 -20 -20 -20 -20 -20 -16 9 0 -9 6 5 -18 5 3 -9 21 35 19 30 33 32 26 3 -20 -20 -20 -20 -20 -20 -20 -20 1 -1 -6 4 1 -16 -20
-20 -20 -20 -20 -20 -20 -20 -20 -20 -20 -20 -6 -20 -20 -10 2 -12 -17 -2 -5 1 26 34 30 31 32 32 17 -13 -0 -5 -20 -20 -20 -20 -20 -20 -13 -20 5 -20 -15 -20
-20 -20 -20 -20 -20 -20 -20 -20 -20 -20 -20 -20 -19 -20 8 15 14 22 -19 22 -8 8 25 22 21 22 11 12 3 -17 -1 -2 3 -20 -20 -20 -0 -9 -20 -5 -4 3 -13
-20 -20 -20 -20 -20 -20 -20 -20 -20 -20 -20 -11 -16 -20 -8 3 8 15 28 -6 31 18 4 24 15 6 -5 -19 -14 -20 4 3 4 -0 0 -20 -19 -20 -20 -20 -20 -20 -20
-20 -20 -20 -20 -20 -20 -20 -20 -20 -20 -20 -20 -20 -20 -20 -20 -20 27 14 22 -5 24 6 25 5 -15 6 -17 -20 -20 -20 -18 14 6 -9 -20 -3 -20 -20 -20 -20 -20 -20
-20 -20 -20 -20 -20 -20 -20 -20 -20 -20 -20 -20 -20 -20 -20 -20 -20 4 18 19 -0 20 9 28 32 8 11 5 -20 -13 -9 -6 -13 -19 -19 -20 5 9 3 -20 -20 -20 -19
-20 -20 -20 -20 -20 -20 -20 -20 -20 -20 -20 -20 -20 -20 -20 -20 -20 6 5 -11 -11 22 27 12 21 19 4 -18 -12 9 7 21 3 17 7 8 14 13 -19 -20 -13 5 -11

GFSSE_prec_radar_105.txt.gz
Reflectivity
-20 -20 -20 -20 -20 -20 -20 -20 -20 -20 -20 -20 -20 -20 -20 -20 -20 -20 -20 -20 -20 -20 -20 -20 -20 -20 -20 -20 -20 -20 -20 -20 -20 -20 -20 -6 -20 -20 -20 -20 -6 2 -20
-20 -20 -20 -20 -20 -20 -20 -20 -20 -20 -20 -20 -20 -5 -20 -20 -20 -20 -20 -20 -20 -20 13 -9 -20 4 7 -20 -20 -20 -20 -20 -20 -20 -20 -19 -20 -20 -20 29 -5 -5 -19
-20 -20 -20 -20 -20 -20 -20 -20 -20 -20 -20 -20 -20 -6 -20 -20 -16 -20 -8 -20 -20 11 6 4 -17 1 -8 -20 25 -20 -20 -20 -20 -20 -15 8 5 -8 -20 -20 -20 -20 -20
-20 -20 -20 -20 -20 -20 -20 -20 -20 -20 -20 -20 -20 -7 -20 -20 -20 -9 -20 -9 -9 -20 1 -4 -16 -20 -12 -20 -20 -20 -20 -20 -20 -14 2 30 3 -4 -20 -20 -11 -20 -20
-20 -20 -20 -20 -20 -20 -20 -20 -20 -20 -20 -20 -20 -20 -20 -20 -18 -20 -20 -16 -20 -20 -14 3 1 -16 -20 -20 -20 -20 -20 17 16 -15 -1 11 5 4 -3 8 -20 -12 -7
-20 -20 -20 -20 -20 -20 -20 -20 -20 -20 -20 -20 -20 -4 -20 -20 -20 -20 -20 -20 -20 -11 -1 12 31 33 -13 -20 -20 -20 -20 -20 -20 -20 -20 -6 28 2 -3 7 -19 -20 -20
-20 -20 -20 -20 -20 -20 -20 -20 -20 -20 -20 0 1 2 -2 -20 -20 8 -20 -20 -20 -20 -20 1 12 -2 -20 -20 -17 -0 -20 -11 -20 16 -7 -20 8 14 -11 -20 -20 -20 -20
-20 -20 -20 -18 -20 -20 -20 -20 -20 -20 -20 1 8 -1 -19 -13 -17 -20 -20 -20 -20 -20 -20 0 -1 11 -12 -14 -19 2 6 -13 4 31 -20 -20 -20 -20 -20 -7 -7 -20 -20
-20 -20 -20 -20 -16 -20 -20 -20 -20 -20 -20 -20 -13 -20 -20 -20 -20 -20 -20 -20 -20 -20 -20 8 11 1 25 -0 -18 -18 -20 -20 -20 26 -20 -13 -20 -11 -10 9 8 -6 -16
-20 -20 -20 -20 -20 -20 -20 -20 -20 -20 -20 -20 -20 -20 -20 -20 -20 -20 -16 -20 -20 -20 -20 -20 -1 15 33 32 31 6 -18 -18 -20 13 -17 -20 -20 -18 15 14 13 -20 -20
-20 -20 -20 -20 -20 -20 -20 -18 -20 -20 -20 -20 -20 -20 -20 -20 -20 -20 -20 -20 -20 -20 -20 -17 -20 3 33 31 32 27 3 -20 -18 -18 -20 -12 -20 15 8 1 3 -16 -20
-20 -20 -20 -20 -20 -20 -20 3 -2 -11 -12 -17 -20 -18 -15 -20 -7 -5 -20 -20 -20 -20 -20 -20 -20 -19 25 24 29 31 -0 7 -20 5 -10 -17 5 -0 -14 -17 -20 -20 -20
-20 -20 -20 -20 -20 -20 -20 -3 -11 5 2 12 5 19 20 -0 -8 -3 24 -20 -20 -20 13 -20 -20 -20 -20 24 28 6 13 -19 12 -10 -20 -20 -20 -20 -19 -17 -20 -6 -18
-20 -20 -20 -20 -20 -20 -20 -14 -12 -7 6 7 7 -4 26 -11 25 20 23 4 23 -15 20 17 11 -20 27 29 29 29 -20 -9 1 -12 -20 -20 -20 -15 -18 -20 -17 -20 6
-20 -20 -20 -20 -20 -20 -20 -20 -20 -20 3 0 9 3 -6 1 1 24 10 15 17 23 10 19 4 -17 25 25 33 32 -20 -19 10 -20 -20 -20 5 -13 -15 -6 8 -19 8
-20 -20 -20 -20 -20 -20 -20 -20 -20 -20 -20 4 3 5 1 14 8 17 8 2 -20 6 23 18 -2 -10 28 29 35 17 -20 -20 -16 -20 -20 -20 13 -4 -20 12 11 -5 6
-20 -20 -20 -20 -20 -20 -20 -20 -20 -20 -20 4 -20 1 10 2 16 6 -4 -13 -19 24 3 23 9 24 33 45 30 31 21 -17 -20 -20 -20 -20 1 -14 -20 10 13 9 -19
-20 -20 -20 -20 -20 -20 -20 -20 -20 -20 -20 -4 -4 9 11 3 2 17 8 2 17 23 17 9 -20 -2 34 37 34 4 -8 -20 -20 -20 -20 -0 -19 -11 -2 9 -10 -10 -20
-20 -20 -20 -20 -20 -20 -20 -20 -20 -20 -20 -20 -20 -9 4 -11 -4 20 10 2 20 20 3 -3 12 1 22 34 36 27 -20 -20 -20 -20 -20 -20 -19 -14 -20 -20 -7 -20 -20
-20 -20 -20 -20 -20 -20 -20 -20 -20 -20 -20 -20 -20 -5 -1 8 11 26 4 10 6 6 7 -4 -14 25 33 32 33 26 -13 2 -20 -20 -20 -20 -20 -3 -13 -17 -20 -20 -20
-20 -20 -20 -20 -20 -20 -20 -20 -20 -20 -20 -20 -20 -4 6 7 12 -0 8 -4 -20 -20 -20 0 9 34 30 32 30 31 23 -18 -20 -20 -20 -20 -20 -15 -20 -20 1 3 -20
-20 -20 -20 -20 -20 -20 -20 -20 -20 -20 -20 -20 -5 -14 -20 -20 1 21 18 -2 -17 -20 -20 5 29 30 38 35 25 24 10 -2 17 12 -16 -20 -20 -20 -20 -2 -20 -20 -20
-20 -20 -20 -20 -20 -20 -20 -20 -20 -20 -20 -13 -1 2 -2 -7 6 16 15 6 -4 -20 -20 8 22 31 35 34 26 24 -14 -7 19 17 -20 -20 -20 -20 -20 -20 -3 -20 -20
-20 -20 -20 -20 -20 -20 -20 -20 -20 -20 -20 -20 -10 -6 0 -8 -6 6 5 -20 -1 -20 -6 5 10 23 34 29 24 24 11 22 27 8 11 8 -5 -17 -20 -20 -20 -20 -20
-20 -20 -20 -20 -20 -20 -20 -20 -20 -20 -20 -20 -20 -15 3 1 0 12 0 10 -6 1 -12 18 10 20 33 31 25 33 35 20 5 4 -14 -13 -8 -20 -20 -20 -20 -20 -20
-20 -20 -20 -20 -20 -20 -20 -20 -20 -20 -20 -20 -20 -20 -14 -2 6 11 11 -10 -16 5 -13 -7 9 3 7 9 27 25 20 14 7 2 1 -2 -2 -1 -20 -20 -20 -20 -20

GFSSE_prec_radar_108.txt.gz
Reflectivity
-20 -20 -20 -20 -20 -20 -20 -20 -20 -20 -20 -20 -20 -20 -20 -20 -20 -20 -20 -20 -20 -20 -20 -20 -20 -20 -20 -20 -20 -20 -20 -20 -20 -20 -1 -20 -20 -20 -20 -20 -20 -8 -11
-20 -20 -20 -20 -20 -20 -20 -20 -20 -20 -20 -20 -20 -20 -20 -20 -20 -20 -20 -20 -20 -20 -20 -20 -20 -20 -20 -20 -20 -20 -20 -20 -20 -20 -20 -20 22 -17 -20 9 -19 -13 -20
-20 -20 -20 -20 -20 -20 -20 -20 -20 -20 -20 -20 -20 -20 -20 -20 -20 -20 -20 -20 -20 -20 -20 9 -12 -1 -20 -20 -20 -20 -20 -20 -20 -20 -20 -20 -20 -17 -20 -20 -17 -5 -20
-20 -20 -20 -20 -20 -20 -20 -20 -20 -20 -20 -20 -20 -20 -20 -20 -20 -20 -20 -20 -20 -20 -10 -20 -20 -20 -20 -20 -20 -20 -20 -20 -20 -20 -20 -20 7 -18 -20 -20 -19 -10 -1
-20 -20 -20 -20 -20 -20 -20 -20 -20 -20 -5 -20 -20 -20 -20 -20 -20 -20 -20 -20 -20 -20 -20 -20 -20 -14 -9 -18 -20 -20 -20 -20 -4 -20 -20 -7 -8 4 -20 -20 12 -11 -10
-20 -20 -20 -20 -20 -20 -20 -20 -20 -20 -2 -20 -20 -20 -20 -20 -20 -20 -20 -20 -20 -20 -20 -20 -20 -20 -20 -20 -20 -20 -20 -20 -20 -17 -20 34 -9 -3 2 22 -20 -20 12
-20 -20 -20 -20 -20 -20 -20 -20 -20 -20 -20 -20 -20 -20 -20 -20 -20 -20 -20 -20 -20 -20 -20 -20 -20 -20 -14 -18 -20 -20 -20 -20 -20 -8 -20 -14 -20 2 2 -20 -20 -20 6
-20 -20 -20 -20 -20 -20 -20 -20 -20 -20 -20 -15 2 -13 -8 -20 -20 -20 -20 -20 -20 -20 -20 -20 -20 -20 -20 -20 -14 -20 -20 -20 -18 28 33 32 -20 -20 -7 -20 -20 -20 -20
-20 -20 -20 -20 -20 -20 -20 -20 -20 -20 -20 -20 7 -15 -20 -20 -20 -20 -20 -20 -7 -20 -20 -18 -20 -3 33 -12 26 31 -20 29 25 0 33 4 -20 -20 -16 -20 -20 -5 5
-20 -20 -20 -20 -20 -20 -20 -20 -20 -20 -20 -20 -20 -20 -20 -20 -20 -20 -20 -20 -20 -20 -20 -20 -18 -13 -9 -6 28 30 32 -20 -20 -4 32 -4 -20 -20 -20 -19 -14 18 14
-20 -20 -20 -20 -20 -20 -20 -20 -20 -20 -20 -20 -20 -20 -20 -20 -20 -20 -20 -20 -20 -20 -8 -5 -20 -20 -20 1 29 26 13 -20 -20 -14 18 -14 -20 -20 -20 2 16 11 10
-20 -20 -20 -20 -20 -20 -20 -20 -20 -20 -20 -20 -20 -20 -20 -20 -20 -20 -20 -20 -20 -20 -20 -20 -20 -20 -20 -10 14 16 24 27 -20 -19 -18 -20 -20 -20 -20 14 11 4 -20
-20 -20 -20 -20 -20 -20 -20 -20 -20 -20 -20 -8 -20 -20 -20 -20 -20 -20 25 3 -20 -20 -20 -20 -20 -20 -20 -20 9 16 23 26 26 -9 4 -2 -20 -20 -20 -8 7 -20 -20
-20 -20 -20 -20 -20 -20 -20 -20 -20 -20 -20 -20 7 -19 -20 -20 -20 -20 -2 -20 -20 -20 12 -20 -20 -20 -20 -20 1 17 17 30 27 -20 -20 -20 -20 -20 -11 -20 -20 -20 -13
-20 -20 -20 -20 -20 -20 -20 -20 -20 -20 -20 -20 -18 -20 -20 -20 -20 -20 -20 -20 -20 -20 -20 -20 -20 -20 -20 -15 22 1 24 26 2 -15 -5 -20 -20 -20 -5 1 6 -20 10
-20 -20 -20 -20 -20 -20 -20 -20 -20 -20 -20 -20 -14 -12 -3 -20 -20 15 -3 -20 -20 -20 -20 -20 -20 -20 -20 -16 17 25 27 29 -20 -20 2 -20 -20 -20 -20 -20 10 -12 -0
-20 -20 -20 -20 -20 -20 -20 -20 -20 -20 -20 -20 -20 -14 -0 8 -20 -20 -4 -17 -20 -20 -20 -20 -11 -20 -17 -3 10 25 29 29 -20 6 -14 -20 -20 -20 -4 -20 -2 -8 6
-20 -20 -20 -20 -20 -20 -20 -20 -20 -20 -20 -20 -20 -4 -18 -1 -15 -20 3 -12 -20 18 22 26 16 -2 20 21 23 33 33 25 26 -14 -20 -20 -20 -20 -8 12 14 -20 -20
-20 -20 -20 -20 -20 -20 -20 -20 -20 -20 -20 -20 -20 -20 -14 -8 -20 -20 -20 -20 4 4 -20 -20 -19 -20 -4 -13 29 35 36 32 -5 -20 -20 -20 -20 -20 -20 10 11 -14 -8
-20 -20 -20 -20 -20 -20 -20 -20 -20 -20 -20 -20 -20 -20 -19 -19 -17 3 -16 6 11 13 3 -13 -20 -4 -10 -20 29 37 36 29 10 -20 -10 -20 -3 -16 -14 -20 6 3 2
-20 -20 -20 -20 -20 -20 -20 -20 -20 -20 -20 -20 -20 -20 -20 -20 -20 -20 -20 11 -3 -18 -6 -20 -2 9 19 19 41 37 37 29 5 -14 11 12 -18 -20 -20 3 -20 -20 -4
-20 -20 -20 -20 -20 -20 -20 -20 -20 -20 -20 -20 -20 -20 -20 -20 -20 -20 -20 -16 -20 -20 -15 -15 -14 5 4 32 34 39 27 18 20 -10 -20 -9 -20 -20 -20 10 -4 -20 -20
-20 -20 -20 -20 -20 -20 -20 -20 -20 -19 -20 -20 -20 -20 -20 -20 -20 -20 -16 -15 -20 -20 -19 -20 -7 -10 20 31 30 30 15 -5 8 9 -18 -20 2 -20 -20 -20 -0 -20 -20
-20 -20 -20 -20 -20 -20 -20 -20 -20 -20 -20 -20 -20 -20 -20 -20 -20 -20 -6 -20 -20 -20 -20 -20 -20 -15 21 35 28 29 15 19 19 17 5 -20 -20 12 -20 -20 -20 -20 -17
-20 -20 -20 -20 -20 -20 -20 -20 -20 -20 -20 -20 -20 -20 -20 -20 -20 -2 -11 -20 -20 -20 -20 -20 -20 -20 21 25 26 14 12 21 13 16 24 14 -20 -20 -17 8 -19 -19 -20
-20 -20 -20 -20 -20 -20 -20 -20 -20 -20 -20 -20 -20 -20 -20 -20 -11 -1 -20 -20 -20 -20 -20 -20 -20 -17 -17 24 35 31 33 32 29 29 13 15 -1 -18 -20 -20 -20 -20 -20

GFSSE_prec_radar_111.txt.gz
Reflectivity
-20 -20 -20 -20 -20 -20 -20 -20 -20 -20 -20 -20 -20 -20 -20 -20 -20 -20 -20 -20 -20 -20 -20 -20 -20 -20 -20 -20 -20 -20 -20 -20 -20 -20 -20 -20 -20 -20 -20 -20 -20 -20 -20
-20 -20 -20 -20 -20 -20 -20 -20 -20 -20 -20 -20 -20 -20 -20 -20 -20 -20 -20 -20 -20 -20 -20 -20 -20 -20 -20 -20 -20 -20 -20 -20 -20 -20 -20 21 -20 -20 -20 -20 -20 -19 -20
-20 -20 -20 -20 -20 -20 -20 -20 -20 -20 -20 -20 -20 -20 -20 -20 -20 -20 -20 -20 -20 -20 -20 -20 -20 -20 -20 -20 -20 -20 -20 -20 -20 -20 -20 -20 -20 9 -20 -20 -15 -20 -20
-20 -20 -20 -20 -20 -20 -20 -20 -20 -20 -20 -20 -20 -20 -20 -20 -20 -20 -20 -20 -20 -20 -20 -20 -20 -20 -20 -20 -20 -20 -20 -20 -20 -20 -20 -20 -20 4 -13 1 -9 4 -5
-20 -20 -20 -20 -20 -20 -20 -20 -20 -20 -20 -20 -20 -20 -20 -20 -20 -20 -20 -20 -20 -20 -20 -20 -20 -20 -20 -20 -20 -20 -20 -20 -20 -20 -20 -20 -20 4 3 0 -20 -20 -20
-20 -20 -20 -20 -20 -20 -20 -20 -20 -5 -2 -20 -20 -20 -20 -20 -20 -20 -20 -20 -20 -20 -20 -20 32 -20 -20 -20 -20 -20 -20 -20 -13 -20 -20 -20 -20 -14 -4 -20 22 7 13
-20 -20 -20 -20 -20 -20 -20 -20 -20 -20 8 -20 -20 -20 -20 -20 -20 -20 -20 -20 -20 -20 -20 -20 -20 -20 -20 -20 -20 -20 -0 -20 -20 3 -20 23 -15 3 -2 -20 -20 4 12
-20 -20 -20 -20 -20 -20 -20 -20 -20 -20 -20 -20 -20 -20 -20 -20 -20 -20 -20 -20 -20 -20 -20 -20 -20 -20 -20 -20 -14 -10 -18 -20 -20 -20 -6 26 39 -3 -1 -20 -20 -20 5
-20 -20 -20 -20 -20 -20 -20 -20 -20 -20 -20 -20 -16 7 -20 -20 -20 -20 -20 -20 -20 -20 -20 -20 -20 -20 -20 -3 15 -20 -1 17 31 33 11 30 -4 -12 -9 -20 -20 -20 -20
-20 -20 -20 -20 -20 -20 -20 -20 -20 -20 -20 -20 -20 -20 -20 -20 -20 -20 -20 -20 -20 -20 -20 -20 -20 -20 -20 -5 -3 -9 5 10 -20 25 -20 -20 31 7 -20 -20 -20 -7 18
-20 -20 -20 -20 -20 -20 -20 -20 -20 -20 -20 -20 -20 -20 -20 -20 -20 -20 -20 -20 1 -20 -20 -20 -20 -20 -20 -20 -20 -9 21 5 -12 -20 -20 -20 26 -4 -20 -20 6 -17 11
-20 -20 -20 -20 -20 -20 -20 -20 -20 -20 -20 -20 -20 -20 -20 -20 -20 -20 -20 -20 -20 -20 -20 -20 -20 -20 -20 -20 -20 5 24 5 8 -20 -20 12 14 -5 -20 -20 -14 7 16
-20 -20 -20 -20 -20 -20 -20 -20 -20 -20 -20 -20 -20 -20 -20 -20 -20 -20 -20 -20 -20 -20 -20 -20 -20 -20 -20 -20 -20 -20 30 12 -17 12 10 27 18 -4 -20 -20 -20 18 8
-20 -20 -20 -20 -20 -20 -20 -20 -20 -20 -20 -20 -20 -20 -20 -20 -20 -20 -20 -20 -20 -20 -20 -20 -20 -20 -20 -20 -20 -20 -5 15 22 21 23 -20 25 -20 -20 -20 -1 -8 -20
-20 -20 -20 -20 -20 -20 -20 -20 -20 -20 -20 -20 -20 -20 -20 -20 -20 -20 -20 -11 -20 -20 -20 -20 -20 -20 -20 -20 -20 -20 -10 6 16 20 30 -19 -20 -20 -20 -20 -4 0 -14
-20 -20 -20 -20 -20 -20 -20 -20 -20 -20 -20 -20 -20 -20 -20 -20 -20 -20 -20 -20 -20 -3 -20 -20 -20 -20 -20 -20 -20 -20 1 11 14 24 25 -2 -20 -20 -20 -20 0 -11 2
-20 -20 -20 -20 -20 -20 -20 -20 -20 -20 -20 -20 -20 -20 -20 -20 -20 -20 -20 -20 -20 -20 -5 -20 -20 -20 -20 -20 -20 -20 -2 19 14 21 23 -20 -20 -20 -20 -20 -20 -8 11
-20 -20 -20 -20 -20 -20 -20 -20 -20 -20 -20 -20 -20 -20 -20 -4 -20 -20 -20 -20 -20 -20 -9 11 -20 -20 -20 -20 -20 7 -14 16 17 21 4 -20 -20 -20 -20 -20 -20 -10 -20
-20 -20 -20 -20 -20 -20 -20 -20 -20 -20 -20 -20 -20 -20 -20 -16 0 -20 -20 -20 -20 -20 -20 -0 -3 -20 -20 -20 -8 -5 6 28 36 16 -19 -15 -20 -20 -20 -20 -5 -10 -15
-20 -20 -20 -20 -20 -20 -20 -20 -20 -20 -20 -20 -20 -20 -20 -20 -19 -20 -20 -20 -20 -20 -20 -16 -20 -8 -20 -20 -20 -16 -5 30 40 14 -18 -20 -20 -20 -20 -20 12 4 -12
-20 -20 -20 -20 -20 -20 -20 -20 -20 -20 -20 -20 -20 -20 -20 -20 -20 -20 -20 -20 -20 -19 4 10 3 -19 -5 -14 12 17 6 32 37 28 -16 -20 -20 -20 -20 -20 8 -20 -4
-20 -20 -20 -20 -20 -20 -19 9 -20 -20 -20 -20 -20 -20 -20 -20 -20 -20 -11 -20 6 -1 -5 -18 12 13 -9 -7 11 3 18 32 33 21 8 -20 -20 -20 -20 -20 -7 -6 -20
-20 -20 -20 -20 -20 -20 -6 -7 -20 -20 -20 -20 -20 -20 -20 -20 -20 -20 -20 -20 -3 -8 -20 -20 -1 5 -16 9 -2 14 29 30 28 14 12 -20 -20 -19 -15 -2 -11 -20 -20
-20 -20 -20 -9 -18 -20 -20 -20 -20 -20 -20 -20 -20 -20 -20 -20 -20 -20 -20 -20 -20 -20 -20 -10 -18 -20 5 2 18 31 26 12 12 17 13 -15 7 -4 -10 -18 -20 -20 -20
-20 -20 -20 -20 28 -19 -20 -20 -20 -20 -20 -20 -20 -20 -20 -20 -20 -20 -20 -20 -20 -20 -20 -7 -12 -20 -8 9 2 30 31 30 25 2 21 22 15 26 -1 -20 -20 -20 -20
-20 -20 -20 -20 -20 24 23 -19 -20 -20 -20 -20 -20 -20 -20 -20 -20 -20 -20 -20 -20 -20 -20 -20 -16 -20 -10 5 7 21 24 17 23 32 18 22 22 15 10 6 -20 -20 -20

GFSSE_prec_radar_114.txt.gz
Reflectivity
-20 -20 -20 -20 -20 -20 -20 -20 -20 -20 -20 -20 -20 -20 -20 -20 -20 -20 -20 -20 -20 -20 -20 -20 -20 -20 -20 -20 -20 -20 -20 -20 -20 -20 -20 -6 12 -16 -20 -20 -20 -20 -20
-20 -20 -20 -20 -20 -20 -20 -20 -20 -20 -20 -20 -20 -20 -20 -20 -20 -20 -20 -20 -20 -20 -20 -20 -20 -20 -20 -20 -15 -20 -20 -20 -20 -20 -17 -20 7 -13 -13 -20 -20 -5 6
-20 -20 -20 -20 -20 -20 -20 -20 -20 -20 -20 -20 -20 -20 -20 -20 -20 -20 -20 -20 -20 -20 -20 -20 -20 -20 -20 -20 -20 19 -20 -20 -20 -20 -20 -2 3 7 -1 -20 -20 -19 -2
-20 -20 -20 -20 -20 -20 -20 -20 -20 -20 -20 -20 -20 -20 -20 -20 -20 -20 -20 -20 -20 -20 -20 -20 -20 -20 -20 -20 -20 -20 -20 -20 -20 -20 -20 1 -20 8 3 -11 -20 3 -17
-20 -20 -20 -20 -20 -20 -20 -20 -20 -20 -20 -20 -20 -20 -20 -20 -20 -20 -20 -20 -20 -20 -20 -20 -20 -20 -20 -20 -20 -20 -20 -20 -20 -20 -20 -20 -20 5 8 6 -4 -16 -20
-20 -20 -20 -20 -20 -20 -20 -20 -20 -20 -20 -20 -20 -20 -20 -20 -20 -20 -20 -20 -20 -20 -20 -20 -20 -20 -20 -20 -20 -20 -20 -20 -20 -20 -20 -20 -17 12 7 -20 -20 -20 -20
-20 -20 -20 -20 -20 -20 -20 -20 -20 -20 -20 -20 -20 -20 -20 -20 -20 -20 -20 -20 -20 -20 -20 -20 -20 -20 -20 -20 -20 -20 -20 -20 -20 -18 -14 -8 38 -4 -4 -20 -20 -6 -20
-20 -20 -20 -20 -20 -20 -20 -20 -20 -20 -20 -20 -20 -20 -20 -20 -20 -20 -20 -20 -20 -20 -20 -20 -20 -20 -20 -20 -20 -20 -5 -19 -20 -20 22 -20 28 37 -2 -20 -20 -1 9
-20 -20 -20 -20 -20 -20 -20 -20 -20 -20 -20 -20 -20 -20 -20 -20 -20 -20 -20 -20 -20 -20 -20 -20 -20 -20 -20 -20 -20 -20 -20 -20 -4 -20 12 -12 31 38 13 -20 -20 -20 -18
-20 -20 -20 -20 -20 -20 -20 -20 -20 -20 -20 -20 -20 -20 -20 -20 -20 -20 -20 -20 -20 -20 -20 -20 -20 -20 -20 15 -12 9 -20 -20 -15 -17 -20 -20 33 9 15 -19 -20 -20 -20
-20 -20 -20 -20 -20 -20 -20 -20 -20 -20 -20 -20 -20 -20 -20 -20 -20 -20 -20 -20 -20 -20 -20 -20 -20 -20 -20 -20 -20 -20 -9 -20 7 -14 -20 -20 33 33 6 -18 -20 -20 6
-20 -20 -20 -20 -20 -20 -20 -20 -20 -20 -20 -20 -20 -20 -20 -20 -20 -20 -20 -20 -20 -20 -20 -20 -20 -20 -20 -20 -20 -20 -20 -20 -2 8 -20 -20 10 1 8 -20 -20 -12 10
-20 -20 -20 -20 -20 -20 -20 -20 -20 -20 -20 -20 -20 -20 -20 -20 -20 -20 -20 -20 -20 -20 -20 -20 -20 -20 -20 -20 -20 -20 -20 -20 21 -10 -20 -20 25 28 13 -20 -20 -20 -1
-20 -20 -20 -20 -20 -20 -20 -20 -20 -20 -20 -20 -20 -20 -20 -20 -20 -20 -20 -20 -20 -20 -20 -20 -20 -20 -20 -20 -20 -20 -20 -20 -14 15 14 15 23 -2 2 -20 -20 -20 -9
-13 -19 -20 -20 -20 -20 -20 -20 -20 -20 -20 -20 -20 -20 -20 -20 -20 -20 -20 -20 -20 -20 -20 -20 -20 -20 -20 -20 -20 -20 -20 -20 -20 -3 25 29 19 26 5 -20 -5 -20 -20
-20 -20 -20 -20 -20 -20 -20 -20 -20 -20 -20 -20 -20 -20 -20 -20 -20 -20 -20 -20 -20 -20 -20 -20 -20 -20 -20 -20 -20 -20 -20 -20 -20 7 -3 27 31 30 -5 -18 -20 -20 -20
-20 -20 -20 -20 -20 -20 -20 -20 -20 -20 -20 -20 -20 -20 -20 -20 -20 -20 -20 -20 -20 -20 -20 -20 -20 -20 -20 -20 -20 -20 -20 -20 -20 -20 0 29 30 27 -9 -20 -20 -20 -20
-20 -20 -20 -20 -20 -20 -20 -20 -20 -20 -20 -20 -20 -20 -20 -20 -20 -20 -20 -20 -20 -20 -20 -20 -20 -20 -20 -20 -20 -20 -20 -20 -20 8 14 28 25 19 -20 -20 -20 -20 -20
-20 -20 -20 -20 -20 -20 -20 -20 -20 -20 -20 -20 -20 -20 -20 -20 -20 -20 -20 -20 -20 -20 -20 -20 -20 -20 -20 -20 -20 -20 -20 -20 -20 -14 26 18 25 -10 -20 -20 -20 -3 -1
-20 -20 -20 -20 -20 -20 -20 -20 -20 -20 -20 -20 -20 -20 -20 -20 -20 -20 -20 -20 -20 -20 -14 -20 -20 -10 -20 14 -0 -20 -20 -15 -6 21 31 14 14 -20 -20 -20 0 1 9
-20 -20 -20 -20 -20 -20 -20 -13 -14 -20 -20 -20 -20 -20 -20 -20 -20 -3 -20 -20 -20 -20 -8 -3 1 -3 13 4 18 -4 -1 -5 10 25 39 26 13 -20 -20 -20 -20 -20 11
-20 -20 -20 -20 -20 -20 -20 -20 -5 -20 -20 -20 -20 -20 -20 -20 -20 -20 -20 -20 -20 -20 -20 12 9 14 11 11 18 23 15 13 2 18 30 24 -20 -20 -20 -20 -20 5 -18
-20 -20 -20 -20 -20 -20 -20 6 8 -12 15 -1 -9 -20 -20 -20 -20 -20 -20 -20 -20 -20 -20 -12 4 6 8 9 13 22 -9 -4 1 20 31 19 -20 -20 -20 -20 1 11 4
-20 -20 -20 -20 -20 -20 -20 -20 -20 -20 -20 -20 -20 -20 -20 -20 -20 -20 -20 -12 -20 -20 -4 0 -20 -16 9 -5 10 8 -12 -20 -1 11 30 23 9 -20 -20 -20 0 -20 -20
-20 -20 -20 -20 -20 -17 -17 18 -19 -4 -1 -20 -20 -20 -20 -20 -20 -20 -20 -20 -20 -20 -20 -20 -20 -1 -14 1 -8 -14 13 0 12 28 26 23 7 10 -15 0 -19 -19 -20
-20 -20 -20 -20 -20 -20 -20 -6 30 31 12 -4 -20 -20 -20 -20 -20 -20 -20 -20 -20 -20 -20 -20 -20 1 -15 -3 3 -11 -17 10 33 8 19 29 30 24 30 22 -1 -17 -5

GFSSE_prec_radar_117.txt.gz
Reflectivity
-20 -20 -20 -20 -20 -20 -20 -20 -20 -20 -20 -20 -20 -20 -20 -20 -20 -20 -20 -20 -20 -20 -20 -20 -20 -20 -20 -20 -20 -20 -20 -20 -20 -20 -3 3 -1 -4 6 -13 -20 -20 -20
-20 -20 -20 -20 -20 -20 -20 -20 -20 -20 -20 -20 -20 -20 -20 -20 -20 -20 -20 -20 -20 -20 -20 -20 -20 -20 -20 -20 -20 -20 -20 -20 -20 -20 -20 10 17 5 -1 -20 -20 -0 -20
-20 -20 -20 -20 -20 -20 -20 -20 -20 -20 -20 -20 -20 -20 -20 -20 -20 -20 -20 -20 -20 -20 -20 -20 -20 -20 -20 -20 -20 -20 -20 -20 -20 -20 -20 3 -11 16 2 -20 -20 -20 -20
-20 -20 -20 -20 -20 -20 -20 -20 -20 -20 -20 -20 -20 -20 -20 -20 -20 -20 -20 -20 -20 -20 -20 -20 -20 -20 -20 -20 -20 -20 -20 -20 -20 -20 -20 -18 14 17 3 -20 -20 -2 -14
-20 -20 -20 -20 -20 -20 -20 -20 -20 -20 -20 -20 -20 -20 -20 -20 -20 -20 -20 -20 -20 -20 -20 -9 -20 -20 -20 -20 -20 -20 -20 -20 -20 -20 -20 -20 13 1 4 -9 -18 -20 -20
-20 -20 -20 -20 -20 -20 -20 -20 -20 -20 -20 -20 -20 -20 -20 -20 -20 -20 -20 -20 -20 1 4 5 -20 -20 -20 -20 -20 -20 -20 -20 -20 -20 -20 -20 -20 9 7 -17 -20 -20 -20
-20 -20 -20 -20 -20 -20 -20 -20 -20 -20 -20 -20 -20 -20 -20 -20 -20 -20 -20 -20 -20 -20 -8 -13 -20 -20 -20 -20 -20 -20 -20 -20 -20 -20 -7 -5 -10 10 25 -20 -20 -8 -20
-20 -20 -20 -20 -20 -20 -20 -20 -20 -20 -20 -20 -20 -20 -20 -20 -20 -20 -20 -20 -20 -20 -20 -20 -20 -20 -20 -20 -20 -20 -20 -20 -20 -20 -20 -20 -20 37 19 15 -16 -10 -19
-20 -20 -20 -20 -20 -20 -20 -20 -20 -20 -20 -20 -20 -20 -20 -20 -20 -20 -20 -20 -20 -20 -20 -20 -20 -20 -20 -20 -20 -20 -20 -20 -20 -18 -20 -19 -20 19 42 32 3 -20 -9
-20 -20 -20 -20 -20 -20 -20 -20 -20 -20 -20 -20 -20 -20 -20 -20 -20 -20 -20 -20 -20 -20 -20 -20 -20 -20 -20 -20 -20 -20 -20 -20 -20 -20 -20 -20 4 16 24 35 0 -20 -20
-19 -19 -20 -20 -20 -20 -20 -20 -20 -20 -20 -20 -20 -20 -20 -20 -20 -20 -20 -20 -20 -20 -20 -20 -20 -20 -20 9 -20 -20 -20 -20 -20 -20 -20 -20 -18 9 20 25 12 -20 -20
-19 -11 -20 -20 -20 -20 -20 -20 -20 -20 -20 -20 -20 -20 -20 -20 -20 -20 -20 -20 -20 -20 -20 -20 -20 -20 -20 -20 -20 -20 -20 -0 -20 -20 9 -12 3 14 32 36 0 -20 5
-20 -20 -20 -20 -20 -20 -20 -20 -20 -20 -20 -20 -20 -20 -20 -20 -20 -20 -20 -20 -20 -20 -20 -20 -20 -20 -20 -20 -20 -20 -20 -20 -20 -20 2 14 -20 -5 2 -16 -20 -10 6
-20 -20 -16 -20 -20 -20 -20 -20 -20 -20 -20 -20 -20 -20 -20 -20 -20 -20 -20 -20 -20 -20 -20 -20 -20 -20 -20 -20 -20 -20 -20 -20 -20 -20 -17 7 -19 -20 11 11 -12 -20 -10
-20 -20 -16 -9 -20 -20 -20 -20 -20 -20 -15 -20 -20 -20 -20 -20 -20 -20 -20 -20 -20 -20 -20 -20 -20 -20 -20 -20 -20 -20 -20 -20 -20 -20 -20 28 29 30 24 19 -12 -20 -20
-20 -20 -20 -20 -20 -20 -20 -20 -20 -20 -20 -20 -20 -20 -20 -20 -20 -20 -20 -20 -20 -20 -20 -20 -20 -20 -20 -20 -20 -20 -20 -20 -20 -20 -6 25 -0 20 31 25 5 -20 -17
-20 -20 -20 -20 -20 -20 -20 -20 -20 -20 -20 -20 -20 -20 -20 -20 -20 -20 -20 -20 -20 -20 -20 -20 -20 -20 -20 -20 -20 -20 -20 -20 -20 -20 -20 -20 12 28 34 32 13 9 -10
-20 -20 -20 -20 -20 -20 -20 -20 -20 -20 -20 -20 -20 -20 -20 -20 -20 -20 -20 -20 -20 -20 -20 -20 -20 -20 -20 -20 -20 -20 -20 -20 -20 -20 -20 -20 12 18 30 36 10 -16 -16
-20 -20 -20 -20 -20 -20 -20 -20 -20 -20 -20 -20 -20 -20 -20 -20 -20 -20 -20 -20 -20 -20 -20 -20 -20 -20 -20 -20 -20 -20 -20 -20 -20 -20 -20 -20 19 31 25 26 -6 13 -11
-20 -20 -20 -20 -20 -20 -20 -20 -20 -20 -20 -20 -20 -20 -20 -20 -20 -20 -20 -20 -20 -20 -3 -14 -20 -20 -20 -20 -4 -20 -18 -12 -20 -13 -20 -17 22 30 27 21 10 9 9
-14 -20 -20 -20 -20 -20 -20 -20 -20 -20 -20 -20 -20 -20 -20 -20 -20 -20 -20 -20 -20 -5 -9 12 13 -4 10 1 -20 -10 -5 -20 -20 -7 1 10 31 25 26 13 -20 -20 7
-7 -20 -20 -20 -20 -20 -20 -20 -20 -20 -20 -20 -20 -19 -20 -20 -20 -20 -20 -20 -20 -11 -11 12 13 13 -1 14 -15 11 13 11 -8 -1 8 6 30 31 19 -20 4 -16 -9
-20 -20 -20 -20 -20 -20 -20 -20 -20 -20 -20 22 3 7 8 -16 -20 -20 -20 -20 -20 -15 -3 -11 -12 11 11 14 11 14 4 -1 12 9 -4 5 12 30 25 7 -12 -4 10
-20 -20 -20 -20 -20 -20 -20 -20 -10 -20 -20 -20 -16 11 -19 -19 -7 -20 -20 -20 -20 -20 3 -20 -19 -7 13 6 13 13 10 1 12 -3 6 7 22 24 24 -19 -20 7 11
-20 -20 -20 -20 -20 -20 -18 -20 -20 -20 -12 -9 -20 -20 -20 12 -20 -20 -20 -20 -20 -16 -1 -1 9 -8 15 -2 13 -9 8 5 4 -18 5 8 20 28 26 -18 -20 4 12
-20 -20 -20 -20 -20 -20 17 13 -6 -20 -15 3 13 29 -16 17 9 -14 -20 -20 -20 -20 -20 -20 -18 -4 2 14 8 -8 8 -13 -2 12 31 20 35 17 21 14 4 -20 -8

GFSSE_prec_radar_120.txt.gz
Reflectivity
-20 -20 -20 -20 -20 -20 -20 -20 -20 -20 -20 -20 -20 -20 -20 -20 -20 -20 -20 -20 -20 -20 -20 -20 -20 -20 -20 -20 -20 -20 -20 -20 -20 -20 -20 -13 10 -1 -20 -20 -20 -20 -13
-20 -20 -20 -20 -20 -20 -20 -20 -20 -20 -20 -20 -20 -20 -20 -20 -20 -20 -20 -20 -20 -20 -20 -20 -20 -20 -20 -20 -20 -20 -20 -20 -20 -16 10 -16 2 4 -3 -20 -20 -20 -18
-20 -20 -20 -20 -20 -20 -20 -20 -20 -20 -20 -20 -20 -20 -20 -20 -20 -20 -20 -20 -20 -20 -20 -20 -20 -20 -20 -20 -20 -20 -20 -20 -20 -20 -20 -15 11 16 -3 -20 -20 -20 -20
-20 -20 -20 -20 -20 -20 -20 -20 -20 -20 -20 -20 -20 -20 -20 -20 -20 -20 -20 -20 -20 -5 -20 -20 -20 -20 -20 -20 -20 -20 -20 -20 -20 -20 -20 -10 2 14 -4 -20 -20 -18 -20
-20 -20 -20 -20 -20 -20 -20 -20 -20 -20 -20 -20 -20 -20 -20 -20 -20 -20 -20 -20 -3 1 -2 -6 -20 -20 -20 -20 -20 -20 -20 -20 -20 -20 -20 -20 2 11 -0 -6 -18 -18 -14
-20 -20 -20 -20 -20 -20 -20 -20 -20 -20 -20 -20 -20 -20 -20 -20 -20 -20 -20 -16 0 3 1 11 -20 -20 -20 -20 -20 -20 -20 -20 -20 -20 -20 -20 -7 11 -19 -18 -17 -20 -20
-20 -20 -20 -20 -20 -20 -20 -20 -20 -20 -20 -20 -20 -20 -20 -20 -20 -20 -20 -20 -20 4 -20 -20 -20 -20 -20 -20 -20 -20 -20 -20 -20 -20 -17 2 -18 19 -7 -8 -14 -16 -20
-20 -20 -20 -20 -20 -20 -20 -20 -20 -20 -20 -20 -20 -20 -20 -20 -20 -20 -20 -20 -20 -20 -20 -20 -20 -20 -20 -20 -20 -20 -20 -20 -20 -20 -20 -20 -20 36 26 11 -16 -20 -20
-20 -20 -20 -20 -20 -20 -20 -20 -20 -20 -20 -20 -20 -20 -20 -20 -20 -20 -20 -20 -20 -20 -20 -20 -20 -20 -20 -20 -20 -20 -20 -20 -20 -20 -20 -20 22 -9 42 34 22 15 -20
-20 -20 -20 -20 -20 -20 -20 -20 -20 -20 -20 -20 -20 -20 -20 -20 -20 -20 -20 -20 -20 -20 -20 -20 -20 -20 -20 -20 -20 -20 -20 -20 -20 -20 -20 -20 -20 -9 17 35 38 28 -5
-20 -20 -20 -17 -18 -20 -20 -20 -20 -20 -20 -20 -20 -20 -20 -20 -20 -20 -20 -20 -20 -20 -20 -20 -20 -20 -20 -20 -20 -20 7 -20 -20 -20 -20 -20 -5 13 24 29 22 32 -19
-20 -20 -20 -18 -19 -20 -20 -20 -20 -20 -20 -20 -20 -20 -20 -20 -20 -20 -20 -20 -20 -20 -20 -20 -20 -20 4 -20 -20 -20 -11 -20 -20 -20 -20 -20 31 21 13 28 24 28 -18
-20 -20 -20 2 -20 -20 -20 -20 -20 -19 -20 -20 -20 -20 -20 -20 -20 -20 -20 -20 -20 -20 -20 -20 -20 -20 -20 -20 -20 -20 -20 -20 -20 -20 -20 -20 -18 29 -7 6 12 5 6
-20 -20 -20 -20 -20 -20 -20 -17 -11 -20 6 -20 -20 -20 -20 -20 -20 -20 -20 -20 -20 -20 -20 -20 -20 -20 -20 -20 -20 -20 -20 -20 -20 -20 -20 -5 -14 22 29 7 3 9 -7
-20 -20 -20 -20 -20 -20 -20 -20 -19 -20 -16 -20 -20 -20 -20 -20 -20 -20 -20 -20 -20 -20 -20 -20 -20 -20 -20 -20 -20 -20 -20 -20 -20 -20 -20 4 30 28 31 36 -7 -4 -20
-20 -20 -20 -20 -20 -20 -20 -20 -20 -20 -20 -20 -20 -20 -20 -8 5 -20 -20 -20 -20 -20 -20 -20 -20 -20 -20 -20 -20 -20 -20 -20 -20 -20 -20 -20 21 28 31 31 32 12 -20
-20 -20 -20 -20 -20 -20 -20 -20 -20 -20 -20 -18 -20 -20 -7 -20 -15 -12 -20 -20 -20 -20 -20 -20 -20 -20 -20 -20 -18 -20 -20 -20 -20 -20 -20 -20 -20 -3 12 27 28 29 -20
-20 -20 -20 -20 -20 -20 -20 -20 -20 -20 -20 -20 -20 -20 -20 -20 -20 -20 -20 -20 -20 -20 -20 -20 -20 -20 -20 -20 -14 -15 -20 -13 -20 -20 -20 -20 -20 -20 -2 26 29 34 -2
-20 -20 -20 -20 -20 -20 -20 -20 -20 0 -20 -20 -20 -20 -20 -20 -20 -20 -20 -20 -20 -20 -20 -20 -20 -20 -20 -20 -20 -20 -20 -20 -20 -20 -20 -20 -20 -20 10 21 23 26 12
-20 -20 -20 -20 -20 -20 -20 -20 -20 -20 -20 -20 -20 -20 -20 -20 -20 -20 -20 -20 -20 -20 -20 -20 -20 -20 -20 -20 -18 -20 8 -20 -20 -20 -20 -20 -20 -11 -18 19 30 28 9
-20 -20 -20 -20 -20 -20 -20 -20 -20 -20 -20 -20 -20 -20 -20 -20 -20 -20 -20 -20 -20 -20 -20 4 7 6 -1 -17 -14 16 -14 -6 -20 -20 -20 -12 2 -19 6 30 32 27 12
-20 -20 -20 -20 -20 -20 -20 -20 -20 -20 -20 -20 -20 -20 -20 -20 -20 -20 -20 -20 -20 -1 2 -2 2 5 9 13 12 -10 9 -0 -16 -14 -9 -6 -17 7 4 42 29 24 4
-20 -20 -20 -20 -20 -20 -20 -20 -20 -20 -20 -20 -20 -20 -20 -20 -20 -20 -20 -20 -20 -20 -19 -1 -20 7 -17 -6 -7 11 9 -7 -20 -20 -7 -6 -19 -13 -0 39 32 17 -18
-20 -20 -20 -20 -20 -20 -20 -20 -20 -20 -20 -20 -20 -20 18 -20 -20 -20 -20 -20 -20 7 -17 -20 -20 -17 -18 -16 20 -9 -20 -9 -13 -16 -10 -1 9 -1 -15 28 24 17 1
-20 -20 -20 -9 -19 -20 -20 -13 -19 -20 -20 -20 -20 -20 -19 31 26 -20 -20 -20 -20 -20 -20 -20 -20 -20 3 -6 1 -18 4 -20 -20 -9 -6 3 8 2 -20 19 34 27 12
-5 -18 -2 5 -19 1 -20 -14 -20 -8 -20 -20 -20 -20 -20 -20 7 3 -6 -20 -20 -20 -20 -20 -19 -20 -16 -7 -2 11 0 -5 8 11 -2 -16 -1 16 24 21 18 28 1

GFSSE_prec_radar_123.txt.gz
Reflectivity
-20 -20 -20 -20 -20 -20 -20 -20 -20 -20 -20 -20 -20 -20 -20 -20 -20 -20 -20 -20 -20 -20 -20 -20 -20 -20 -20 -20 -20 -20 -20 -20 -20 -20 -20 -10 -12 -13 -20 -20 -20 -10 -20
-20 -20 -20 -20 -20 -20 -20 -20 -20 -20 -20 -20 -20 -20 -20 -20 -20 -20 -20 -20 -20 -20 -20 -20 -20 -20 -20 -20 -20 -20 -20 -20 -20 -20 -20 3 20 1 -16 -20 -20 -19 15
-20 -20 -20 -20 -20 -20 -20 -20 -20 -20 -20 -20 -20 -20 -20 -20 -20 -20 -20 -20 -20 -20 -20 -20 -20 -20 -20 -20 -20 -20 -20 -20 -20 -20 -20 2 7 4 -13 -20 -20 -20 -20
-20 -20 -20 -20 -20 -20 -20 -20 -20 -20 -20 -20 -20 -20 -20 -20 -20 -20 -20 -20 -20 -20 -20 -20 -20 -20 -20 -20 -20 -20 -20 -20 -20 -20 -20 -0 -20 -4 -18 -7 -20 -20 -20
-20 -20 -20 -20 -20 -20 -20 -20 -20 -20 -20 -20 -20 -20 -20 -20 -20 -20 -20 -20 -20 -20 -20 -20 -20 -20 -20 -20 -20 -20 -20 -20 -20 -20 -20 4 7 -10 -7 -5 -13 -19 9
-20 -20 -20 -20 -20 -20 -20 -20 -20 -20 -20 -20 -20 -20 -20 -20 -20 -20 -20 -20 -20 -7 -20 -20 -20 -20 -20 -20 -20 -20 -20 -20 -20 3 1 2 9 -0 12 -3 2 -20 -16
-20 -20 -20 -20 -20 -20 -20 -20 -20 -20 -20 -20 -20 -20 -20 -20 -20 -20 -20 -20 -14 -12 4 -20 -20 -20 -20 -20 -20 -20 -20 -20 -20 -20 -19 -20 -18 -6 31 35 -3 4 -20
-20 -20 -20 -20 -20 -20 -20 -20 -20 -20 -20 -20 -20 -20 -20 -20 -20 -20 -20 -20 -20 -20 -20 -20 -20 -20 -20 -20 -20 -20 -20 -20 -20 -20 -20 1 12 34 32 33 31 1 -12
-20 -20 -20 -20 -20 -20 -20 -20 -20 -20 -20 -20 -20 -20 -20 -20 -20 -20 -20 -20 -20 -20 -20 -20 -20 -20 -20 -20 -20 -20 -20 -20 -20 -20 -20 13 -20 9 47 42 26 2 9
-20 -20 -20 -5 -20 -20 -20 -20 -20 -20 -20 -20 -20 -20 -20 -20 -20 -20 -20 -20 -20 -20 -20 -20 -20 -20 -20 -20 -20 -20 -20 -20 -20 -20 -20 -20 -17 -20 8 16 35 32 26
-20 -20 -20 -20 -20 -20 -20 -20 -20 -20 -20 -20 -20 -20 -20 -20 -20 -20 -20 -20 -20 -20 -20 -20 -20 -20 -20 -20 -20 -20 -20 -20 -20 -20 -3 -20 -20 -20 15 31 25 22 23
-20 -20 -20 -20 -20 -20 -20 -20 -2 -10 -20 -20 -20 -20 -20 -20 -18 -20 -20 -20 -20 -20 -20 -20 -20 -20 -20 -20 -20 -20 -20 -20 -20 -20 -20 -20 30 -3 -15 0 8 18 22
-20 -20 -20 -20 -20 -20 -20 -20 -5 -3 -20 -17 -20 -2 -6 -12 -17 -20 4 -20 -20 -20 -20 -20 -20 -20 -20 -20 -20 -20 -20 -20 -20 -20 8 -20 -20 -4 26 34 26 -20 9
-20 -20 -20 0 -20 -20 -20 -20 -20 -20 -17 -20 -20 -20 -20 -20 2 3 1 9 5 1 -20 -20 -20 -20 -20 -20 -20 -20 -20 -20 -20 -20 -20 -20 -20 21 25 26 29 14 -20
-20 -20 -20 -17 -17 -20 -20 -20 -20 -20 -17 -11 -20 -20 -20 -20 -18 -8 0 4 4 5 -20 -20 -20 -20 -20 -20 -20 -20 -20 -20 -20 -20 -20 -20 -20 -20 28 33 35 34 -19
-20 -20 -20 -20 -4 -18 -20 -20 -20 -20 -20 -8 -20 -20 -20 -6 -20 -20 -13 -6 -20 -20 -20 -20 -20 -20 -20 -20 -20 -20 -20 -20 -20 -20 -20 -20 -20 -20 -10 30 37 37 27
-20 -20 -20 -20 -20 -19 -20 -20 -20 -20 -20 -20 -20 -20 -20 -20 -20 -20 -20 -20 -20 -18 -20 -20 -20 -20 -20 -20 -20 -20 -20 -20 -20 -20 -20 -20 -11 7 -17 -17 31 31 32
-20 -20 -20 -20 -20 -20 -20 -20 -20 -20 -20 -20 -20 -20 -20 -9 -20 -17 4 -20 -20 -20 -20 -20 -20 -20 -20 -20 -20 -20 -20 -20 -20 -20 -20 -20 -20 -20 8 -20 27 27 30
-20 -20 -20 -20 -20 -20 -20 -20 -20 -20 -20 -20 -20 -20 -17 -19 -17 -20 -7 -20 -20 -20 -20 -9 -5 -20 -20 -20 -20 -20 -20 -20 -20 -20 -20 -20 -20 -20 5 6 -18 16 26
-20 -20 -20 -20 -20 -20 -20 -20 -20 -20 -20 -10 -20 -20 -10 -20 -19 -19 -20 -20 -20 -20 -20 -20 -20 -20 -13 -18 -13 -17 -10 -4 -17 -20 -20 -20 -20 -20 -20 -18 -6 8 29
-20 -20 -20 -20 -20 -20 -20 -20 -20 -20 -15 -10 -20 -20 -20 -20 -20 -20 -20 -20 -20 -20 -20 -20 -20 -20 -20 -20 -17 -16 -20 -20 -20 -20 -20 -20 -11 -3 -2 -3 6 14 25
-20 -20 -20 -20 -1 -20 -20 -20 -20 -20 -20 -10 -18 -20 -20 -20 -20 -20 -20 -20 -20 -20 -20 -20 -20 -17 4 11 -10 -17 -20 -0 -1 -1 -3 -1 -20 -1 -2 -4 6 22 21
-20 -20 -20 -7 -20 2 -20 -13 18 -8 2 5 -10 -1 -10 -17 -20 -20 -20 -20 -20 -20 -16 -20 -19 10 -19 2 6 -1 -8 -7 -20 -9 -14 2 -11 -4 4 -19 -3 6 28
-20 -20 -20 -20 -20 -20 16 -17 -20 -20 -20 -20 -20 -20 -19 -11 -20 -20 -20 -20 -20 -20 -10 -15 -20 -2 -6 -20 6 -12 -20 -20 -19 -14 -7 4 2 6 7 3 -6 -16 33
-20 -3 -20 -20 -20 -20 -20 6 13 -4 4 -4 -19 -20 -5 -7 -3 -20 23 -18 -19 -20 -18 -20 -20 -0 -11 -2 -1 -3 -19 -20 -20 -16 12 4 5 -7 2 -5 5 -9 26
-20 16 -14 -20 -20 -20 -20 -20 -6 9 6 6 3 -5 -20 -9 -20 -20 -6 -2 16 32 25 10 -0 -20 -20 -20 -12 -1 -20 -2 -15 -20 -10 -13 -20 -3 -14 -5 6 9 36

GFSSE_prec_radar_126.txt.gz
Reflectivity
-20 -20 -20 -20 -20 -20 -20 -20 -20 -20 -20 -20 -20 -20 -20 -20 -20 -20 -20 -20 -20 -20 -20 -20 -20 -20 -20 -20 -20 -20 -20 -20 -20 -20 -3 -15 -18 16 -20 0 -19 -2 -13
-20 -20 -20 -20 -20 -20 -20 -20 -20 -20 -20 -20 -20 -20 -20 -20 -20 -20 -20 -20 -20 -20 -20 -20 -20 -20 -20 -20 -20 -20 -20 -20 -20 -20 -19 -20 7 15 -20 -20 1 -10 -18
-20 -20 -20 -20 -20 -20 -20 -20 -20 -20 -20 -20 -20 -20 -20 -20 -20 -20 -20 -20 -20 -20 -20 -20 -20 -20 -20 -20 -20 -20 -20 -20 -20 -20 -20 -20 14 -20 -20 -20 -20 -16 -20
-20 -20 -20 -20 -20 -20 -20 -20 -20 -20 -20 -20 -20 -20 -20 -20 -20 -20 -20 -20 -20 -20 -20 -20 -20 -20 -20 -20 -20 -20 -20 -20 -20 -20 -20 -20 4 -20 -20 32 0 -5 12
-20 -20 -20 -20 -20 -20 -20 -20 -20 -20 -20 -20 -20 -20 -20 -20 -20 -20 -20 -20 -20 -20 -20 -20 -20 -20 -20 -20 -20 -20 -20 -20 -20 -20 -20 12 -12 -3 -20 19 -6 31 28
-20 -20 -20 -20 -20 -20 -20 -20 -20 -20 -20 -20 -20 -20 -20 -20 -20 -20 -20 -20 -20 -20 -20 -20 -20 -20 -20 -20 -20 -20 -20 -20 -20 -20 -6 -20 -3 -4 -8 -11 29 9 13
-20 -20 -20 -20 -20 -20 -20 -20 -20 -20 -20 -20 -20 -20 -20 -20 -20 -20 -20 -20 -20 -20 -20 -20 -20 -20 -20 -20 -20 -20 -20 -20 -13 -20 -20 -13 -8 6 21 33 34 34 2
-20 -20 -20 -20 -20 -20 -20 -20 -20 -20 -20 -20 -20 -20 -20 -20 -20 -20 -20 -20 -20 -20 -20 -20 -20 -20 -20 -20 -20 -20 -20 -20 -20 -20 9 -16 -17 -20 1 31 34 35 27
-20 -20 -20 -20 -20 -20 -20 -20 -20 -20 -20 -20 -20 -20 -20 -20 -20 -20 -20 -20 -20 -20 -20 -20 -20 -20 -20 -20 -20 -20 -20 -20 2 13 -1 3 -20 -20 29 48 37 34 28
-20 -20 -20 -20 -20 -20 -20 -20 -20 -20 -20 -20 -20 -20 -20 -20 -20 -20 -20 -20 -20 -20 -20 -20 -20 -20 -20 -20 -20 -20 -20 -20 -20 -20 16 -6 -20 -20 -20 -6 23 25 13
-20 -20 -20 -20 -20 -20 -20 -20 -20 -20 -20 -20 -20 -20 -3 -20 -20 -19 -20 -20 -20 -20 -20 -20 -20 -20 -20 -17 -20 -20 -18 -20 -20 -20 3 -9 -20 -20 -20 -4 -4 -5 17
-20 -20 -20 -20 -20 -20 -20 -11 -20 -20 -20 -20 -20 -20 -20 -20 -9 -20 -20 -20 -20 -20 -20 -20 -20 -20 -11 -20 -20 -20 -20 -20 -20 -20 -15 -20 -20 -3 -20 28 25 26 11
-20 -20 -20 -20 -20 -20 -20 -15 -16 -20 -20 -20 -20 -20 -20 0 5 -4 5 -14 -20 -11 -20 -20 -20 -20 -20 -15 -20 -20 -20 -20 -20 -20 8 -20 -20 -4 24 -15 24 33 27
-20 -20 -20 -20 -20 -20 -20 -20 -20 -13 -20 -8 -16 -3 -0 3 6 -1 5 -5 -3 -5 -19 -20 -20 -20 1 -20 -20 -20 -20 -20 -20 -20 -17 -20 -20 -3 -20 -16 22 31 31
-20 -20 -20 -20 -20 -20 -20 -20 -20 -20 -6 -20 -20 -20 -15 -20 2 2 2 -4 0 3 1 -16 -20 12 -15 -20 -20 -20 -20 -20 -20 -20 -20 -16 -20 -20 -20 4 -3 33 39
-20 -20 -20 -20 -20 -18 -20 -20 -20 -20 -20 -1 -20 -16 -20 -20 -8 -1 2 7 6 6 4 -11 -14 -14 8 -20 -20 -20 -20 -20 -20 -20 -20 3 -20 -20 -20 -20 -4 22 36
-20 -20 -20 -20 -20 -20 -20 -20 -20 -20 -20 -20 -10 -19 -20 -20 -4 -2 0 5 -1 2 5 4 7 -1 5 -1 -2 -20 -20 -20 -20 -20 -20 -20 7 5 -17 -14 -11 28 17
-20 -20 -20 -20 -20 -20 -20 -20 -20 -20 -20 -20 -20 -20 -20 -14 -20 -20 -20 -3 -14 11 3 2 -2 -2 -11 4 14 -6 -18 -20 -20 -20 -20 -20 -20 0 9 -20 -19 -20 27
-20 -20 -20 -20 -20 -20 -20 -20 -20 -20 -20 -20 -20 -20 -14 -16 2 -20 -20 -16 -4 -20 -10 -1 -17 -20 -13 10 10 9 8 14 -9 -20 -20 -20 -20 -20 -12 -16 -20 -20 -20
-20 -20 -20 -20 -20 -20 -20 -20 -20 -20 -16 -20 -20 -20 -20 -20 -14 -15 -4 -16 -20 -14 -20 -2 3 -13 1 5 -19 9 6 9 5 8 7 2 -20 -20 -20 -1 10 -20 -20
-20 -20 -20 -20 -20 -20 -20 -20 -20 -20 -20 -20 -20 -20 -20 -20 -20 -20 -5 2 -20 -20 -20 -20 -20 -7 3 7 13 6 2 8 4 -20 -4 -20 -20 -20 -6 25 24 6 8
-20 -20 -20 -20 -20 -8 -20 -20 -20 -20 -20 -20 -20 -20 -20 -20 -16 -20 -4 -20 -20 -10 -20 -20 -20 -1 -6 -1 -4 4 13 -2 5 -5 -1 -20 -9 -1 0 -6 -20 3 9
-20 -20 -20 -20 -20 -7 6 -20 -20 -20 -20 -20 -20 -20 -20 -20 -20 2 -15 -2 -2 -20 -6 -20 -20 -13 -8 -1 5 -18 9 -17 -20 -8 -10 -11 -12 -10 -13 -13 -12 4 6
-20 -20 -20 -20 -20 -4 11 4 -3 -20 -20 -20 -20 -20 -20 -20 -20 -20 -20 -17 -5 -3 -20 -14 -17 -18 4 -15 3 10 -20 -20 -18 -18 -14 -20 -20 -10 -5 -3 0 6 5
-20 -20 -20 -10 -20 -4 22 -10 12 36 1 -15 -20 -20 -20 -20 -2 -20 -20 -19 3 -6 -1 -14 -20 -17 5 13 7 6 0 4 1 -7 -17 10 -8 -4 -2 7 -18 6 1
16 6 -20 -18 -19 -19 -16 -20 21 49 18 3 -3 -5 2 2 1 8 7 6 6 6 -2 -10 6 -1 6 9 16 0 -3 2 5 7 5 -12 -7 7 3 2 3 5 20

GFSSE_prec_radar_132.txt.gz
Reflectivity
-20 -20 -20 -20 -20 -20 -20 -20 -20 -20 -20 -20 -20 -20 -20 -20 -20 -20 -20 -20 -20 -20 -20 -20 -20 -20 -20 -20 -20 -20 -20 -20 -20 -20 -20 -20 -20 -20 -20 -20 -20 17 -14
-20 -20 -20 -20 -20 -20 -20 -20 -20 -20 -20 -20 -20 -20 -20 -20 -20 -20 -20 -20 -20 -20 -20 -20 -20 -20 -20 -20 -20 -20 -20 -20 -20 -20 -20 -20 -20 -20 -20 -20 -3 -15 2
-20 -20 -20 -20 -20 -20 -20 -20 -20 -20 -20 -20 -20 -20 -20 -20 -20 -20 -20 -20 -20 -20 -20 -20 -20 -20 -20 -20 -20 -20 -20 -20 -20 -20 -15 -20 -20 -20 -20 -19 -12 2 -19
-20 -20 -20 -20 -20 -20 -20 -20 -20 -20 -20 -20 -20 -20 -20 -20 -20 -20 -20 -20 -20 -20 -20 -20 -20 -20 -20 -20 -20 -20 -20 -20 -20 -20 10 23 10 -20 -20 -18 -20 -17 6
-20 -20 -20 -20 -20 -20 -20 -20 -20 -20 -20 -20 -20 -20 -20 -20 -20 -20 -20 -20 -20 -20 -20 -20 -20 -20 -20 -20 -20 -20 -20 -20 -20 -20 -0 44 15 -20 5 -20 -20 3 7
-20 -20 -20 -20 -20 -20 -20 -20 -20 -20 -20 -20 -20 -20 -20 -20 -20 -20 -20 -20 -20 -20 -20 -20 -20 -20 -20 -20 -20 -20 -20 -20 -20 31 36 -11 -18 -20 -20 -19 -20 -20 -18
-20 -20 -20 -20 -20 -20 -20 -20 -20 -20 -20 -20 -20 -20 -20 -20 -20 -20 -20 -20 -20 -20 2 -12 -20 -20 -20 -20 -20 -20 -20 -20 -20 19 3 -20 -20 -20 -20 -20 -20 -20 -14
-20 -20 -20 -20 -20 -20 -20 -20 -20 -20 -20 -20 -20 -20 -20 -20 -20 -20 -20 -20 -20 -20 -20 -20 -20 -20 -20 -20 -20 -20 -20 -20 -20 -20 -20 -20 -20 -20 -20 -20 -20 -20 13
-20 8 -20 -20 -20 -20 -20 -20 -20 -20 -20 -20 -20 -20 -20 -20 -20 -20 -20 -20 -20 -20 -20 -20 -20 -20 -20 -20 -20 -20 -20 -20 -20 -11 -20 -20 -20 -20 -20 -20 -20 -20 8
-20 -20 -19 -20 -20 -20 -20 -20 -20 -20 -20 -20 -20 -20 -20 -20 -20 -20 -20 -20 -20 -20 -20 -20 -20 -20 -20 -20 -20 -20 -20 -20 -20 -20 -20 -20 -20 -20 -20 -20 -20 -20 -13
-20 -20 -16 13 -20 -20 -20 -20 -20 -20 -20 -20 -20 -20 -20 -20 -20 -20 -20 -20 -20 -20 -20 -20 -20 -20 -20 -20 -20 -20 -20 -20 -20 -5 26 -16 -20 -20 -20 -20 -20 -18 20
-20 -20 -20 -20 9 -20 -20 -20 -20 -20 -20 -20 -20 -20 -20 -20 -20 -20 -20 -20 -20 -20 -20 -20 -20 -20 -20 -20 -20 -20 -20 -20 -8 -20 8 24 -20 -20 -20 -20 -20 -20 -20
-20 -20 -20 -20 -20 27 -20 -9 -20 -20 -20 -20 -20 -20 -20 -20 -20 -20 -20 -20 -20 -20 -20 -20 -20 -20 -20 -20 -20 -20 -20 -13 0 -20 -20 -17 -20 -20 -20 -20 -20 -19 -20
-20 -20 -20 -20 -20 -20 7 -20 -20 -20 -20 -20 -20 -20 -20 -20 -10 -20 -20 -20 -20 -20 -20 -20 -20 -20 -20 -20 -20 -14 -16 17 -1 11 -20 -20 -20 -20 -20 -20 -20 -20 -20
-20 -20 -20 -20 -20 -7 -9 20 -8 -20 -20 -20 -20 -20 -20 -20 -20 -20 -20 -20 -20 -20 -20 -20 -20 -20 -20 -20 8 -20 -20 4 -14 -19 -10 -14 -20 -20 -20 -20 -20 -20 -20
-20 -20 -20 -20 -20 -20 -18 -2 2 11 -20 -20 -20 -20 -20 -20 -20 8 6 -20 -20 -20 -20 -20 -12 -9 -20 -9 -4 -20 -20 -20 -20 -11 -20 -18 -12 -20 -20 -20 -20 -20 -20
-20 -20 -20 -20 -20 -20 -20 -20 10 -16 17 -20 -20 1 -20 -20 -19 6 -20 -20 -20 -20 -20 -20 -20 -20 -20 -13 -20 -3 -17 -20 -18 -20 -20 -20 -20 -20 -4 -20 -20 -20 -20
-20 -20 -20 -20 -20 -20 -19 -20 -7 -12 13 -19 -20 -20 -20 -20 -20 12 6 -20 -20 -15 -2 -20 -20 -20 -20 1 -20 -9 -20 9 9 -19 -15 3 -18 -20 13 -18 -20 -20 -20
-20 -20 -20 -20 -20 -20 -20 11 -15 -18 -10 -17 -20 -20 -20 -20 -20 -7 -5 -7 -20 6 6 -8 -20 -20 -20 -20 -20 -11 -20 -20 -20 -20 0 6 7 -7 -20 11 -20 -20 -20
-20 -20 -20 -20 -20 -20 -20 -20 21 23 24 -8 -20 -20 -20 -20 -20 -20 -20 -20 8 -20 -12 -16 -20 10 -20 -20 -0 -20 -20 -20 -20 -20 -20 -20 -20 -20 -20 -20 -20 -20 -20
-20 -20 -20 -20 -20 -20 -20 -20 -20 -13 7 37 -1 -16 -20 -20 -20 -20 3 -20 -20 -0 -20 -2 -20 -20 -20 -20 -20 5 -20 -20 -20 -20 -20 -20 -20 -20 9 -15 -20 -20 -20
-20 -20 -20 -20 -20 -20 -20 -20 -20 -20 34 -20 -5 -3 -20 -20 -20 -20 -6 -20 -20 -20 -11 -12 -14 -4 -1 9 -20 -20 -19 -20 -20 -20 -20 -20 -20 -20 -17 4 7 -20 -20
-20 -8 -20 -20 -20 -20 -20 -20 -11 -14 -15 35 36 -10 -20 -20 -20 -20 -20 -20 -20 -19 -20 -20 7 -17 -7 1 9 -20 -20 -20 -20 -20 -20 -20 -20 -20 -20 -20 4 -2 -20
-20 -20 -20 -20 -20 -20 -20 -19 0 2 11 14 4 6 -16 -20 -20 -20 -20 -14 -5 -20 -10 -18 -20 -20 -4 -20 3 1 -20 -20 -20 -20 -20 -20 -20 -20 -20 -20 -20 -20 -20
-20 -20 -20 -20 -2 -20 -20 -5 -2 -19 -8 -12 14 37 -11 -20 -20 -20 -20 -20 7 -20 -20 -11 6 -9 -12 -14 -6 -20 -19 -20 -20 -17 -20 -20 -20 -20 -20 -20 -20 -20 -20
-10 -20 -11 -5 -4 -20 -10 22 11 -20 -20 28 34 38 2 8 -4 0 -11 -7 -16 4 -20 -20 -19 -20 11 -10 10 -20 -20 -20 17 5 -18 -20 -17 -8 5 -19 -20 -20 -20

GFSSE_prec_radar_135.txt.gz
Reflectivity
-20 -20 -20 -20 -20 -20 -20 -20 -20 -20 -20 -20 -20 -20 -20 -20 -20 -20 -20 -20 -20 -20 -20 -20 -20 -20 -20 -20 12 -20 -20 -10 -20 -20 -20 -3 -20 -20 -20 -20 -20 -20 -20
-20 -20 -20 -20 -20 -20 -20 -20 -20 -20 -20 -20 -20 -20 -20 -20 -20 -20 -20 -20 -20 -20 -20 -20 -20 -20 -20 -17 -20 -20 -20 -20 -20 -20 -20 -20 -20 -20 -20 -20 -15 -20 -20
-20 -20 -20 -20 -20 -20 -20 -20 -20 -20 -20 -20 -20 -20 -20 -20 -20 -20 -20 -20 -20 -20 -20 -20 -20 -20 -20 -20 -20 -20 -20 -20 -20 -20 -20 -20 -17 -20 -20 -19 -20 -16 -15
-20 -20 -20 -20 -20 -20 -20 -20 -20 -20 -20 -20 -20 -20 -20 -20 -20 -20 -20 -20 -20 -20 -20 -20 -20 -20 -20 -20 -20 -20 -20 -20 -20 -20 -20 -20 -20 2 -2 -20 -20 -20 -17
-20 -20 -20 -20 -20 -20 -20 -20 -20 -20 -20 -20 -20 -20 -20 -20 -20 -20 -20 -20 -20 -20 -20 -20 -20 -20 -20 -20 -20 -20 -20 -20 -20 -20 -20 -20 -20 -20 -20 -20 -20 -20 -20
-20 -20 -20 -20 -20 -20 -20 -20 -20 -20 -20 -20 -20 -20 -20 -20 -20 -20 -20 -20 -20 -20 -20 -20 -20 -20 -20 -20 -20 -20 -20 -20 -20 -20 -20 -20 -20 -20 -20 -20 -20 -20 -20
-20 -20 -20 -20 -20 -20 -20 -20 -20 -20 -20 -20 -20 -20 -20 -20 -20 -20 -20 -20 -20 -20 -20 -20 -20 -20 -20 -20 -20 -20 -20 -20 -20 -20 -20 -20 -20 -20 -20 -20 -20 -20 -20
-20 -20 -20 -20 -20 -20 -20 -20 -20 -20 -20 -20 -20 -20 -20 -20 -20 -20 -20 -20 -20 -20 -20 -20 -20 -20 -20 -20 -20 -20 -20 -20 -20 -20 -18 -20 -20 -20 -20 -20 -20 -20 -20
-20 -20 -20 -20 -20 -20 -20 -20 -20 -20 -20 -20 -20 -20 -20 -20 -20 -20 -20 -20 -20 -20 -20 -20 -20 -20 -20 -20 -20 -20 -20 -20 -20 -20 -20 -20 -20 -20 -20 -20 -20 -20 -20
-20 -20 -20 -20 -20 -20 -20 -20 -20 -20 -20 -20 -20 -20 -20 -20 -20 -20 -20 -20 -20 -20 -20 -20 -20 -20 -20 -20 -20 -20 -20 -20 -20 -20 -20 -20 -20 -20 -20 -20 -20 -20 -20
-20 -20 -20 -20 -20 -20 -20 -20 -20 -20 -20 -20 -20 -20 -20 -20 -20 -20 -20 -20 -20 -20 -20 -20 -20 -20 -20 -20 -20 -20 -20 -20 -20 -20 -20 -20 -20 -20 -20 -20 -20 -20 -20
-20 -20 -20 -20 -20 -20 -20 -20 -20 -20 -20 -20 -20 -20 -20 -20 -20 -20 -20 -20 -20 -20 -20 -20 -20 -20 -20 -20 -20 -20 -20 -20 -20 -20 -20 -20 -20 -20 -20 -20 -20 -20 -20
-20 -20 -20 -20 -20 -20 -20 -20 -20 -20 -20 -20 -20 -20 -20 -20 -20 -20 -20 -20 -20 -20 -20 -20 -20 -20 -20 -20 -20 -20 -20 -20 -20 -20 -20 -20 -20 -20 -20 -20 -20 -20 -20
-20 -20 -20 -20 -2 -19 35 -5 -19 -20 -20 -20 -20 -20 -20 -20 -20 -20 -20 -20 -20 -20 -20 -20 -20 -20 -20 -20 -20 -20 -20 -20 -20 -20 -20 -20 -20 -20 -20 -20 -20 -20 -20
-20 -20 -20 -20 -20 -20 -20 23 17 -11 -17 -20 -20 -20 -20 -20 -20 -20 -20 -20 -20 -20 -20 -20 -20 -20 -20 -20 -20 -20 -3 -20 -20 -20 -20 -20 -20 -20 -20 -20 -20 -20 -20
-20 -20 -20 -20 -20 -20 -20 -7 11 28 -9 -16 -19 -20 -20 -20 -20 -20 -20 -20 -20 -20 -20 -20 -20 -20 -20 -20 -20 -20 -12 -15 -20 -20 -20 -20 -20 4 -17 -4 -20 -20 -20
-20 -20 -20 -20 -20 -20 -20 -20 -20 35 -9 28 1 -16 -20 -20 -20 -20 -20 -20 -20 -20 -20 -20 -20 -8 -20 -20 -20 -20 -20 19 -20 -20 -20 -20 -3 9 -12 -20 -20 -20 -20
-20 -20 -20 -20 -20 -20 -20 -20 -20 -15 39 1 34 -4 -10 -19 -20 -20 -20 -20 -20 -20 -20 -20 -2 3 -20 -20 -20 -20 -20 -13 -20 -20 -1 -13 2 10 14 16 -20 -20 -20
-20 -20 -20 -20 -20 -20 -20 -20 -20 -20 -20 2 8 21 10 -17 -7 -20 -20 -20 -20 -20 -20 -20 -20 -11 -20 -20 -20 -20 -20 -20 -20 -2 -17 -20 -13 -12 -4 6 2 -20 -20
-20 -20 -20 -20 -20 -20 -20 -20 -20 -20 -20 -20 28 6 19 12 -12 10 -15 -20 -20 -20 -20 -20 -20 -20 -20 -20 6 -0 -20 -20 -20 -20 -20 7 -20 -20 -20 -15 -14 -10 -20
-20 -20 -20 -20 -20 -20 -20 -20 -20 -20 -20 -20 -20 30 35 36 7 6 6 -20 -20 -20 -20 -20 -20 -20 -20 -20 -20 -20 -20 -20 -20 -20 -20 -20 -20 -20 -20 -16 2 -20 -20
-20 -20 -20 -20 -20 -20 -20 -20 -20 -20 -20 -20 -20 -20 29 39 32 11 -2 -8 -20 -20 -20 3 5 -20 -20 -20 -20 -20 -20 -20 -20 -20 -20 -20 -20 -20 -20 -20 -20 -20 -20
-20 -20 -20 -20 -20 -20 -20 -20 -20 -18 -20 -20 -20 -20 -15 27 35 -10 -20 -20 -20 -20 -19 -20 -20 -15 -16 -16 -20 -20 -20 -20 -20 -20 -20 -20 -20 -20 -20 -20 -20 -20 -20
-20 -20 -20 -20 -20 -20 -20 -20 -16 -17 -20 -20 -20 -12 -20 31 35 16 -19 -20 -20 -20 -20 -20 -20 -20 -20 -20 -20 -20 -20 -20 -20 -20 -20 -20 -20 -20 -20 -20 -20 -20 -20
-20 -20 -20 -20 -20 -20 -20 -16 -20 -5 8 -20 -15 -19 -14 -17 12 34 16 -15 -20 -20 -20 -20 -20 -20 -20 -17 -20 -20 -20 -20 -20 -20 -20 -20 -20 -20 -20 -20 -20 -20 -20
-9 -20 -20 -20 -20 -20 -20 1 -20 8 0 -2 -10 -19 -19 25 12 34 31 11 -9 -14 -20 -20 -20 -20 -16 -20 -20 -20 -20 -20 -20 -20 -20 -20 -20 -20 -15 -20 -20 -20 -20

GFSSE_prec_radar_138.txt.gz
Reflectivity
-20 -20 -20 -20 -20 -20 -20 -20 -20 -20 -20 -20 -20 -20 -20 -20 -20 -20 -20 -20 -20 -20 -20 -20 -20 -20 -20 -20 -20 -20 -20 -20 -20 -20 -20 9 -20 -20 3 -20 -20 -20 5
-20 -20 -20 -20 -20 -20 -20 -20 -20 -20 -20 -20 -20 -20 -20 -20 -20 -20 -20 -20 -20 -20 -20 -20 -20 -20 -20 -20 -20 -20 -20 -20 -20 -20 7 -20 -20 -20 16 -20 -20 -20 -20
-20 -20 -20 -20 -20 -20 -20 -20 -20 -20 -20 -20 -20 -20 -20 -20 -20 -20 -20 -20 -20 -20 -20 -20 -20 -20 -20 -20 -20 -20 -20 -20 -20 -20 -20 -20 -20 -20 -20 -20 -20 -20 -20
-20 -20 -20 -20 -20 -20 -20 -20 -20 -20 -20 -20 -20 -20 -20 -20 -20 -20 -20 -20 -20 -20 -20 -20 -20 -20 -20 -20 -20 -20 -20 -20 -20 -20 -20 -20 -20 -20 -20 -20 -20 -20 -20
-20 -20 -20 -20 -20 -20 -20 -20 -20 -20 -20 -20 -20 -20 -20 -20 -20 -20 -20 -20 -20 -20 -20 -20 -20 -20 -20 -20 -20 -20 -20 -20 -20 -20 -20 -20 -20 -20 -20 -20 -20 -20 -20
-20 -20 -20 -20 -20 -20 -20 -20 -20 -20 -20 -20 -20 -20 -20 -20 -20 -20 -20 -20 -20 -20 -20 -20 -20 -20 -20 -20 -20 -20 -20 -20 -20 -20 -20 -20 -20 -20 -20 -20 -20 -20 -20
-20 -20 -20 -20 -20 -20 -20 -20 -20 -20 -20 -20 -20 -20 -20 -20 -20 -20 -20 -20 -20 -20 -20 -20 -20 -20 -20 -20 -20 -20 -20 -20 -20 -20 -20 -20 20 -20 -20 -20 -20 -20 -20
-20 -20 -20 -20 -20 -20 -20 -20 -20 -20 -20 -20 -20 -20 -20 -20 -20 -20 -20 -20 -20 -20 -20 -20 -20 -20 -20 -20 -20 -20 -20 -20 -20 -20 -20 -20 -20 -20 -20 -20 -20 -20 -20
-20 -20 -20 -20 -20 -20 -20 -20 -20 -20 -20 -20 -20 -20 -20 -20 -20 -20 -20 -20 -20 -20 -20 -20 -20 -20 -20 -20 -20 -20 -20 -20 -20 -20 -20 -20 -20 -20 -20 -20 -20 -20 -20
-20 -20 -20 -20 -20 -20 -20 -20 -20 -20 -20 -20 -20 -20 -20 -20 -20 -20 -20 -20 -20 -20 -20 -20 -20 -20 -20 -20 -20 -20 -20 -20 -20 -20 -20 -20 -20 -20 -20 -20 -20 -20 -20
-20 -20 -20 -13 16 -20 -20 -20 -20 -20 -20 -20 -20 -20 -20 -20 -20 -20 -20 -20 -20 -20 -20 -20 -20 -20 -20 -20 -20 -20 -20 -20 -20 -20 -20 -20 -20 -20 -20 -20 -20 -20 -20
-20 -20 -20 -20 -20 -13 -13 -20 -20 -20 -20 -20 -20 -20 -20 -20 -20 -20 -20 -20 -20 -20 -20 -20 -20 -20 -20 -20 -20 -20 -20 -20 -20 -20 -20 -20 -20 -20 -20 -20 -20 -20 -20
-20 -20 -20 -20 -20 -20 -20 18 -8 -9 -20 -20 -20 -20 -20 -20 -20 -20 -20 -20 -20 -20 -20 -20 -20 -20 -20 -20 -20 -20 -20 -20 -20 -20 -20 -20 -19 -20 -20 -20 -20 -20 24
-20 -20 -20 -20 -20 -20 -20 -20 12 16 24 -13 -19 -20 -20 -20 -20 -20 -20 -20 -20 -20 -20 -20 -20 -20 -20 -20 -20 -20 -20 -20 -20 -20 -2 -20 23 -20 -20 -20 -20 -20 -20
-20 -20 -20 -20 -20 -20 -20 -20 4 6 11 13 13 -12 -20 -20 -20 -20 -20 -20 -20 -20 -20 -20 -20 -20 -20 -20 -20 -20 -20 -20 -20 -20 -20 -20 -20 4 -11 -20 -20 -20 -20
-20 -20 -20 -20 -20 -20 -20 -20 -20 4 -4 5 12 32 -4 -20 -20 -20 -20 -20 -20 -20 -20 -20 -20 -20 -20 -20 -20 -20 -0 -20 -20 -20 -20 -20 -20 -20 -11 -15 -16 -7 -20
-20 -20 -20 -20 -20 -20 -20 -20 -20 -20 -18 5 5 -17 24 23 -17 -20 -20 -20 -20 -20 -20 -20 -20 -20 -20 -20 -20 -20 -20 -20 -20 -20 -20 -20 -20 1 5 -20 7 -20 -19
-20 -20 -20 -20 -20 -20 -20 -20 -20 -20 -20 -11 -20 -10 9 29 9 -14 -20 -20 -20 -20 -20 -20 -20 -20 -20 -20 -20 -20 -20 -16 -20 2 -17 8 1 -20 14 11 15 14 -13
-20 -20 -20 -20 -20 -20 -20 -20 -20 -20 -20 -20 -20 12 17 25 29 20 -18 -20 -20 -20 -20 -20 -20 -20 -20 -20 -20 -20 -20 7 -20 -16 -20 -14 -0 -14 -20 -12 4 4 15
-20 -20 -20 -20 -20 -20 -20 -20 -20 -20 -20 -20 -20 11 9 1 35 31 24 -6 -20 -20 -20 -20 -20 -20 -20 -20 -20 -20 -20 -20 -20 -20 -12 10 -20 -20 -20 -20 9 -20 8
-20 -20 -20 -20 -20 -20 -20 -20 -20 -20 -20 -20 -20 -20 -20 1 37 43 27 32 6 11 -20 -20 -20 -20 -5 -20 -20 -20 -20 -20 -20 -20 -20 -20 -20 -20 -20 -20 -20 -13 -20
-20 -20 -20 -20 -20 -20 -20 -20 -20 -16 -20 -2 -20 -20 -20 -16 23 9 32 32 28 12 13 -17 -19 -20 0 5 -6 -20 4 -19 -20 -20 -20 -20 -20 -20 -20 -20 -20 -20 -20
-20 -20 -20 -20 -20 -20 -20 -20 -20 -13 -20 -20 -20 -20 -20 -20 22 18 49 35 32 6 -18 -20 -20 -20 -20 -12 -19 -18 -14 -20 -20 -20 -20 -20 -20 -20 -20 -20 -20 -20 -20
-20 -20 -20 -20 -20 -20 -20 -20 -20 -20 -15 -20 -20 -20 -20 -20 10 25 29 28 33 30 -3 -19 -20 -20 -10 -20 -20 -10 -20 -20 -20 -20 -20 -20 -20 -20 -20 -20 -20 -20 -20
-20 -20 -20 -20 -20 -20 -20 -20 -20 -20 5 6 -15 -20 -20 -20 -20 22 9 -20 31 33 11 -1 -20 -20 -20 -20 -20 -20 -20 -20 -20 -20 -20 -20 -20 -20 -20 -20 -20 -20 -19
-20 -20 -20 -13 -13 -20 -20 -20 -20 -20 5 1 -19 -12 -20 -20 -13 -12 7 17 32 48 34 23 28 -10 -20 1 -20 -20 -20 -20 -20 -20 -20 -20 -20 -20 -20 -20 -20 -20 -20